[[{"header":{"parameterUnit":"m.s-1","parameterCategory":1,"la1":31.0,"la2":29.5877,"lo1":-88.7671,"lo2":-86.6584,"dy":0.0162,"dx":0.0185,"nx":115,"ny":88,"refTime":"2026-03-21T00:00:00:Z","depth":0,"parameterNumber":2,"parameterNumberName":"U-component_of_WINDS"},"data":[0.0,0.0,0.0,0.0,0.0,0.0,0.0,0.0,0.0,0.0,0.0,0.0,0.0,0.0,0.0,0.0,0.0,0.0,0.0,0.0,0.0,0.0,0.0,0.0,0.0,0.0,0.0,0.0,0.0,0.0,0.0,0.0,0.0,0.0,0.0,0.0,0.0,0.0,0.0,0.0,0.0,0.0,0.0,0.0,0.0,0.0,0.0,0.0,0.0,0.0,0.0,0.0,0.0,0.0,0.0,0.0,0.0,0.0,0.0,0.0,0.0,0.0,0.0,0.0,0.0,0.0,0.0,0.0,0.0,0.0,0.0,0.0,0.0,0.0,0.0,0.0,0.0,0.0,0.0,0.0,0.0,0.0,0.0,0.0,0.0,0.0,0.0,0.0,0.0,0.0,0.0,0.0,0.0,0.0,0.0,0.0,0.0,0.0,0.0,0.0,0.0,0.0,0.0,0.0,0.0,0.0,0.0,0.0,0.0,0.0,0.0,0.0,0.0,0.0,0.0,0.0,0.0,0.0,0.0,0.0,0.0,0.0,0.0,0.0,0.0,0.0,0.0,0.0,0.0,0.0,0.0,0.0,0.0,0.0,0.0,0.0,0.0,0.0,0.0,0.0,0.0,0.0,0.0,0.0,0.0,0.0,0.0,0.0,0.0,0.0,0.0,0.0,0.0,0.0,0.0,0.0,0.0,0.0,0.0,0.0,0.0,0.0,0.0,0.0,0.0,0.0,0.0,0.0,0.0,0.0,0.0,0.0,0.0,0.0,0.0,0.0,0.0,0.0,0.0,0.0,0.0,0.0,0.0,0.0,0.0,0.0,0.0,0.0,0.0,0.0,0.0,0.0,0.0,0.0,0.0,0.0,0.0,0.0,0.0,0.0,0.0,0.0,0.0,0.0,0.0,0.0,0.0,0.0,0.0,0.0,0.0,0.0,0.0,0.0,0.0,0.0,0.0,0.0,0.0,0.0,0.0,0.0,0.0,0.0,0.0,0.0,0.0,0.0,0.0,0.0,0.0,0.0,0.0,0.0,0.0,0.0,0.0,0.0,0.0,0.0,0.0,0.0,0.0,0.0,0.0,0.0,0.0,0.0,0.0,0.0,0.0,0.0,0.0,0.0,0.0,0.0,0.0,0.0,0.0,0.0,0.0,0.0,0.0,0.0,0.0,0.0,0.0,0.0,0.0,0.0,0.0,0.0,0.0,0.0,0.0,0.0,0.0,0.0,0.0,0.0,0.0,0.0,0.0,0.0,0.0,0.0,0.0,0.0,0.0,0.0,0.0,0.0,0.0,0.0,0.0,0.0,0.0,0.0,0.0,0.0,0.0,0.0,0.0,0.0,0.0,0.0,0.0,0.0,0.0,0.0,0.0,0.0,0.0,0.0,0.0,0.0,0.0,0.0,0.0,0.0,0.0,0.0,0.0,0.0,0.0,0.0,0.0,0.0,0.0,0.0,0.0,0.0,0.0,0.0,0.0,0.0,0.0,0.0,0.0,0.0,0.0,0.0,0.0,0.0,0.0,0.0,0.0,0.0,0.0,0.0,0.0,0.0,0.0,0.0,0.0,0.0,0.0,0.0,0.0,0.0,0.0,0.0,0.0,0.0,0.0,0.0,0.0,0.0,0.0,0.0,0.0,0.0,0.0,0.0,0.0,0.0,0.0,0.0,0.0,0.0,0.0,0.0,0.0,0.0,0.0,0.0,0.0,0.0,0.0,0.0,0.0,0.0,0.0,0.0,0.0,0.0,0.0,0.0,0.0,0.0,0.0,0.0,0.0,0.0,0.0,0.0,0.0,0.0,0.0,0.0,0.0,0.0,0.0,0.0,0.0,0.0,0.0,0.0,0.0,0.0,0.0,0.0,0.0,0.0,0.0,0.0,0.0,0.0,0.0,0.0,0.0,0.0,0.0,0.0,0.0,0.0,0.0,0.0,0.0,0.0,0.0,0.0,0.0,0.0,0.0,0.0,0.0,0.0,0.0,0.0,0.0,0.0,0.0,0.0,0.0,0.0,0.0,0.0,0.0,0.0,0.0,0.0,0.0,0.0,0.0,0.0,0.0,0.0,0.0,0.0,0.0,0.0,0.0,0.0,0.0,0.0,0.0,0.0,0.0,0.0,0.0,0.0,0.0,0.0,0.0,0.0,0.0,0.0,0.0,0.0,0.0,0.0,0.0,0.0,0.0,0.0,0.0,0.0,0.0,0.0,0.0,0.0,0.0,0.0,0.0,0.0,0.0,0.0,0.0,0.0,0.0,0.0,0.0,0.0,0.0,0.0,0.0,0.0,0.0,0.0,0.0,0.0,0.0,0.0,0.0,0.0,0.0,0.0,0.0,0.0,0.0,0.0,0.0,0.0,0.0,0.0,0.0,0.0,0.0,0.0,0.0,0.0,0.0,0.0,0.0,0.0,0.0,0.0,0.0,0.0,0.0,0.0,0.0,0.0,0.0,0.0,0.0,0.0,0.0,0.0,0.0,0.0,0.0,0.0,0.0,0.0,0.0,0.0,0.0,0.0,0.0,0.0,0.0,0.0,0.0,0.0,0.0,0.0,0.0,0.0,0.0,0.0,0.0,0.0,0.0,0.0,0.0,0.0,0.0,0.0,0.0,0.0,0.0,0.0,0.0,0.0,0.0,0.0,0.0,0.0,0.0,0.0,0.0,0.0,0.0,0.0,0.0,0.0,0.0,0.0,0.0,0.0,0.0,0.0,0.0,0.0,0.0,0.0,0.0,0.0,0.0,0.0,0.0,0.0,0.0,0.0,0.0,0.0,0.0,0.0,0.0,0.0,0.0,0.0,0.0,0.0,0.0,0.0,0.0,0.0,0.0,0.0,0.0,0.0,0.0,0.0,0.0,0.0,0.0,0.0,0.0,0.0,0.0,0.0,0.0,0.0,0.0,0.0,0.0,0.0,0.0,0.0,0.0,0.0,0.0,0.0,0.0,0.0,0.0,0.0,0.0,0.0,0.0,0.0,0.0,0.0,0.0,0.0,0.0,0.0,0.0,0.0,0.0,0.0,0.0,0.0,0.0,0.0,0.0,0.0,0.0,0.0,0.0,0.0,0.0,0.0,0.0,0.0,0.0,0.0,0.0,0.0,0.0,0.0,0.0,0.0,0.0,0.0,0.0,0.0,0.0,0.0,0.0,0.0,0.0,0.0,0.0,0.0,0.0,0.0,0.0,0.0,0.0,0.0,0.0,0.0,0.0,0.0,0.0,0.0,0.0,0.0,0.0,0.0,0.0,0.0,0.0,0.0,0.0,0.0,0.0,0.0,0.0,0.0,0.0,0.0,0.0,0.0,0.0,0.0,0.0,0.0,0.0,0.0,0.0,0.0,0.0,0.0,0.0,0.0,0.0,0.0,0.0,0.0,0.0,0.0,0.0,0.0,0.0,0.0,0.0,0.0,0.0,0.0,0.0,0.0,0.0,0.0,0.0,0.0,0.0,0.0,0.0,0.0,0.0,0.0,0.0,0.0,0.0,0.0,0.0,0.0,0.0,0.0,0.0,0.0,0.0,0.0,0.0,0.0,0.0,0.0,0.0,0.0,0.0,0.0,0.0,0.0,0.0,0.0,0.0,0.0,0.0,0.0,0.0,0.0,0.0,0.0,0.0,0.0,0.0,0.0,0.0,0.0,0.0,0.0,0.0,0.0,0.0,0.0,0.0,0.0,0.0,0.0,0.0,0.0,0.0,0.0,0.0,0.0,0.0,0.0,0.0,0.0,0.0,0.0,0.0,0.0,0.0,0.0,0.0,0.0,0.0,0.0,0.0,0.0,0.0,0.0,0.0,0.0,0.0,0.0,0.0,0.0,0.0,0.0,0.0,0.0,0.0,0.0,0.0,0.0,0.0,0.0,0.0,0.0,0.0,0.0,0.0,0.0,0.0,0.0,0.0,0.0,0.0,0.0,0.0,0.0,0.0,0.0,0.0,0.0,0.0,0.0,0.0,0.0,0.0,0.0,0.0,0.0,0.0,0.0,0.0,0.0,0.0,0.0,0.0,0.0,0.0,0.0,0.0,0.0,0.0,0.0,0.0,0.0,0.0,0.0,0.0,0.0,0.0,0.0,0.0,0.0,0.0,0.0,0.0,0.0,0.0,0.0,0.0,0.0,0.0,0.0,0.0,0.0,0.0,0.0,0.0,0.0,0.0,0.0,0.0,0.0,0.0,0.0,0.0,0.0,0.0,0.0,0.0,0.0,0.0,0.0,0.0,0.0,0.0,0.0,0.0,0.0,0.0,0.0,0.0,0.0,0.0,0.0,-0.9698,0.0,0.0,0.0,0.0,0.0,0.0,0.0,0.0,0.0,0.0,0.0,0.0,0.0,0.0,0.0,0.0,0.0,0.0,0.0,0.0,0.0,0.0,0.0,0.0,0.0,0.0,0.0,0.0,0.0,0.0,0.0,0.0,0.0,0.0,0.0,0.0,0.0,0.0,0.0,0.0,0.0,0.0,0.0,0.0,0.0,0.0,0.0,0.0,0.0,0.0,0.0,0.0,0.0,0.0,0.0,0.0,0.0,0.0,0.0,0.0,0.0,0.0,0.0,0.0,0.0,0.0,0.0,0.0,0.0,0.0,0.0,0.0,0.0,0.0,0.0,0.0,0.0,0.0,0.0,0.0,0.0,0.0,0.0,0.0,0.0,0.0,0.0,0.0,0.0,0.0,0.0,0.0,0.0,0.0,0.0,0.0,0.0,0.0,0.0,0.0,0.0,0.0,0.0,0.0,0.0,0.0,0.0,0.0,0.0,0.0,-0.9372,-0.95,-0.956,-0.9617,-0.9698,0.0,0.0,0.0,0.0,0.0,0.0,0.0,0.0,0.0,0.0,0.0,0.0,0.0,0.0,0.0,0.0,0.0,0.0,0.0,0.0,0.0,0.0,0.0,0.0,0.0,0.0,0.0,0.0,0.0,0.0,0.0,0.0,0.0,0.0,0.0,0.0,0.0,0.0,0.0,0.0,0.0,0.0,0.0,0.0,0.0,0.0,0.0,0.0,0.0,0.0,0.0,0.0,0.0,0.0,0.0,0.0,0.0,0.0,0.0,0.0,0.0,0.0,0.0,0.0,0.0,0.0,0.0,0.0,0.0,0.0,0.0,0.0,0.0,0.0,0.0,0.0,0.0,0.0,0.0,0.0,0.0,0.0,0.0,0.0,0.0,0.0,0.0,0.0,0.0,0.0,0.0,0.0,0.0,0.0,0.0,0.0,0.0,0.0,0.0,0.0,0.0,0.0,0.0,0.0,0.0,0.0,0.0,0.0,0.0,0.0,0.0,0.0,-0.9457,-0.9615,-0.9694,0.0,0.0,0.0,0.0,0.0,0.0,0.0,0.0,0.0,0.0,0.0,0.0,0.0,0.0,0.0,0.0,0.0,0.0,0.0,0.0,0.0,0.0,0.0,0.0,0.0,0.0,0.0,0.0,0.0,0.0,0.0,0.0,0.0,0.0,0.0,0.0,0.0,0.0,0.0,0.0,0.0,0.0,0.0,0.0,0.0,0.0,0.0,0.0,0.0,0.0,0.0,0.0,0.0,0.0,0.0,0.0,0.0,0.0,0.0,0.0,0.0,0.0,0.0,0.0,0.0,0.0,0.0,0.0,0.0,0.0,0.0,0.0,0.0,0.0,0.0,0.0,0.0,0.0,0.0,0.0,0.0,0.0,0.0,0.0,0.0,0.0,0.0,0.0,0.0,0.0,0.0,0.0,0.0,0.0,0.0,0.0,0.0,0.0,0.0,0.0,0.0,0.0,0.0,0.0,0.0,0.0,0.0,0.0,0.0,0.0,-0.8271,-0.8416,-0.9111,0.0,-0.9691,0.0,0.0,0.0,0.0,0.0,0.0,0.0,0.0,0.0,0.0,0.0,0.0,0.0,0.0,0.0,0.0,0.0,0.0,0.0,0.0,0.0,0.0,0.0,0.0,0.0,0.0,0.0,0.0,0.0,0.0,0.0,0.0,0.0,0.0,0.0,0.0,0.0,0.0,0.0,0.0,0.0,0.0,0.0,0.0,0.0,0.0,0.0,0.0,0.0,0.0,0.0,0.0,0.0,0.0,0.0,0.0,0.0,0.0,0.0,0.0,0.0,0.0,0.0,0.0,0.0,0.0,0.0,0.0,0.0,0.0,0.0,0.0,0.0,0.0,0.0,0.0,0.0,0.0,0.0,0.0,0.0,0.0,0.0,0.0,0.0,0.0,0.0,0.0,0.0,0.0,0.0,0.0,0.0,0.0,0.0,0.0,0.0,0.0,0.0,0.0,0.0,0.0,0.0,0.0,0.0,0.0,0.0,0.0,0.0,0.0,0.0,-0.8235,-0.9147,-0.9637,0.0,0.0,0.0,0.0,0.0,0.0,0.0,0.0,0.0,0.0,0.0,0.0,0.0,0.0,0.0,0.0,0.0,0.0,0.0,0.0,0.0,0.0,0.0,0.0,0.0,0.0,0.0,0.0,0.0,0.0,0.0,0.0,0.0,0.0,0.0,0.0,0.0,0.0,0.0,0.0,0.0,0.0,0.0,0.0,0.0,0.0,0.0,0.0,0.0,0.0,0.0,0.0,0.0,0.0,0.0,0.0,0.0,0.0,0.0,0.0,0.0,0.0,0.0,0.0,0.0,0.0,0.0,0.0,0.0,0.0,0.0,0.0,0.0,0.0,0.0,0.0,0.0,0.0,0.0,0.0,0.0,0.0,0.0,0.0,0.0,0.0,0.0,0.0,0.0,0.0,0.0,0.0,0.0,0.0,0.0,0.0,0.0,0.0,0.0,0.0,0.0,0.0,0.0,0.0,0.0,0.0,0.0,0.0,0.0,0.0,-0.7453,0.0,-0.8516,-0.9268,-0.9665,-0.9665,0.0,0.0,0.0,0.0,0.0,0.0,0.0,0.0,0.0,0.0,0.0,0.0,0.0,0.0,0.0,0.0,0.0,0.0,0.0,0.0,0.0,0.0,0.0,0.0,0.0,0.0,0.0,0.0,0.0,0.0,0.0,0.0,0.0,0.0,0.0,0.0,0.0,0.0,0.0,0.0,0.0,0.0,0.0,0.0,0.0,0.0,0.0,0.0,0.0,0.0,0.0,0.0,0.0,0.0,0.0,0.0,0.0,0.0,0.0,0.0,0.0,0.0,0.0,0.0,0.0,0.0,0.0,0.0,0.0,0.0,0.0,0.0,0.0,0.0,0.0,0.0,0.0,0.0,0.0,0.0,0.0,0.0,0.0,0.0,0.0,0.0,0.0,0.0,0.0,0.0,0.0,0.0,0.0,0.0,0.0,0.0,0.0,0.0,0.0,0.0,0.0,0.0,0.0,0.0,0.0,0.0,0.0,0.0,0.0,-0.6723,-0.7643,-0.9265,-0.9516,-0.9621,0.0,0.0,0.0,0.0,0.0,0.0,0.0,0.0,0.0,0.0,0.0,0.0,0.0,0.0,0.0,0.0,0.0,0.0,0.0,0.0,0.0,0.0,0.0,0.0,0.0,0.0,0.0,0.0,0.0,0.0,0.0,0.0,0.0,0.0,0.0,0.0,0.0,0.0,0.0,0.0,0.0,0.0,0.0,0.0,0.0,0.0,0.0,0.0,0.0,0.0,0.0,0.0,0.0,0.0,0.0,0.0,0.0,0.0,0.0,0.0,0.0,0.0,0.0,0.0,0.0,0.0,0.0,0.0,0.0,0.0,0.0,0.0,0.0,0.0,0.0,0.0,0.0,0.0,0.0,0.0,0.0,0.0,0.0,0.0,0.0,0.0,0.0,0.0,0.0,0.0,0.0,0.0,0.0,0.0,0.0,0.0,0.0,0.0,0.0,0.0,0.0,0.0,0.0,0.0,0.0,0.0,0.0,0.0,0.0,-0.6954,-0.7351,-0.8123,-0.9277,-0.9465,-0.9546,0.0,0.0,0.0,0.0,0.0,0.0,0.0,0.0,0.0,0.0,0.0,0.0,0.0,0.0,0.0,0.0,0.0,0.0,0.0,0.0,0.0,0.0,0.0,0.0,0.0,0.0,0.0,0.0,0.0,0.0,0.0,0.0,0.0,0.0,0.0,0.0,0.0,0.0,0.0,0.0,0.0,0.0,0.0,0.0,0.0,0.0,0.0,0.0,0.0,0.0,0.0,0.0,0.0,0.0,0.0,0.0,0.0,0.0,0.0,0.0,0.0,0.0,0.0,0.0,0.0,0.0,0.0,0.0,0.0,0.0,0.0,0.0,0.0,0.0,0.0,0.0,0.0,0.0,0.0,0.0,0.0,0.0,0.0,0.0,0.0,0.0,0.0,0.0,0.0,0.0,0.0,0.0,0.0,0.0,0.0,0.0,0.0,0.0,0.0,0.0,0.0,0.0,0.0,0.0,0.0,0.0,0.0,0.0,0.0,-0.7476,0.0,-0.8457,0.0,-0.9444,-0.9535,0.0,0.0,0.0,0.0,0.0,0.0,0.0,0.0,0.0,0.0,0.0,0.0,0.0,0.0,0.0,0.0,0.0,0.0,0.0,0.0,0.0,0.0,0.0,0.0,0.0,0.0,0.0,0.0,0.0,0.0,0.0,0.0,0.0,0.0,0.0,0.0,0.0,0.0,0.0,0.0,0.0,0.0,0.0,0.0,0.0,0.0,0.0,0.0,0.0,0.0,0.0,0.0,0.0,0.0,0.0,0.0,0.0,0.0,0.0,0.0,0.0,0.0,0.0,0.0,0.0,0.0,0.0,0.0,0.0,0.0,0.0,0.0,0.0,0.0,0.0,0.0,0.0,0.0,0.0,0.0,0.0,0.0,0.0,0.0,0.0,0.0,0.0,0.0,0.0,0.0,0.0,0.0,0.0,0.0,0.0,0.0,0.0,0.0,0.0,0.0,0.0,0.0,0.0,0.0,0.0,0.0,0.0,0.0,0.0,-0.781,-0.8035,-0.8554,-0.9363,-0.9457,-0.953,0.0,0.0,0.0,0.0,0.0,0.0,0.0,0.0,0.0,0.0,0.0,0.0,0.0,0.0,0.0,0.0,0.0,0.0,0.0,0.0,0.0,0.0,0.0,0.0,0.0,0.0,0.0,0.0,0.0,0.0,0.0,0.0,0.0,0.0,0.0,0.0,0.0,0.0,0.0,0.0,0.0,0.0,0.0,0.0,0.0,0.0,0.0,0.0,0.0,0.0,0.0,0.0,0.0,0.0,0.0,0.0,0.0,0.0,0.0,0.0,0.0,0.0,0.0,0.0,0.0,0.0,0.0,0.0,0.0,0.0,0.0,0.0,0.0,0.0,0.0,0.0,0.0,0.0,0.0,0.0,0.0,0.0,0.0,0.0,0.0,0.0,0.0,0.0,0.0,0.0,0.0,0.0,0.0,0.0,0.0,0.0,0.0,0.0,0.0,0.0,0.0,0.0,0.0,0.0,0.0,0.0,0.0,0.0,0.0,-0.8628,-0.8814,-0.9081,-0.9381,-0.9465,-0.9525,0.0,0.0,0.0,0.0,0.0,0.0,0.0,0.0,0.0,0.0,0.0,0.0,0.0,0.0,0.0,0.0,0.0,0.0,0.0,0.0,0.0,0.0,0.0,0.0,0.0,0.0,0.0,0.0,0.0,0.0,0.0,0.0,0.0,0.0,0.0,0.0,0.0,0.0,0.0,0.0,0.0,0.0,0.0,0.0,0.0,0.0,0.0,0.0,0.0,0.0,0.0,0.0,0.0,0.0,0.0,0.0,0.0,0.0,0.0,0.0,0.0,0.0,0.0,0.0,0.0,0.0,0.0,0.0,0.0,0.0,0.0,0.0,0.0,0.0,0.0,0.0,0.0,0.0,0.0,0.0,0.0,0.0,0.0,0.0,0.0,0.0,0.0,0.0,0.0,0.0,0.0,0.0,0.0,0.0,0.0,0.0,0.0,0.0,0.0,0.0,0.0,0.0,0.0,0.0,0.0,0.0,0.0,0.0,0.0,-0.9418,-0.964,-0.9623,-0.9412,-0.9439,-0.9491,-0.9552,0.0,0.0,0.0,0.0,0.0,0.0,0.0,0.0,0.0,0.0,0.0,0.0,0.0,0.0,0.0,0.0,0.0,0.0,0.0,0.0,0.0,0.0,0.0,0.0,0.0,0.0,0.0,0.0,0.0,0.0,0.0,0.0,0.0,0.0,0.0,0.0,0.0,0.0,0.0,0.0,0.0,0.0,0.0,0.0,0.0,0.0,0.0,0.0,0.0,0.0,0.0,0.0,0.0,0.0,0.0,0.0,0.0,0.0,0.0,0.0,0.0,0.0,0.0,0.0,0.0,0.0,0.0,0.0,0.0,0.0,0.0,0.0,0.0,0.0,0.0,0.0,0.0,0.0,0.0,0.0,0.0,0.0,0.0,0.0,0.0,0.0,0.0,0.0,0.0,0.0,0.0,0.0,0.0,0.0,0.0,0.0,0.0,0.0,0.0,0.0,0.0,0.0,0.0,0.0,0.0,0.0,0.0,0.0,-1.016,-1.0446,-1.0242,-0.9492,-0.9466,-0.9471,0.0,0.0,0.0,0.0,0.0,0.0,0.0,0.0,0.0,0.0,0.0,0.0,0.0,0.0,0.0,0.0,0.0,0.0,0.0,0.0,0.0,0.0,0.0,0.0,0.0,0.0,0.0,0.0,0.0,0.0,0.0,0.0,0.0,0.0,0.0,0.0,0.0,0.0,0.0,0.0,0.0,0.0,0.0,0.0,0.0,0.0,0.0,0.0,0.0,0.0,0.0,0.0,0.0,0.0,0.0,0.0,0.0,0.0,0.0,0.0,0.0,0.0,0.0,0.0,0.0,0.0,0.0,0.0,0.0,0.0,0.0,0.0,0.0,0.0,0.0,0.0,0.0,0.0,0.0,0.0,0.0,0.0,0.0,0.0,0.0,0.0,0.0,0.0,0.0,0.0,0.0,0.0,0.0,0.0,0.0,0.0,0.0,0.0,0.0,0.0,0.0,0.0,0.0,0.0,0.0,0.0,0.0,0.0,0.0,-1.0784,-1.1606,-1.145,-1.02,-1.0145,-0.9905,0.0,0.0,0.0,0.0,0.0,0.0,0.0,0.0,0.0,0.0,0.0,0.0,0.0,0.0,0.0,0.0,0.0,0.0,0.0,0.0,0.0,0.0,0.0,0.0,0.0,0.0,0.0,0.0,0.0,0.0,0.0,0.0,0.0,0.0,0.0,0.0,0.0,0.0,0.0,0.0,0.0,0.0,0.0,0.0,0.0,0.0,0.0,0.0,0.0,0.0,0.0,0.0,0.0,0.0,0.0,0.0,0.0,0.0,0.0,0.0,0.0,0.0,0.0,0.0,0.0,0.0,0.0,0.0,0.0,0.0,0.0,0.0,0.0,0.0,0.0,0.0,0.0,0.0,0.0,0.0,0.0,0.0,0.0,0.0,0.0,0.0,0.0,0.0,0.0,0.0,0.0,0.0,0.0,0.0,0.0,0.0,0.0,0.0,0.0,0.0,0.0,0.0,0.0,0.0,0.0,0.0,0.0,0.0,-1.0922,-1.1384,-1.2392,-1.2395,-1.1218,-1.0645,-1.0013,0.0,0.0,0.0,0.0,0.0,0.0,0.0,0.0,0.0,0.0,0.0,0.0,0.0,0.0,0.0,0.0,0.0,0.0,0.0,0.0,0.0,0.0,0.0,0.0,0.0,0.0,0.0,0.0,0.0,0.0,0.0,0.0,0.0,0.0,0.0,0.0,0.0,0.0,0.0,0.0,0.0,0.0,0.0,0.0,0.0,0.0,0.0,0.0,0.0,0.0,0.0,0.0,0.0,0.0,0.0,0.0,0.0,0.0,0.0,0.0,0.0,0.0,0.0,0.0,0.0,0.0,0.0,0.0,0.0,0.0,0.0,0.0,0.0,0.0,0.0,0.0,0.0,0.0,0.0,0.0,0.0,0.0,0.0,0.0,0.0,0.0,0.0,0.0,0.0,0.0,0.0,0.0,0.0,0.0,0.0,0.0,0.0,0.0,0.0,0.0,0.0,0.0,0.0,0.0,0.0,0.0,0.0,0.0,-1.1067,-1.1983,-1.2891,-1.3024,-1.2289,-1.1123,-1.0112,0.0,0.0,0.0,0.0,0.0,0.0,0.0,0.0,0.0,0.0,0.0,0.0,0.0,0.0,0.0,0.0,0.0,0.0,0.0,0.0,0.0,0.0,0.0,0.0,0.0,0.0,0.0,0.0,0.0,0.0,0.0,0.0,0.0,0.0,0.0,0.0,0.0,0.0,0.0,0.0,0.0,0.0,0.0,0.0,0.0,0.0,0.0,0.0,0.0,0.0,0.0,0.0,0.0,0.0,0.0,0.0,0.0,0.0,0.0,0.0,0.0,0.0,0.0,0.0,0.0,0.0,0.0,0.0,0.0,0.0,0.0,0.0,0.0,0.0,0.0,0.0,0.0,0.0,0.0,0.0,0.0,0.0,0.0,0.0,0.0,0.0,0.0,0.0,0.0,0.0,0.0,0.0,0.0,0.0,0.0,0.0,0.0,0.0,0.0,0.0,0.0,0.0,0.0,0.0,0.0,0.0,0.0,0.0,-1.1278,-1.2651,-1.3056,-1.2908,-1.2225,-1.1998,-1.1236,0.0,0.0,0.0,0.0,0.0,0.0,0.0,0.0,0.0,0.0,0.0,0.0,0.0,0.0,0.0,0.0,0.0,0.0,0.0,0.0,0.0,0.0,0.0,0.0,0.0,0.0,0.0,0.0,0.0,0.0,0.0,0.0,0.0,0.0,0.0,0.0,0.0,0.0,0.0,0.0,0.0,0.0,0.0,0.0,0.0,0.0,0.0,0.0,-0.9816,0.0,0.0,0.0,0.0,0.0,0.0,0.0,0.0,0.0,0.0,0.0,0.0,0.0,0.0,0.0,0.0,0.0,0.0,0.0,0.0,0.0,0.0,0.0,0.0,0.0,0.0,0.0,0.0,0.0,0.0,0.0,0.0,0.0,0.0,0.0,0.0,0.0,0.0,0.0,0.0,0.0,0.0,0.0,0.0,0.0,0.0,0.0,0.0,0.0,0.0,0.0,0.0,0.0,0.0,0.0,0.0,0.0,0.0,0.0,-1.1309,-1.2799,-1.3015,-1.2939,-1.264,-1.2739,-1.1917,0.0,0.0,0.0,0.0,0.0,0.0,0.0,0.0,0.0,0.0,0.0,0.0,0.0,0.0,0.0,0.0,0.0,0.0,0.0,0.0,0.0,0.0,0.0,0.0,0.0,0.0,0.0,0.0,0.0,0.0,0.0,0.0,0.0,0.0,0.0,0.0,0.0,0.0,0.0,0.0,0.0,0.0,0.0,0.0,0.0,0.0,0.0,0.0,0.0,0.0,0.0,0.0,0.0,0.0,0.0,0.0,0.0,0.0,0.0,0.0,0.0,0.0,0.0,0.0,0.0,0.0,0.0,0.0,0.0,0.0,0.0,0.0,0.0,0.0,0.0,0.0,0.0,0.0,0.0,0.0,0.0,0.0,0.0,0.0,0.0,0.0,0.0,0.0,0.0,0.0,0.0,0.0,0.0,0.0,0.0,0.0,0.0,0.0,0.0,0.0,0.0,0.0,0.0,0.0,0.0,0.0,0.0,-1.039,-1.1217,-1.2673,-1.2894,-1.2988,-1.3086,-1.3252,-1.235,-1.0239,0.0,0.0,0.0,0.0,0.0,0.0,0.0,0.0,0.0,0.0,0.0,0.0,0.0,0.0,0.0,0.0,0.0,0.0,0.0,0.0,0.0,0.0,0.0,0.0,0.0,0.0,0.0,0.0,0.0,0.0,0.0,0.0,0.0,0.0,0.0,0.0,0.0,0.0,-0.6514,-0.7614,0.0,0.0,0.0,0.0,0.0,0.0,0.0,0.0,-0.8178,0.0,0.0,0.0,0.0,0.0,0.0,0.0,0.0,0.0,0.0,0.0,0.0,0.0,0.0,0.0,0.0,0.0,0.0,0.0,0.0,0.0,0.0,0.0,0.0,0.0,0.0,0.0,0.0,0.0,0.0,0.0,0.0,0.0,0.0,0.0,0.0,0.0,0.0,0.0,0.0,0.0,0.0,0.0,0.0,0.0,0.0,0.0,0.0,0.0,0.0,0.0,0.0,0.0,0.0,0.0,0.0,-1.0016,-1.0238,-1.105,-1.2516,-1.2681,-1.2806,-1.2926,-1.3131,-1.2456,-1.0869,0.0,0.0,0.0,0.0,0.0,0.0,0.0,0.0,0.0,0.0,0.0,0.0,0.0,0.0,0.0,0.0,0.0,0.0,0.0,0.0,0.0,0.0,0.0,0.0,0.0,0.0,0.0,0.0,0.0,0.0,0.0,0.0,0.0,0.0,0.0,0.0,0.0,0.0,0.0,-0.8648,-0.9371,0.0,0.0,0.0,0.0,0.0,0.0,0.0,0.0,-0.9492,0.0,0.0,0.0,0.0,0.0,0.0,0.0,0.0,0.0,0.0,0.0,0.0,0.0,0.0,0.0,0.0,0.0,0.0,0.0,0.0,0.0,0.0,0.0,0.0,0.0,0.0,0.0,0.0,0.0,0.0,0.0,0.0,0.0,0.0,0.0,0.0,0.0,0.0,0.0,0.0,0.0,0.0,0.0,0.0,0.0,0.0,0.0,0.0,0.0,0.0,0.0,0.0,0.0,0.0,0.0,-0.9885,-1.0466,-1.1402,-1.2817,-1.3267,-1.3384,-1.3201,-1.3111,-1.2338,0.0,0.0,0.0,0.0,0.0,0.0,0.0,0.0,0.0,0.0,0.0,0.0,0.0,0.0,0.0,0.0,0.0,0.0,0.0,0.0,0.0,0.0,0.0,0.0,0.0,0.0,0.0,0.0,0.0,0.0,0.0,0.0,0.0,0.0,0.0,0.0,0.0,0.0,0.0,0.0,-0.9222,-0.9939,-1.0744,0.0,0.0,0.0,0.0,0.0,0.0,-0.9578,-0.9621,0.0,0.0,0.0,0.0,0.0,0.0,0.0,0.0,0.0,0.0,0.0,0.0,0.0,0.0,0.0,0.0,0.0,0.0,0.0,0.0,0.0,0.0,0.0,0.0,0.0,0.0,0.0,0.0,0.0,0.0,0.0,0.0,0.0,0.0,0.0,0.0,0.0,0.0,0.0,0.0,0.0,0.0,0.0,0.0,0.0,0.0,0.0,0.0,0.0,0.0,0.0,0.0,0.0,0.0,0.0,-0.9806,-1.0629,-1.1682,-1.2946,-1.3513,-1.3657,-1.332,-1.2909,-1.2078,0.0,0.0,0.0,0.0,0.0,0.0,0.0,0.0,0.0,0.0,0.0,0.0,0.0,0.0,0.0,0.0,0.0,0.0,0.0,0.0,0.0,0.0,0.0,0.0,0.0,0.0,0.0,0.0,0.0,0.0,0.0,0.0,0.0,0.0,0.0,0.0,0.0,0.0,0.0,0.0,0.0,-1.0625,-1.1907,-1.1658,0.0,0.0,0.0,0.0,-1.0108,-1.0276,0.0,0.0,0.0,0.0,0.0,0.0,0.0,0.0,0.0,0.0,0.0,0.0,0.0,0.0,0.0,0.0,0.0,0.0,0.0,0.0,0.0,0.0,0.0,0.0,0.0,0.0,0.0,0.0,0.0,0.0,0.0,0.0,0.0,0.0,0.0,0.0,0.0,0.0,0.0,0.0,0.0,0.0,0.0,0.0,0.0,0.0,0.0,0.0,0.0,0.0,0.0,0.0,0.0,0.0,0.0,0.0,-0.9618,-1.0488,-1.1338,-1.2188,-1.2364,-1.2525,-1.2684,-1.2255,-1.163,0.0,0.0,0.0,0.0,0.0,0.0,0.0,0.0,0.0,0.0,0.0,0.0,0.0,0.0,0.0,0.0,0.0,0.0,0.0,0.0,0.0,0.0,0.0,0.0,0.0,0.0,0.0,0.0,0.0,0.0,0.0,0.0,0.0,0.0,0.0,0.0,0.0,0.0,0.0,0.0,0.0,-1.1837,-1.2068,-1.2678,-1.2831,0.0,0.0,0.0,-1.1911,-1.2505,0.0,0.0,0.0,0.0,0.0,0.0,0.0,0.0,0.0,0.0,0.0,0.0,0.0,0.0,0.0,0.0,0.0,0.0,0.0,0.0,0.0,0.0,0.0,0.0,0.0,0.0,0.0,0.0,0.0,0.0,0.0,0.0,0.0,0.0,0.0,0.0,0.0,0.0,0.0,0.0,0.0,0.0,0.0,0.0,0.0,0.0,0.0,0.0,0.0,0.0,0.0,0.0,0.0,0.0,0.0,-0.8688,-0.9546,-1.0782,-1.1785,-1.2582,-1.3098,-1.3065,-1.2516,-1.2029,-1.1254,0.0,0.0,0.0,0.0,0.0,0.0,0.0,0.0,0.0,0.0,0.0,0.0,0.0,0.0,0.0,0.0,0.0,0.0,0.0,0.0,0.0,0.0,0.0,0.0,0.0,0.0,0.0,0.0,0.0,0.0,0.0,0.0,0.0,0.0,0.0,0.0,0.0,0.0,0.0,0.0,0.0,0.0,-1.3325,-1.3453,0.0,0.0,0.0,-1.4864,-1.5024,0.0,0.0,0.0,0.0,0.0,0.0,0.0,0.0,0.0,0.0,0.0,0.0,0.0,0.0,0.0,0.0,0.0,0.0,0.0,0.0,0.0,0.0,0.0,0.0,0.0,0.0,0.0,0.0,0.0,0.0,0.0,0.0,0.0,0.0,0.0,0.0,0.0,0.0,0.0,0.0,0.0,0.0,0.0,0.0,0.0,0.0,0.0,0.0,0.0,0.0,0.0,0.0,0.0,0.0,0.0,0.0,0.0,-0.9528,-1.1033,-1.2099,-1.2731,-1.3367,-1.323,-1.2211,-1.1727,0.0,0.0,0.0,0.0,0.0,0.0,0.0,0.0,0.0,0.0,0.0,0.0,0.0,0.0,0.0,0.0,0.0,0.0,0.0,0.0,0.0,0.0,0.0,0.0,0.0,0.0,0.0,-0.4089,0.0,0.0,0.0,0.0,0.0,0.0,0.0,0.0,0.0,0.0,0.0,0.0,0.0,0.0,-1.2973,-1.4567,-1.4582,-1.4826,0.0,0.0,-1.6999,-1.7229,-1.7055,-1.6493,0.0,0.0,0.0,0.0,0.0,0.0,0.0,0.0,0.0,0.0,0.0,0.0,0.0,0.0,0.0,0.0,0.0,0.0,0.0,0.0,0.0,0.0,0.0,0.0,0.0,0.0,0.0,0.0,0.0,0.0,0.0,0.0,0.0,0.0,0.0,0.0,0.0,0.0,0.0,0.0,0.0,0.0,0.0,0.0,0.0,0.0,0.0,0.0,0.0,0.0,0.0,0.0,0.0,0.0,0.0,-0.9533,-1.1023,-1.1889,-1.2078,-1.2241,-1.2089,-1.1567,-1.1124,-1.0509,0.0,0.0,0.0,0.0,0.0,0.0,0.0,0.0,0.0,0.0,0.0,0.0,0.0,0.0,0.0,0.0,0.0,0.0,0.0,0.0,0.0,0.0,0.0,0.0,0.0,0.0,0.0,0.0,0.0,0.0,0.0,0.0,0.0,0.0,0.0,0.0,0.0,0.0,0.0,0.0,0.0,-1.4423,-1.5466,-1.6342,-1.6902,0.0,0.0,-1.8939,-1.7442,-1.7915,-1.7863,-1.6194,0.0,0.0,0.0,0.0,0.0,0.0,0.0,0.0,0.0,0.0,0.0,0.0,0.0,0.0,0.0,0.0,0.0,0.0,0.0,0.0,0.0,0.0,0.0,0.0,0.0,0.0,0.0,0.0,0.0,0.0,0.0,0.0,0.0,0.0,0.0,0.0,0.0,0.0,0.0,0.0,0.0,0.0,0.0,0.0,0.0,0.0,0.0,0.0,0.0,0.0,0.0,0.0,0.0,-0.9298,-0.9504,-1.1023,-1.1859,-1.1986,-1.2123,-1.197,-1.1458,-1.1473,-1.0908,0.0,0.0,0.0,0.0,0.0,0.0,0.0,0.0,0.0,0.0,0.0,0.0,0.0,0.0,0.0,0.0,0.0,0.0,0.0,0.0,0.0,0.0,0.0,0.0,0.0,0.0,0.0,0.0,-0.4265,-0.4442,-0.5579,0.0,0.0,0.0,0.0,0.0,0.0,0.0,0.0,0.0,0.0,-1.5483,-1.697,-1.797,0.0,0.0,-2.0367,-2.0732,-1.9597,-1.9264,-1.8576,-1.6846,-1.4663,0.0,0.0,0.0,0.0,0.0,0.0,0.0,0.0,0.0,0.0,0.0,0.0,0.0,0.0,0.0,0.0,0.0,0.0,0.0,0.0,0.0,0.0,0.0,0.0,0.0,0.0,0.0,0.0,0.0,0.0,0.0,0.0,0.0,0.0,0.0,0.0,0.0,0.0,0.0,0.0,0.0,0.0,0.0,0.0,0.0,0.0,0.0,0.0,0.0,0.0,0.0,0.0,-0.9322,-0.9504,-1.1033,-1.1863,-1.197,-1.2091,-1.191,-1.141,-1.1681,-1.1131,0.0,0.0,0.0,0.0,0.0,0.0,0.0,0.0,0.0,0.0,0.0,0.0,0.0,0.0,0.0,0.0,0.0,0.0,0.0,0.0,0.0,0.0,0.0,0.0,0.0,0.0,0.0,0.0,-0.5019,-0.5178,-0.5968,0.0,0.0,0.0,0.0,0.0,0.0,0.0,0.0,0.0,0.0,-1.6641,-1.7924,-1.9106,-1.9974,-2.0352,-2.1302,-2.1622,-2.0548,-1.9673,-1.8663,-1.7395,0.0,0.0,0.0,0.0,0.0,0.0,0.0,0.0,0.0,0.0,0.0,0.0,0.0,0.0,0.0,0.0,0.0,0.0,0.0,0.0,0.0,0.0,0.0,0.0,0.0,0.0,0.0,0.0,0.0,0.0,-0.7944,0.0,0.0,0.0,0.0,0.0,0.0,0.0,0.0,0.0,0.0,0.0,0.0,0.0,0.0,0.0,0.0,0.0,0.0,0.0,0.0,0.0,0.0,0.0,-0.9528,-1.1023,-1.1837,-1.1902,-1.2049,-1.1846,-1.1365,-1.1558,-1.1059,-0.9653,0.0,0.0,0.0,0.0,0.0,0.0,0.0,0.0,0.0,0.0,0.0,0.0,0.0,0.0,0.0,0.0,0.0,0.0,0.0,0.0,0.0,0.0,0.0,0.0,0.0,0.0,-0.5875,-0.6443,-0.6801,0.0,0.0,0.0,0.0,0.0,0.0,0.0,0.0,0.0,0.0,-1.6262,-1.799,-1.8119,-1.9586,-2.0469,-1.9712,-2.0978,-2.1422,-1.9733,-1.879,-1.8139,0.0,0.0,0.0,0.0,0.0,0.0,0.0,0.0,0.0,0.0,0.0,0.0,0.0,0.0,0.0,0.0,0.0,0.0,0.0,0.0,0.0,0.0,0.0,0.0,0.0,0.0,0.0,-1.0551,-1.0375,0.0,0.0,0.0,0.0,0.0,0.0,0.0,0.0,0.0,0.0,0.0,-1.3929,-1.3836,0.0,0.0,0.0,0.0,0.0,0.0,0.0,0.0,0.0,0.0,0.0,0.0,-0.9487,-1.0113,-1.1235,-1.1816,-1.1848,-1.1869,-1.1906,-1.1911,-1.2151,-1.1714,-1.0495,0.0,0.0,0.0,0.0,0.0,0.0,0.0,0.0,0.0,0.0,0.0,0.0,0.0,0.0,0.0,0.0,0.0,0.0,0.0,0.0,0.0,0.0,0.0,0.0,0.0,-0.6085,0.0,0.0,0.0,0.0,0.0,0.0,0.0,0.0,0.0,0.0,0.0,-1.3879,-1.4848,-1.7242,-1.9057,-1.9622,-2.116,-2.1939,0.0,0.0,0.0,0.0,0.0,0.0,0.0,0.0,0.0,0.0,0.0,0.0,0.0,0.0,-1.7978,-1.7261,-1.5956,-1.4877,-1.4554,0.0,0.0,0.0,0.0,0.0,0.0,0.0,0.0,0.0,0.0,0.0,0.0,0.0,0.0,-1.2589,0.0,-1.1569,0.0,0.0,0.0,0.0,0.0,0.0,0.0,0.0,-1.6083,-1.6714,-1.6431,-1.6365,-1.6665,0.0,-1.7038,-1.5761,0.0,0.0,0.0,0.0,0.0,0.0,0.0,0.0,-0.9853,-1.0482,-1.1349,-1.1816,-1.1805,-1.2029,-1.2154,-1.2179,-1.1974,-1.156,-1.0885,-0.9416,-0.8536,0.0,0.0,0.0,0.0,0.0,0.0,0.0,0.0,0.0,0.0,0.0,0.0,0.0,0.0,0.0,0.0,0.0,0.0,0.0,0.0,0.0,0.0,0.0,-0.6572,0.0,0.0,0.0,0.0,0.0,0.0,0.0,0.0,0.0,-1.1395,-1.3496,-1.5449,-1.6616,-1.8733,-2.0446,-2.1263,0.0,0.0,0.0,0.0,0.0,0.0,0.0,-1.9691,-2.0147,-2.0407,-2.0976,-2.2301,-2.2177,-2.1782,-2.1491,0.0,0.0,-1.9503,-1.7682,-1.6219,-1.5907,-1.5393,-1.5249,-1.6035,-1.7157,-1.8354,0.0,0.0,0.0,0.0,0.0,0.0,0.0,0.0,-1.4372,-1.4405,0.0,-1.3409,0.0,0.0,0.0,0.0,0.0,0.0,0.0,0.0,-1.9077,-1.9613,-1.8978,-1.8944,-1.9298,-1.987,-1.9561,-1.9163,-1.8534,-1.4794,0.0,0.0,0.0,0.0,0.0,0.0,-1.0377,-1.0697,-1.1495,-1.1891,-1.191,-1.2505,-1.2595,-1.2112,-1.11,-1.0663,-1.0742,-0.9465,-0.8663,-0.8597,-0.8499,0.0,0.0,0.0,0.0,0.0,0.0,0.0,0.0,0.0,0.0,0.0,0.0,0.0,0.0,0.0,0.0,0.0,0.0,0.0,0.0,-0.6775,0.0,0.0,0.0,0.0,0.0,0.0,0.0,0.0,0.0,0.0,-1.3982,-1.5609,-1.7406,-1.9046,0.0,0.0,0.0,0.0,-2.4025,-2.3208,-2.3768,-2.3721,-2.209,-2.1141,-2.1124,-2.2624,0.0,0.0,-2.6432,-2.5069,-2.3771,-2.3844,-2.2652,-2.1659,-2.1799,-1.9717,-1.7796,-1.6984,-1.6811,-1.705,-1.7888,-1.9241,-2.0841,-1.9946,0.0,0.0,0.0,0.0,-1.6368,-1.7505,-1.8169,-1.7679,-1.7763,-1.8124,-1.665,0.0,0.0,0.0,0.0,0.0,0.0,-1.7178,-1.8282,-1.9479,-2.0183,-2.0547,-2.053,-2.1073,-2.2036,-2.1704,-2.1279,-2.0743,-1.8329,-1.5562,-1.2528,0.0,0.0,0.0,0.0,-1.1402,-1.1959,-1.2787,-1.3226,-1.3226,-1.3421,-1.3075,-1.2184,-1.1505,-1.1057,-1.0893,-1.0411,-1.0182,-1.0204,-0.966,0.0,0.0,0.0,0.0,0.0,0.0,0.0,0.0,0.0,0.0,0.0,0.0,0.0,0.0,0.0,0.0,0.0,0.0,0.0,-0.7777,-0.8053,-0.8215,0.0,0.0,0.0,0.0,0.0,0.0,0.0,0.0,0.0,-1.7155,-1.8071,-1.9178,0.0,0.0,-2.3814,-2.4622,-2.5897,-2.6292,-2.4915,0.0,0.0,0.0,-2.4143,-2.4509,-2.6072,-2.7537,-2.8537,-2.8553,-2.8128,-2.7273,-2.5668,-2.4588,-2.38,-2.323,-2.0871,-1.8919,-1.855,-1.852,-1.8822,-1.9609,-2.0658,-2.1723,-2.373,-1.9677,-1.9124,-1.8476,-1.7967,-1.9574,-2.0627,-2.119,-2.0814,-2.1016,-2.1577,-2.0241,-1.929,-1.8693,-1.8216,0.0,0.0,0.0,-1.9829,-2.04,-2.1352,-2.2209,-2.2919,-2.2951,-2.3548,-2.4613,-2.4151,-2.3544,-2.2841,-2.0941,-1.8631,-1.5921,0.0,0.0,-1.2082,-1.2216,-1.2502,-1.2972,-1.351,-1.3944,-1.4199,-1.4212,-1.3935,-1.3325,-1.2272,-1.1406,-1.0765,-1.0747,-1.0668,-1.047,-1.0269,-0.999,0.0,0.0,0.0,0.0,0.0,0.0,0.0,0.0,0.0,0.0,0.0,-0.4135,0.0,0.0,0.0,0.0,-0.6394,-0.7401,-0.862,-0.8663,0.0,0.0,0.0,0.0,0.0,0.0,0.0,-1.3424,-1.4664,-1.6475,-1.9276,-2.0341,-2.1369,-2.2865,-2.4462,-2.5856,-2.6961,0.0,-2.7787,-2.6801,-2.6808,-2.6764,-2.6322,-2.6527,-2.7512,-2.9806,-3.0771,-3.1191,-3.0824,-3.0068,-2.8735,-2.6879,-2.5525,-2.4607,-2.3957,-2.2022,-2.049,-2.0243,-2.023,-2.054,-2.1358,-2.2226,-2.3056,-2.6605,-2.4443,-2.2999,-2.1871,-2.1233,-2.2725,-2.3515,-2.3748,-2.368,-2.4068,-2.4661,-2.3846,-2.3388,-2.3199,-2.2338,0.0,-2.2009,-2.2872,-2.3245,-2.3324,-2.4179,-2.4998,-2.5676,-2.5676,-2.6218,-2.7158,-2.6545,-2.5703,-2.4637,-2.2741,-2.112,-1.9723,-1.6361,-1.4281,-1.3636,-1.3588,-1.3664,-1.3782,-1.3966,-1.4365,-1.502,-1.5,-1.499,-1.4951,-1.3206,-1.1736,-1.063,-1.076,-1.0577,-1.002,-1.0626,-1.0667,-0.9947,0.0,0.0,0.0,0.0,0.0,0.0,0.0,0.0,0.0,0.0,0.0,0.0,0.0,0.0,0.0,-0.7495,0.0,-0.9015,-0.8981,0.0,0.0,0.0,-1.0022,-1.0987,-1.245,-1.3562,-1.3922,0.0,0.0,-2.0703,0.0,-2.3856,-2.5144,-2.6652,-2.8131,-2.9543,-2.9137,-2.8711,-2.8549,-2.7947,-2.7556,-2.7791,-2.8688,-3.041,-3.3211,-3.3382,-3.287,-3.2619,-3.0909,-2.8909,-2.7186,-2.5768,-2.4643,-2.3998,-2.3431,-2.2823,-2.2264,-2.193,-2.2082,-2.3071,-2.3799,-2.4512,-2.8869,-2.7839,-2.745,-2.5782,-2.3542,-2.5094,-2.6152,-2.6691,-2.615,-2.6336,-2.6962,-2.6151,-2.5665,-2.5461,-2.5686,-2.5552,-2.5194,-2.5463,-2.5347,-2.4958,-2.5222,-2.5727,-2.642,-2.6437,-2.6757,-2.7271,-2.6781,-2.5926,-2.4808,-2.3395,-2.1987,-2.0583,-1.8623,-1.6843,-1.5265,-1.4744,-1.4504,-1.4544,-1.5517,-1.6338,-1.6951,-1.6084,-1.5333,-1.485,-1.3524,-1.2261,-1.1111,-1.1701,-1.1884,-1.1519,-1.1626,-1.1723,-1.1679,-1.0514,0.0,0.0,0.0,0.0,0.0,0.0,0.0,0.0,0.0,-0.5787,-0.6034,0.0,-0.6749,0.0,-0.9461,-1.0399,-1.0631,-1.0631,0.0,0.0,-1.0881,-1.1261,-1.2651,-1.3197,-1.4418,-1.6831,-1.8177,-1.9819,-2.2188,-2.434,-2.6261,-2.7837,-2.8858,-2.9615,-3.0033,-2.9985,-2.9676,-2.9069,-2.8352,-2.8322,-2.9685,-3.1793,-3.3751,-3.543,-3.4981,-3.4059,-3.2868,-3.1189,-2.9299,-2.7179,-2.6052,-2.5489,-2.5449,-2.5457,-2.5505,-2.5312,-2.3985,-2.3169,-2.4654,-2.4711,-2.4855,-3.0446,-2.955,-3.0194,-2.924,-2.738,-2.7922,-2.8396,-2.8804,-2.8738,-2.911,-2.9803,-2.9679,-2.9553,-2.9437,-2.9744,-2.9563,-2.8969,-2.8671,-2.8188,-2.7518,-2.6877,-2.7148,-2.818,-2.7875,-2.797,-2.8381,-2.7649,-2.6523,-2.5098,-2.3774,-2.2415,-2.0989,-1.9767,-1.8448,-1.7117,-1.6144,-1.58,-1.6099,-1.7386,-1.8371,-1.8969,-1.8044,-1.7072,-1.6099,-1.4621,-1.2974,-1.1174,-1.1956,-1.209,-1.1425,-1.2025,-1.234,-1.2193,-1.1071,-1.0198,0.0,0.0,0.0,0.0,0.0,0.0,0.0,0.0,0.0,0.0,0.0,-0.8532,0.0,-1.1213,-1.2149,-1.2224,-1.2587,-1.2998,-1.3334,-1.3099,-1.339,-1.4534,-1.5211,-1.6391,-1.8398,-1.9847,-2.1588,-2.3988,-2.6104,-2.8017,-2.9665,-3.0605,-3.1195,-3.1174,-3.0761,-3.012,-2.9695,-2.8986,-2.9396,-3.1732,-3.3772,-3.5395,-3.6289,-3.5914,-3.4728,-3.2794,-3.1438,-2.9838,-2.7599,-2.6837,-2.6767,-2.7013,-2.6907,-2.7,-2.7301,-2.6319,-2.5523,-2.5939,-2.6072,-2.6435,-3.1546,-3.0514,-3.1769,-3.1989,-3.1427,-3.0903,-3.0615,-3.0581,-3.1207,-3.1921,-3.2632,-3.3457,-3.3706,-3.3499,-3.3516,-3.3043,-3.2215,-3.1368,-3.0639,-2.9928,-2.8529,-2.863,-3.0,-2.9495,-2.9402,-2.9624,-2.8715,-2.7329,-2.5532,-2.4159,-2.274,-2.1299,-2.0361,-1.9569,-1.8858,-1.7626,-1.7326,-1.7953,-1.9181,-2.0172,-2.0812,-2.0112,-1.9106,-1.7818,-1.5918,-1.3712,-1.1258,-1.1846,-1.1781,-1.08,-1.2066,-1.2656,-1.2223,-1.1515,-1.077,0.0,-0.9848,0.0,0.0,0.0,0.0,0.0,0.0,0.0,0.0,-1.0464,-1.0842,-1.1485,-1.2846,-1.3701,-1.3793,-1.4544,-1.533,-1.6001,-1.567,-1.5625,-1.6305,-1.7468,-1.8547,-1.9407,-2.1343,-2.3524,-2.5779,-2.7773,-2.9615,-3.0861,-3.2008,-3.2617,-3.2494,-3.1273,-3.0282,-3.0302,-2.9824,-3.0485,-3.3075,-3.4566,-3.5524,-3.634,-3.5776,-3.4635,-3.2437,-3.1373,-3.0119,-2.827,-2.7834,-2.8159,-2.8699,-2.8322,-2.8268,-2.9275,-2.8918,-2.8142,-2.7363,-2.7449,-2.8124,-3.2141,-3.1921,-3.2192,-3.2564,-3.3017,-3.3457,-3.3322,-3.2797,-3.2933,-3.3389,-3.4189,-3.556,-3.5408,-3.4189,-3.4063,-3.327,-3.1825,-3.0442,-2.9723,-2.9483,-2.8619,-2.8724,-2.9721,-3.0272,-3.0221,-2.9632,-2.9251,-2.8165,-2.6426,-2.5156,-2.3764,-2.2325,-2.1427,-2.0605,-1.983,0.0,0.0,0.0,-2.0109,-2.0842,-2.1425,-2.0318,-1.9333,-1.8476,-1.6114,0.0,-1.1792,-1.192,-1.1764,-1.1158,-1.2027,0.0,0.0,0.0,0.0,0.0,0.0,0.0,0.0,0.0,0.0,0.0,-1.7086,-1.5575,-1.2874,-1.3236,-1.37,-1.3861,-1.4656,-1.522,-1.5272,-1.5572,-1.5897,-1.6132,-1.6244,-1.6504,-1.7188,-1.7887,-1.9,-2.0949,-2.3017,-2.504,-2.7068,-2.9828,-3.1638,-3.1775,-3.2945,-3.3615,-3.3131,-3.1548,-3.0363,-3.0328,-3.0647,-3.141,-3.2684,-3.3641,-3.4493,-3.4938,-3.41,-3.2905,-3.18,-3.0555,-2.9502,-2.8433,-2.8464,-2.9253,-3.0815,-3.0667,-3.0561,-3.1621,-3.179,-3.1162,-2.9168,-2.8349,-2.8246,-3.3235,0.0,-3.3115,-3.3748,0.0,-3.5301,-3.5622,-3.5622,-3.5233,-3.5504,-3.6231,-3.6992,-3.6392,-3.4751,-3.3896,-3.2602,-3.091,-2.8947,-2.8383,-2.8911,-2.8184,-2.8649,-3.0204,-3.0815,-3.0862,-3.0414,-2.9951,-2.8862,-2.7246,-2.5983,-2.4523,-2.2848,-2.2411,-2.1614,-2.0491,-2.049,-2.0573,-2.0677,-2.1635,-2.2473,-2.3071,-2.1864,-2.0692,-1.9657,0.0,0.0,0.0,0.0,0.0,0.0,0.0,0.0,0.0,0.0,0.0,-1.204,-1.2655,-1.3816,-1.5572,-1.7439,-1.9196,-2.0738,-2.0616,-1.9055,-1.5728,-1.5559,-1.5747,-1.6126,-1.6796,-1.7273,-1.7369,-1.7852,-1.8242,-1.8444,-1.8717,-1.9004,-1.9313,-1.9803,-2.0856,-2.2696,-2.4757,-2.6916,-2.9158,-3.1708,-3.3458,-3.3751,-3.4241,-3.4658,-3.4479,-3.2619,-3.1106,-3.1106,-3.135,-3.205,-3.3054,-3.3556,-3.3913,-3.4162,-3.3718,-3.2779,-3.1647,-3.0953,-3.0453,-3.0269,-3.0438,-3.1268,-3.2969,-3.3004,-3.2912,-3.3876,-3.401,-3.3414,-3.1808,-3.0639,-2.9803,-3.4383,-3.3551,-3.4298,-3.5161,-3.6056,-3.6721,-3.7398,-3.8058,0.0,0.0,0.0,-3.8227,-3.733,-3.5622,-3.3889,-3.2183,-3.0418,-2.803,-2.7554,-2.8603,-2.7913,-2.8714,-3.0706,-3.1293,-3.1471,-3.1312,-3.0762,-2.9631,-2.8024,-2.6789,-2.5187,-2.3401,-2.3165,-2.2361,-2.0935,-2.1561,-2.1915,-2.1834,-2.3092,-2.4081,-2.4724,-2.352,-2.2218,-2.0912,-1.8296,-1.5696,-1.3253,-1.3174,-1.2958,-1.2484,-1.2661,-1.3154,-1.391,-1.3019,-1.2765,-1.3403,-1.4436,-1.597,-1.8124,-2.0424,-2.2367,-2.3823,-2.3272,-2.1603,-1.8628,-1.771,-1.754,-1.8121,-1.8758,-1.9178,-1.9444,-2.0117,-2.0737,-2.1096,-2.1458,-2.1604,-2.1569,-2.2032,-2.2828,-2.4287,-2.6066,-2.8303,-3.0704,-3.2784,-3.4442,-3.5172,-3.5129,-3.5341,-3.5747,-3.4218,-3.2864,-3.2882,-3.279,-3.2834,-3.3679,-3.3779,-3.3715,-3.356,-3.3419,-3.2941,-3.2088,-3.1858,-3.2125,-3.2441,-3.2815,-3.3794,-3.5209,-3.5094,-3.5109,-3.6114,-3.5814,-3.5162,-3.4496,-3.3307,-3.2006,-3.5042,-3.5276,-3.5675,-3.6511,-3.7601,-3.7702,-3.8176,-3.8819,-3.8717,-3.8734,-3.8886,-3.952,-3.8831,-3.7099,-3.5309,-3.3571,-3.1795,-2.9291,-2.852,0.0,-2.8898,-2.9326,-3.0417,-3.1895,-3.22,-3.151,-3.1484,-3.0626,-2.8994,-2.7494,-2.5767,-2.4055,-2.3435,-2.2359,-2.0899,-2.125,-2.1661,-2.1985,-2.3621,-2.4784,-2.542,-2.4163,-2.2862,-2.153,-1.8969,-1.6622,-1.4616,-1.4099,-1.3623,-1.3118,-1.332,-1.3619,-1.3979,-1.4006,-1.408,-1.4425,-1.6781,-1.9217,-2.1464,-2.3688,-2.5577,-2.6894,-2.5897,-2.39,-2.1021,-2.001,-1.9579,-1.971,-1.9862,-2.0141,-2.0798,-2.1148,-2.1674,-2.2399,-2.2823,-2.2982,-2.2864,-2.337,-2.4056,-2.491,-2.6378,-2.8132,-3.0161,-3.2014,-3.3335,-3.3815,-3.4899,-3.5701,-3.5755,-3.5772,-3.5688,-3.556,-3.4929,-3.4461,-3.4179,-3.3557,-3.3114,-3.2729,-3.2319,-3.2262,-3.2509,-3.2723,-3.3178,-3.4006,-3.4767,-3.5732,-3.6919,-3.6639,-3.6663,-3.7349,-3.7139,-3.6623,-3.6072,-3.5184,-3.3971,-3.6228,-3.6313,-3.6688,-3.7498,-3.8531,-3.892,-3.93,-3.9588,-3.9605,-3.9622,-3.9639,-3.996,-3.9134,-3.7392,-3.568,-3.373,-3.1608,-2.9562,-2.886,-2.9273,-2.9328,-2.9922,-3.1036,-3.2153,-3.2478,-3.2102,-3.2179,-3.1404,-2.9962,-2.8747,-2.7094,-2.4941,-2.3372,-2.1978,-2.0971,-2.1354,-2.181,-2.2191,-2.3477,-2.4455,-2.5023,-2.4103,-2.2981,-2.171,-1.9779,-1.7864,-1.5905,-1.5381,-1.5088,-1.4978,-1.456,-1.4594,-1.5269,-1.5458,-1.595,-1.687,-1.8939,-2.1295,-2.3919,-2.6556,-2.8349,-2.8975,-2.8061,-2.6742,-2.5026,-2.2999,-2.184,-2.184,-2.1854,-2.1972,-2.2372,-2.2816,-2.3289,-2.3787,-2.4417,-2.4609,-2.4242,-2.4385,-2.4879,-2.5655,-2.6675,-2.8097,-2.9873,-3.132,-3.2596,-3.3462,-3.4927,-3.5842,-3.5862,-3.6458,-3.6556,-3.5659,-3.5089,-3.4564,-3.4035,-3.3539,-3.3117,-3.2862,-3.2934,-3.3091,-3.3536,-3.3966,-3.4824,-3.5704,-3.637,-3.7037,-3.7958,-3.7967,-3.8024,-3.828,-3.8482,-3.815,-3.7639,-3.6462,-3.456,-3.733,-3.7336,-3.7736,-3.843,-3.9276,-3.9859,-4.0113,-4.0113,-4.0096,-4.0113,-4.0113,-4.0113,-3.9244,-3.7684,-3.6104,-3.4256,-3.2262,-3.069,-3.0164,-3.0368,-3.062,-3.1144,-3.1929,-3.2579,-3.2729,-3.2551,-3.252,-3.1875,-3.0706,-2.9735,-2.7944,-2.5441,-2.3099,-2.1722,-2.1246,-2.1513,-2.1811,-2.2245,-2.2928,-2.3728,-2.4545,-2.3954,-2.3116,-2.2128,-2.0827,-1.9331,-1.7697,-1.7106,-1.6864,-1.6979,-1.614,-1.5993,-1.6675,-1.7138,-1.7974,-1.9384,-2.1173,-2.3494,-2.6404,-2.8941,-3.0362,-3.0345,-2.9668,-2.9047,-2.8423,-2.6261,-2.4526,-2.4105,-2.3816,-2.3796,-2.4022,-2.4635,-2.5109,-2.5236,-2.6021,-2.6214,-2.5596,-2.5471,-2.5675,-2.6346,-2.6943,-2.7935,-2.9327,-3.0341,-3.1544,-3.335,-3.4818,-3.5628,-3.6068,-3.6874,-3.6648,-3.5503,-3.496,-3.467,-3.3803,-3.3538,-3.3433,-3.3283,-3.3897,-3.4488,-3.4971,-3.5719,-3.6433,-3.7215,-3.7549,-3.7897,-3.8527,-3.868,-3.8715,-3.8828,-3.8956,-3.9089,-3.8605,-3.7116,-3.514,-3.8004,-3.87,-3.9046,-3.9528,-3.9969,-4.0062,-4.0113,-4.0113,-4.0113,-4.0113,-4.0113,-4.0113,-3.9522,-3.8413,-3.7261,-3.6116,-3.5103,-3.4145,-3.3616,-3.3555,-3.3962,-3.3731,-3.3071,-3.3388,-3.3125,-3.2351,-3.2247,-3.1781,-3.0864,-2.9683,-2.7578,-2.473,-2.2734,-2.1841,-2.1818,-2.1374,-2.1421,-2.1921,-2.178,-2.2646,-2.4433,-2.3932,-2.355,-2.343,-2.2173,-2.1156,-2.0228,-1.9415,-1.8827,-1.8591,-1.8219,-1.7889,-1.7855,-1.8942,-2.0082,-2.1038,-2.363,-2.6505,-2.9311,-3.0565,-3.1089,-3.1038,-3.048,-3.0134,-3.0185,-2.9472,-2.8072,-2.6423,-2.5321,-2.5217,-2.5714,-2.6356,-2.6717,-2.6734,-2.7381,-2.7688,-2.6886,-2.6865,-2.6931,-2.6904,-2.7018,-2.7475,-2.8294,-2.8804,-3.0102,-3.265,-3.3921,-3.5033,-3.6165,-3.6738,-3.6712,-3.5628,-3.5421,-3.5059,-3.405,-3.3748,-3.3694,-3.3767,-3.4421,-3.54,-3.6424,-3.7094,-3.7594,-3.8031,-3.8441,-3.8545,-3.86,-3.8707,-3.8704,-3.8792,-3.8961,-3.9075,-3.869,-3.7715,-3.6075,-3.8311,-3.899,-3.9408,-3.9773,-4.0087,-4.0113,-4.0113,-4.0113,-4.0113,-4.0113,-4.0113,-4.0113,-3.9775,-3.9209,-3.8427,-3.7672,-3.6953,-3.6505,-3.6067,-3.5673,-3.5824,-3.5515,-3.4814,-3.3999,-3.3354,-3.2754,-3.2091,-3.1407,-3.0536,-2.9052,-2.7149,-2.5173,-2.3456,-2.2204,-2.1386,-2.0846,-2.073,-2.1034,-2.0767,-2.128,-2.2511,-2.2964,-2.3089,-2.3032,-2.2568,-2.1964,-2.133,-2.0695,-2.0474,-2.0655,-2.0367,-2.0081,-1.9845,-2.1211,-2.2361,-2.3255,-2.637,-2.8787,-3.0023,-3.1173,-3.1853,-3.187,-3.1985,-3.2173,-3.2417,-3.205,-3.1393,-3.0581,-2.8712,-2.7575,-2.7709,-2.7823,-2.7853,-2.7823,-2.7913,-2.7675,-2.6927,-2.6841,-2.6858,-2.6842,-2.6842,-2.6789,-2.6906,-2.7553,-2.899,-3.1132,-3.2691,-3.4353,-3.5758,-3.6367,-3.6326,-3.5811,-3.5625,-3.4839,-3.357,-3.355,-3.3752,-3.4009,-3.4908,-3.6248,-3.718,-3.7988,-3.834,-3.8655,-3.8689,-3.8707,-3.8689,-3.8707,-3.8707,-3.8777,-3.9132,-3.9411,-3.9485,-3.8842,-3.7632,-3.8467,-3.9017,-3.9582,-3.9935,-4.0113,-4.0113,-4.0113,-4.0113,-4.0113,-4.0113,-4.0113,-4.0113,-3.9893,-3.9513,-3.9038,-3.851,-3.8132,-3.8007,-3.7797,-3.7432,-3.748,-3.7157,-3.6416,-3.513,-3.4104,-3.3323,-3.241,-3.1431,-3.043,-2.8742,-2.721,-2.5811,-2.424,-2.2774,-2.1492,-2.0959,-2.0786,-2.0814,-2.0707,-2.1038,-2.1806,-2.2617,-2.2945,-2.2759,-2.2868,-2.2718,-2.2254,-2.2113,-2.2294,-2.2842,-2.2751,-2.2512,-2.2181,-2.368,-2.5033,-2.6132,-2.8738,-3.0514,-3.0683,-3.1718,-3.2395,-3.2615,-3.3136,-3.3552,-3.3819,-3.3779,-3.39,-3.3945,-3.2118,-3.0607,-2.9733,-2.9441,-2.9078,-2.8536,-2.8288,-2.7913,-2.7028,-2.6841,-2.6841,-2.6808,-2.6825,-2.6572,-2.6268,-2.7266,-2.8877,-3.0434,-3.2249,-3.4011,-3.5353,-3.6122,-3.6289,-3.5808,-3.5541,-3.4816,-3.3351,-3.3421,-3.3807,-3.4394,-3.5385,-3.656,-3.7529,-3.8358,-3.8689,-3.8689,-3.8707,-3.8707,-3.8707,-3.8707,-3.875,-3.8892,-3.9221,-3.9664,-3.9848,-3.9559,-3.8574,-3.8518,-3.9005,-3.9756,-4.007,-4.0113,-4.0113,-4.0113,-4.0113,-4.0113,-4.0113,-4.0113,-4.0113,-3.9773,-3.9249,-3.8739,-3.853,-3.853,-3.8437,-3.851,-3.8766,-3.906,-3.8699,-3.7691,-3.6869,-3.5565,-3.4107,-3.3223,-3.208,-3.055,-2.9205,-2.7874,-2.6551,-2.4894,-2.3583,-2.2627,-2.2139,-2.1908,-2.1683,-2.2018,-2.2521,-2.2859,-2.3456,-2.3425,-2.2964,-2.3272,-2.3518,-2.3509,-2.392,-2.4391,-2.5006,-2.5354,-2.5225,-2.4615,-2.6319,-2.806,-2.9567,-3.0598,-3.1444,-3.2005,-3.231,-3.2682,-3.322,-3.3508,-3.3645,-3.4192,-3.4595,-3.503,-3.5388,-3.4897,-3.3771,-3.205,-3.1249,-3.0413,-2.9181,-2.9173,-2.8643,-2.7386,-2.7247,-2.7166,-2.7034,-2.6852,-2.6619,-2.6589,-2.7994,-2.9347,-3.0855,-3.2544,-3.4193,-3.5737,-3.6499,-3.6301,-3.5776,-3.5509,-3.5245,-3.4073,-3.3917,-3.4247,-3.4798,-3.5661,-3.689,-3.7881,-3.8707,-3.8707,-3.8726,-3.8726,-3.8726,-3.8707,-3.8735,-3.8822,-3.9003,-3.93,-3.9671,-3.9931,-3.9608,-3.8758,-3.8952,-3.9444,-3.9901,-4.0113,-4.0113,-4.0113,-4.0113,-4.0113,-4.0113,-4.0113,-4.0113,-4.0113,-3.9841,-3.9362,-3.8673,-3.8282,-3.816,-3.8067,-3.8351,-3.8914,-3.954,-3.9536,-3.8956,-3.8001,-3.7031,-3.5844,-3.4266,-3.2652,-3.1149,-2.9864,-2.8771,-2.7645,-2.5666,-2.4069,-2.3088,-2.2289,-2.2035,-2.2277,-2.2522,-2.3129,-2.4137,-2.4301,-2.4292,-2.4367,-2.4148,-2.4036,-2.4036,-2.4456,-2.5128,-2.6054,-2.6552,-2.6526,-2.61,-2.708,-2.8483,-3.0006,-3.1224,-3.2022,-3.2361,-3.319,-3.3816,-3.4083,-3.4573,-3.4955,-3.5456,-3.6001,-3.6505,-3.6785,-3.675,-3.5919,-3.4593,-3.2955,-3.153,-3.0792,-2.9819,-2.907,-2.8489,-2.7982,-2.7434,-2.6782,-2.6141,-2.5676,-2.6334,-2.7317,-2.8991,-3.0905,-3.2638,-3.4517,-3.6377,-3.703,-3.6832,-3.6754,-3.6248,-3.5703,-3.5581,-3.4876,-3.4802,-3.5261,-3.6087,-3.7624,-3.8817,-3.8854,-3.8854,-3.9221,-3.9129,-3.8781,-3.8799,-3.8723,-3.8807,-3.9007,-3.93,-3.9566,-3.9876,-3.9766,-3.9035,-3.988,-4.0354,-4.0695,-4.0807,-4.0781,-4.0823,-4.0823,-4.0807,-4.0823,-4.0807,-4.0823,-4.0823,-4.0591,-4.0194,-3.9571,-3.915,-3.8872,-3.8325,-3.8322,-3.898,-3.9738,-3.9944,-3.9577,-3.8735,-3.785,-3.6821,-3.482,-3.3188,-3.2122,-3.0836,-2.9774,-2.8801,-2.663,-2.4861,-2.3686,-2.2888,-2.2757,-2.3031,-2.3523,-2.4431,-2.5341,-2.5712,-2.5805,-2.5821,-2.5632,-2.5069,-2.4329,-2.4997,-2.5837,-2.6727,-2.7564,-2.8068,-2.816,-2.8382,-2.921,-3.07,-3.1735,-3.2547,-3.3038,-3.3931,-3.459,-3.4844,-3.5284,-3.5783,-3.6262,-3.6843,-3.734,-3.7647,-3.7608,-3.7187,-3.6307,-3.4426,-3.277,-3.1953,-3.0528,-2.9536,-2.9269,-2.8528,-2.7752,-2.7008,-2.6266,-2.5874,-2.6063,-2.7351,-2.8907,-3.0666,-3.2531,-3.4682,-3.638,-3.6939,-3.6861,-3.7066,-3.6118,-3.5647,-3.5585,-3.5316,-3.5734,-3.6248,-3.6597,-3.8153,-3.9292,-3.9184,-3.9294,-3.9625,-3.9533,-3.9093,-3.8836,-3.8762,-3.8814,-3.8991,-3.9146,-3.9389,-3.9736,-4.006,-3.922,-4.1342,-4.166,-4.2126,-4.2151,-4.21,-4.2083,-4.2219,-4.2117,-4.2151,-4.2049,-4.1999,-4.2168,-4.1916,-4.1709,-4.1127,-4.109,-4.068,-3.9324,-3.8853,-3.9348,-3.9917,-4.0011,-3.9644,-3.9156,-3.8106,-3.6757,-3.4929,-3.3834,-3.3275,-3.1944,-3.0746,-2.9484,-2.7755,-2.6016,-2.4446,-2.4263,-2.4069,-2.4228,-2.531,-2.6212,-2.6478,-2.7524,-2.7774,-2.7273,-2.7673,-2.6889,-2.4529,-2.5825,-2.6824,-2.7344,-2.8644,-3.0048,-3.0594,-3.0277,-3.0649,-3.1836,-3.2293,-3.3055,-3.4206,-3.4489,-3.4928,-3.5368,-3.5605,-3.5849,-3.6346,-3.6882,-3.7396,-3.7718,-3.7717,-3.7511,-3.7202,-3.5962,-3.4292,-3.2518,-3.1426,-3.0512,-2.976,-2.8869,-2.8143,-2.7537,-2.702,-2.6966,-2.7063,-2.7791,-2.9076,-3.0317,-3.2166,-3.4135,-3.55,-3.6074,-3.6128,-3.5858,-3.5508,-3.5271,-3.5439,-3.572,-3.656,-3.7309,-3.7603,-3.8447,-3.9606,-3.9955,-4.012,-4.0396,-4.0267,-3.9845,-3.9496,-3.9368,-3.9099,-3.9206,-3.9245,-3.9292,-3.9573,-3.9762,-3.9338,-4.1705,-4.198,-4.2196,-4.2303,-4.2303,-4.2303,-4.2303,-4.2303,-4.2303,-4.2303,-4.2303,-4.2303,-4.2179,-4.2024,-4.1705,-4.161,-4.1611,-4.0906,-4.0464,-4.0294,-4.0624,-4.0416,-3.9718,-3.9162,-3.7901,-3.6187,-3.5214,-3.4349,-3.3441,-3.2213,-3.1032,-3.0053,-2.8535,-2.7054,-2.5834,-2.5604,-2.5435,-2.5464,-2.6456,-2.7369,-2.807,-2.8575,-2.8873,-2.9154,-2.937,-2.8774,-2.7596,-2.7722,-2.815,-2.8788,-2.9443,-3.0238,-3.0883,-3.0497,-3.0801,-3.2141,-3.278,-3.344,-3.4353,-3.4962,-3.5357,-3.57,-3.5822,-3.6131,-3.6577,-3.7113,-3.7578,-3.7983,-3.818,-3.8157,-3.7547,-3.7088,-3.5929,-3.4306,-3.288,-3.1654,-3.0626,-2.9038,-2.7679,-2.7136,-2.6781,-2.6613,-2.6842,-2.7706,-2.8704,-2.9909,-3.1504,-3.311,-3.4693,-3.5456,-3.5607,-3.5264,-3.5015,-3.5017,-3.543,-3.6119,-3.711,-3.8062,-3.8612,-3.8961,-3.9992,-4.0763,-4.0946,-4.0965,-4.0836,-4.0579,-4.023,-3.9861,-3.954,-3.9341,-3.9349,-3.9402,-3.9483,-3.9384,-3.9152,-4.2847,-4.304,-4.3122,-4.3149,-4.3176,-4.3176,-4.3159,-4.3159,-4.3149,-4.3159,-4.3149,-4.3149,-4.3122,-4.2985,-4.2847,-4.2819,-4.2885,-4.2808,-4.2227,-4.1315,-4.1115,-4.0617,-3.9614,-3.881,-3.7671,-3.6269,-3.5768,-3.5324,-3.4591,-3.3546,-3.2547,-3.1528,-2.9939,-2.8393,-2.7108,-2.6591,-2.6409,-2.6645,-2.7446,-2.8552,-2.9597,-3.0076,-3.0448,-3.0886,-3.119,-3.0954,-3.0294,-3.0197,-3.0235,-3.0345,-3.078,-3.1351,-3.1562,-3.1224,-3.1461,-3.2476,-3.3152,-3.3829,-3.4776,-3.5334,-3.5689,-3.5844,-3.6045,-3.6367,-3.6876,-3.7358,-3.788,-3.8534,-3.8937,-3.8946,-3.8502,-3.808,-3.7331,-3.6083,-3.4179,-3.254,-3.1139,-2.9734,-2.8577,-2.8065,-2.7534,-2.7286,-2.7366,-2.7538,-2.8351,-2.9573,-3.0926,-3.2351,-3.3969,-3.4772,-3.4814,-3.4797,-3.4614,-3.488,-3.55,-3.6468,-3.7639,-3.8667,-3.9588,-3.9992,-4.0671,-4.1313,-4.1662,-4.1552,-4.1442,-4.0985,-4.0618,-4.012,-3.973,-3.9602,-3.9586,-3.9244,-3.9251,-3.9543,-3.9372,-4.4553,-4.4598,-4.4581,-4.4479,-4.4479,-4.4462,-4.4429,-4.4513,-4.4496,-4.4429,-4.4462,-4.4378,-4.4462,-4.4485,-4.426,-4.4288,-4.4519,-4.4356,-4.3557,-4.2392,-4.1598,-4.062,-3.9241,-3.823,-3.737,-3.6676,-3.6508,-3.6477,-3.6337,-3.5611,-3.4887,-3.3503,-3.1847,-3.0125,-2.8471,-2.7425,-2.7147,-2.7429,-2.8265,-2.9473,-3.097,-3.1785,-3.2209,-3.231,-3.2899,-3.2966,-3.2476,-3.2857,-3.2671,-3.1749,-3.2506,-3.2793,-3.2479,-3.2327,-3.2493,-3.3322,-3.344,-3.4184,-3.5216,-3.5616,-3.58,-3.6045,-3.6326,-3.6693,-3.7291,-3.7882,-3.8557,-3.9467,-3.9827,-3.99,-3.9662,-3.9166,-3.834,-3.7345,-3.5092,-3.2889,-3.084,-3.0732,-3.0283,-2.9615,-2.9207,-2.8788,-2.8269,-2.8152,-2.832,-2.8982,-3.0378,-3.1812,-3.284,-3.352,-3.4202,-3.4178,-3.3872,-3.4926,-3.5605,-3.7037,-3.8267,-3.9937,-4.0689,-4.0946,-4.1332,-4.1882,-4.2378,-4.2249,-4.2047,-4.1554,-4.1205,-4.0891,-4.0577,-4.053,-4.0111,-3.929,-3.9398,-4.0052,-4.0271,-4.4598,-4.4598,-4.4598,-4.4598,-4.4598,-4.4598,-4.4598,-4.4598,-4.4598,-4.4598,-4.4598,-4.4598,-4.4598,-4.4598,-4.4598,-4.4598,-4.4598,-4.4598,-4.4057,-4.2985,-4.2102,-4.0365,-3.8606,-3.7754,-3.7193,-3.6707,-3.6875,-3.7101,-3.7365,-3.6822,-3.6026,-3.5129,-3.339,-3.1586,-2.9837,-2.8613,-2.7927,-2.7834,-2.853,-2.97,-3.1089,-3.1955,-3.2598,-3.3152,-3.3829,-3.4083,-3.3981,-3.4641,-3.4332,-3.3,-3.3136,-3.3339,-3.3102,-3.2682,-3.2936,-3.3846,-3.3761,-3.4109,-3.5377,-3.5844,-3.6045,-3.6409,-3.6739,-3.7378,-3.84,-3.8849,-3.956,-4.0366,-4.0716,-4.0524,-4.0047,-3.9662,-3.8909,-3.7492,-3.5436,-3.3495,-3.2276,-3.1477,-3.1179,-3.1207,-3.054,-2.9828,-2.922,-2.8697,-2.8288,-2.8508,-2.9436,-3.0663,-3.1814,-3.2516,-3.3313,-3.3013,-3.3054,-3.4559,-3.5954,-3.7441,-3.9111,-4.1111,-4.1827,-4.1846,-4.2194,-4.258,-4.2965,-4.313,-4.2892,-4.247,-4.2433,-4.2304,-4.1989,-4.1395,-4.0969,-4.0422,-4.096,-4.1524,-4.1691,-4.4598,-4.4598,-4.4598,-4.4598,-4.4598,-4.4598,-4.4598,-4.4598,-4.4598,-4.4598,-4.4598,-4.4598,-4.4598,-4.4598,-4.4598,-4.4598,-4.4598,-4.4598,-4.4035,-4.2948,-4.1448,-3.9577,-3.7987,-3.7401,-3.7117,-3.6889,-3.7235,-3.7722,-3.8076,-3.7829,-3.7274,-3.641,-3.4993,-3.324,-3.1384,-3.0125,-2.9053,-2.8599,-2.9076,-3.0176,-3.1579,-3.2357,-3.3339,-3.4134,-3.4776,-3.4962,-3.503,-3.5363,-3.5143,-3.4484,-3.4336,-3.4201,-3.388,-3.3474,-3.3626,-3.4455,-3.4083,-3.4469,-3.5581,-3.6045,-3.6367,-3.6779,-3.7188,-3.8007,-3.894,-3.9522,-4.0121,-4.1341,-4.1556,-4.1203,-4.0469,-3.9827,-3.8836,-3.7621,-3.6207,-3.4853,-3.3757,-3.3176,-3.2766,-3.248,-3.1699,-3.0643,-2.9922,-2.9241,-2.8836,-2.8801,-2.9644,-3.0623,-3.1485,-3.2005,-3.2531,-3.2675,-3.3348,-3.5,-3.6652,-3.8175,-3.9753,-4.1735,-4.258,-4.2653,-4.2763,-4.3039,-4.313,-4.3314,-4.3406,-4.3441,-4.3239,-4.2962,-4.2425,-4.1917,-4.1709,-4.1738,-4.2047,-4.2583,-4.2789,-4.4598,-4.4598,-4.4598,-4.4598,-4.4598,-4.4598,-4.4598,-4.4598,-4.4598,-4.4598,-4.4598,-4.4598,-4.4598,-4.4598,-4.4598,-4.4598,-4.4598,-4.4598,-4.3738,-4.2415,-4.066,-3.8822,-3.7553,-3.7298,-3.7222,-3.728,-3.7709,-3.8355,-3.881,-3.8887,-3.8574,-3.7758,-3.6622,-3.4911,-3.2956,-3.1569,-3.0314,-2.9261,-2.96,-3.07,-3.2022,-3.2899,-3.3931,-3.5126,-3.538,-3.5481,-3.5498,-3.56,-3.5515,-3.5583,-3.5616,-3.516,-3.4641,-3.4573,-3.4578,-3.4617,-3.4638,-3.4989,-3.6054,-3.6613,-3.698,-3.7558,-3.799,-3.8609,-3.9649,-4.0141,-4.0749,-4.2288,-4.2415,-4.2029,-4.1203,-3.9863,-3.8726,-3.7896,-3.7492,-3.667,-3.5591,-3.509,-3.4731,-3.388,-3.2816,-3.1579,-3.0586,-2.9981,-2.9798,-2.9971,-3.0716,-3.154,-3.2371,-3.3124,-3.3404,-3.3464,-3.4449,-3.5734,-3.7367,-3.898,-4.0561,-4.2213,-4.291,-4.3185,-4.3094,-4.3204,-4.3147,-4.3203,-4.3387,-4.3496,-4.3475,-4.3088,-4.273,-4.2736,-4.2742,-4.2571,-4.2517,-4.3251,-4.3643,-4.4598,-4.4598,-4.4598,-4.4598,-4.4598,-4.4598,-4.4598,-4.4598,-4.4598,-4.4598,-4.4598,-4.4598,-4.4598,-4.4598,-4.4598,-4.4598,-4.4581,-4.444,-4.3581,-4.1572,-4.0658,-3.8962,-3.764,-3.73,-3.7401,-3.7706,-3.8282,-3.9007,-3.9609,-3.9679,-3.9732,-3.9312,-3.7498,-3.579,-3.4105,-3.2221,-3.0444,-2.9399,-2.9753,-3.0852,-3.207,-3.3017,-3.4117,-3.5447,-3.5616,-3.5616,-3.5616,-3.5616,-3.5616,-3.5616,-3.56,-3.5481,-3.5228,-3.481,-3.4871,-3.5234,-3.5104,-3.5595,-3.7029,-3.7676,-3.8357,-3.9206,-3.9264,-3.9866,-4.1404,-4.1066,-4.1662,-4.2837,-4.3239,-4.28,-4.1956,-4.0561,-3.9276,-3.8395,-3.7731,-3.7033,-3.6211,-3.5922,-3.5691,-3.5349,-3.4487,-3.3471,-3.2138,-3.1293,-3.1165,-3.1359,-3.1986,-3.2759,-3.3472,-3.4193,-3.416,-3.4087,-3.5055,-3.6248,-3.7639,-3.9289,-4.0993,-4.2206,-4.2887,-4.3477,-4.3403,-4.3369,-4.3313,-4.3349,-4.3442,-4.3513,-4.3565,-4.3662,-4.3375,-4.3565,-4.3784,-4.3767,-4.3858,-4.4287,-4.4422,-4.4598,-4.4598,-4.4598,-4.4598,-4.4598,-4.4598,-4.4598,-4.4598,-4.4598,-4.4598,-4.4598,-4.4598,-4.4598,-4.4598,-4.4598,-4.4598,-4.444,-4.4024,-4.3103,-4.1651,-4.0541,-3.9216,-3.8271,-3.7825,-3.7883,-3.8153,-3.8673,-3.9408,-3.9918,-4.0113,-4.0045,-3.9977,-3.8193,-3.658,-3.5013,-3.3119,-3.136,-3.0023,-3.0226,-3.1038,-3.1782,-3.2882,-3.4117,-3.5295,-3.5616,-3.5616,-3.5616,-3.5616,-3.5616,-3.5616,-3.5616,-3.56,-3.5583,-3.5267,-3.5372,-3.5701,-3.5797,-3.6343,-3.7662,-3.8472,-3.9173,-4.0366,-4.0303,-4.1022,-4.1835,-4.1847,-4.2251,-4.313,-4.3406,-4.3149,-4.2323,-4.0836,-3.9551,-3.8267,-3.7422,-3.6468,-3.5514,-3.544,-3.5697,-3.5475,-3.4575,-3.3686,-3.2822,-3.2508,-3.2644,-3.2879,-3.3684,-3.4422,-3.4411,-3.4942,-3.4655,-3.4775,-3.561,-3.667,-3.7966,-3.954,-4.1312,-4.2196,-4.2675,-4.3194,-4.3436,-4.3457,-4.3461,-4.3496,-4.3513,-4.36,-4.3667,-4.3816,-4.4033,-4.4158,-4.4371,-4.4799,-4.5017,-4.4958,-4.5045,-4.4429,-4.4445,-4.4547,-4.4598,-4.4598,-4.4598,-4.4598,-4.4598,-4.4598,-4.4598,-4.4547,-4.4513,-4.4367,-4.4547,-4.4412,-4.4434,-4.4345,-4.376,-4.2967,-4.1886,-4.0742,-3.9592,-3.8818,-3.8509,-3.8463,-3.8502,-3.8974,-3.9566,-3.9944,-4.0113,-4.0113,-3.9842,-3.8616,-3.7026,-3.5571,-3.4078,-3.2171,-3.0359,-3.07,-3.1123,-3.1512,-3.2679,-3.4095,-3.5312,-3.5616,-3.5616,-3.5616,-3.5616,-3.5616,-3.5616,-3.5616,-3.5622,-3.5667,-3.5667,-3.5783,-3.6067,-3.6302,-3.7216,-3.8468,-3.9192,-3.9894,-4.0956,-4.1164,-4.1647,-4.2286,-4.2396,-4.2653,-4.3112,-4.3424,-4.324,-4.247,-4.1148,-3.9533,-3.808,-3.6945,-3.5514,-3.4247,-3.4307,-3.4747,-3.4756,-3.4505,-3.3954,-3.3921,-3.3856,-3.4134,-3.4529,-3.5388,-3.5993,-3.6017,-3.5714,-3.5469,-3.5123,-3.5756,-3.6599,-3.7842,-3.928,-4.1098,-4.1746,-4.2263,-4.2809,-4.3244,-4.3437,-4.3458,-4.3531,-4.3566,-4.3667,-4.3828,-4.4026,-4.4275,-4.4546,-4.4812,-4.5074,-4.5292,-4.5476,-4.5559,-4.3606,-4.3629,-4.4299,-4.4598,-4.4598,-4.4598,-4.4598,-4.4598,-4.4598,-4.4598,-4.4496,-4.3927,-4.4028,-4.4276,-4.3842,-4.3978,-4.4356,-4.3985,-4.3188,-4.2087,-4.1143,-4.0301,-3.9231,-3.9068,-3.9125,-3.9206,-3.9408,-3.967,-3.9995,-4.0113,-4.0113,-3.9808,-3.8633,-3.7144,-3.5684,-3.4095,-3.2388,-3.0768,-3.0903,-3.1173,-3.1512,-3.2645,-3.4011,-3.5346,-3.5549,-3.5616,-3.5616,-3.5616,-3.5616,-3.5616,-3.5616,-3.5734,-3.591,-3.5937,-3.6152,-3.6451,-3.6818,-3.7739,-3.9279,-4.0095,-4.1249,-4.2336,-4.2328,-4.2434,-4.2855,-4.2763,-4.2855,-4.3204,-4.3479,-4.3387,-4.3294,-4.1735,-4.0194,-3.8689,-3.6982,-3.5293,-3.3623,-3.3385,-3.399,-3.4124,-3.4223,-3.4629,-3.4901,-3.5443,-3.6169,-3.6691,-3.7418,-3.796,-3.817,-3.7369,-3.6476,-3.6068,-3.5752,-3.6628,-3.7616,-3.9058,-4.0508,-4.0987,-4.1534,-4.2279,-4.2744,-4.3249,-4.3437,-4.3629,-4.3747,-4.3844,-4.4026,-4.4256,-4.4559,-4.4856,-4.5074,-4.5293,-4.5419,-4.5531,-4.5594,-4.3403,-4.346,-4.4265,-4.4598,-4.4598,-4.4598,-4.4598,-4.4598,-4.4598,-4.435,-4.3961,-4.3606,-4.3578,-4.3809,-4.3639,-4.3859,-4.4305,-4.4007,-4.3345,-4.2517,-4.168,-4.0973,-3.9934,-3.9809,-3.9703,-3.9764,-3.979,-3.985,-4.007,-4.0096,-4.0113,-3.9774,-3.8633,-3.733,-3.6028,-3.4336,-3.2747,-3.1478,-3.1207,-3.1207,-3.1326,-3.2645,-3.3964,-3.4776,-3.5419,-3.56,-3.5616,-3.5616,-3.5661,-3.5689,-3.5778,-3.598,-3.6237,-3.6471,-3.6635,-3.6913,-3.7318,-3.8169,-3.957,-4.0156,-4.1016,-4.244,-4.2489,-4.2727,-4.3167,-4.3185,-4.3111,-4.3332,-4.3479,-4.3479,-4.3406,-4.1992,-4.0267,-3.8322,-3.6633,-3.4633,-3.2889,-3.2559,-3.3036,-3.3788,-3.4481,-3.521,-3.6077,-3.6884,-3.8094,-3.8887,-3.9445,-3.9739,-4.001,-3.8762,-3.7367,-3.6415,-3.5929,-3.6476,-3.7315,-3.8475,-3.993,-4.0472,-4.1194,-4.193,-4.2782,-4.3502,-4.3791,-4.3936,-4.4033,-4.4248,-4.4318,-4.4572,-4.4887,-4.5145,-4.5312,-4.5457,-4.5513,-4.5586,-4.5646,-4.2936,-4.302,-4.3978,-4.4378,-4.4395,-4.4547,-4.4598,-4.4598,-4.4598,-4.4265,-4.3673,-4.3352,-4.3352,-4.3606,-4.3758,-4.4028,-4.453,-4.3927,-4.3612,-4.3128,-4.2317,-4.16,-4.1026,-4.0679,-4.0248,-3.9995,-4.0045,-4.0113,-4.0096,-4.0113,-4.0113,-3.9706,-3.8633,-3.7533,-3.6451,-3.4489,-3.3254,-3.229,-3.1579,-3.1261,-3.1698,-3.2679,-3.3744,-3.4404,-3.5081,-3.5397,-3.5583,-3.5616,-3.5689,-3.5844,-3.6019,-3.628,-3.6676,-3.7034,-3.7352,-3.7608,-3.8007,-3.8827,-3.9829,-4.0377,-4.1335,-4.2655,-4.2598,-4.2928,-4.3222,-4.3424,-4.3442,-4.3479,-4.3479,-4.3332,-4.2983,-4.1772,-3.99,-3.7933,-3.6046,-3.4307,-3.2852,-3.2412,-3.3146,-3.394,-3.4834,-3.6025,-3.7182,-3.8403,-3.9637,-4.0276,-4.0836,-4.0449,-4.0487,-3.9294,-3.7948,-3.6675,-3.614,-3.6439,-3.705,-3.7736,-3.9138,-4.0268,-4.1242,-4.2202,-4.3129,-4.4076,-4.4296,-4.4603,-4.4787,-4.4998,-4.496,-4.4868,-4.5115,-4.5341,-4.5504,-4.5612,-4.5654,-4.5676,-4.5723,-4.1457,-4.161,-4.2953,-4.3527,-4.369,-4.431,-4.4598,-4.4598,-4.4598,-4.4581,-4.4147,-4.3193,-4.325,-4.4062,-4.4395,-4.4496,-4.453,-4.4445,-4.4028,-4.3538,-4.3071,-4.2337,-4.1424,-4.117,-4.0646,-4.0299,-4.0146,-4.0113,-4.0113,-4.0113,-4.0113,-3.9808,-3.8734,-3.7567,-3.6789,-3.4827,-3.3085,-3.2324,-3.1579,-3.1478,-3.2141,-3.2949,-3.3744,-3.4341,-3.4776,-3.5165,-3.5723,-3.5864,-3.5994,-3.619,-3.6345,-3.6629,-3.7015,-3.7542,-3.8328,-3.8917,-3.9471,-4.0029,-4.1311,-4.1541,-4.1937,-4.2782,-4.3112,-4.3351,-4.3442,-4.3479,-4.3479,-4.3479,-4.3442,-4.3057,-4.2323,-4.0965,-3.9294,-3.7661,-3.5936,-3.4417,-3.3023,-3.3243,-3.3885,-3.511,-3.6311,-3.7503,-3.8685,-3.9928,-4.1097,-4.1684,-4.2014,-4.1609,-4.0836,-3.9638,-3.849,-3.7216,-3.6476,-3.6708,-3.7378,-3.7966,-3.8976,-4.0209,-4.1434,-4.254,-4.3371,-4.4321,-4.5225,-4.5482,-4.5545,-4.5385,-4.5205,-4.5178,-4.5361,-4.5494,-4.5635,-4.5719,-4.5785,-4.5803,-4.5808,-4.0815,-4.1322,-4.2767,-4.3403,-4.3504,-4.4248,-4.4598,-4.4598,-4.4598,-4.4361,-4.3893,-4.3301,-4.3335,-4.3944,-4.4333,-4.4598,-4.4598,-4.4598,-4.4445,-4.3978,-4.3623,-4.3037,-4.2405,-4.1644,-4.095,-4.0696,-4.0316,-4.0113,-4.0113,-4.0113,-4.0113,-3.9943,-3.908,-3.8176,-3.7313,-3.5571,-3.415,-3.2966,-3.1955,-3.1633,-3.2293,-3.3017,-3.3761,-3.4527,-3.5284,-3.5921,-3.6361,-3.6905,-3.7233,-3.7603,-3.7931,-3.834,-3.8806,-3.9319,-3.9962,-4.0898,-4.1075,-4.1254,-4.1504,-4.1647,-4.2194,-4.2616,-4.2892,-4.2965,-4.3314,-4.3479,-4.3479,-4.3479,-4.3074,-4.2488,-4.1607,-4.0157,-3.8579,-3.7055,-3.5701,-3.4949,-3.4105,-3.4582,-3.5169,-3.6472,-3.7771,-3.8927,-4.001,-4.1038,-4.1974,-4.2471,-4.2691,-4.2415,-4.1362,-3.9973,-3.8843,-3.7729,-3.7237,-3.7017,-3.7833,-3.8585,-3.9547,-4.0775,-4.2174,-4.3127,-4.3642,-4.4471,-4.5313,-4.5369,-4.4924,-4.4908,-4.5166,-4.54,-4.5504,-4.5607,-4.5719,-4.5786,-4.5854,-4.5875,-4.5901,-4.0409,-4.1052,-4.2293,-4.2834,-4.2953,-4.3876,-4.4265,-4.4282,-4.453,-4.4265,-4.3842,-4.369,-4.3595,-4.3623,-4.4198,-4.4598,-4.4598,-4.4598,-4.4598,-4.4333,-4.4028,-4.3606,-4.3037,-4.2209,-4.1627,-4.1221,-4.0713,-4.035,-4.0146,-4.0113,-4.0113,-4.0062,-3.9276,-3.87,-3.7872,-3.6332,-3.4653,-3.2949,-3.2039,-3.187,-3.2361,-3.3237,-3.4032,-3.4962,-3.5983,-3.6949,-3.7342,-3.7855,-3.8466,-3.8884,-3.929,-3.9612,-4.0077,-4.038,-4.0988,-4.1745,-4.198,-4.2051,-4.2031,-4.2066,-4.2066,-4.2378,-4.2616,-4.3039,-4.3351,-4.3479,-4.3479,-4.3479,-4.3112,-4.2268,-4.1077,-3.9698,-3.8157,-3.6725,-3.533,-3.4986,-3.4839,-3.5206,-3.5903,-3.7129,-3.8505,-4.0212,-4.124,-4.2119,-4.2817,-4.3277,-4.3331,-4.3128,-4.194,-4.0428,-3.964,-3.8714,-3.8128,-3.7947,-3.8632,-3.945,-4.0356,-4.1294,-4.2672,-4.3634,-4.4111,-4.4554,-4.5217,-4.4958,-4.44,-4.4796,-4.5256,-4.5454,-4.5629,-4.5708,-4.5786,-4.586,-4.5922,-4.5933,-4.6031,-4.013,-4.0265,-4.106,-4.1407,-4.1559,-4.2895,-4.3494,-4.3673,-4.4327,-4.4547,-4.4429,-4.4462,-4.4028,-4.3809,-4.4198,-4.4598,-4.4598,-4.4598,-4.4598,-4.4581,-4.4468,-4.4045,-4.3572,-4.3098,-4.2489,-4.1525,-4.1052,-4.0629,-4.0265,-4.0146,-4.013,-4.0011,-3.9503,-3.9106,-3.8193,-3.6654,-3.4641,-3.3106,-3.2246,-3.2252,-3.2761,-3.3588,-3.4689,-3.5548,-3.6378,-3.7199,-3.8071,-3.8663,-3.9225,-3.9685,-4.0222,-4.0618,-4.1034,-4.1277,-4.1852,-4.2289,-4.2489,-4.2635,-4.2818,-4.2947,-4.3222,-4.3351,-4.3351,-4.3296,-4.3461,-4.3479,-4.3479,-4.3442,-4.3129,-4.2433,-4.1167,-3.9662,-3.8046,-3.6578,-3.5349,-3.4729,-3.4876,-3.5679,-3.6468,-3.7713,-3.9294,-4.113,-4.2355,-4.318,-4.3214,-4.3583,-4.3557,-4.3351,-4.2403,-4.1126,-4.067,-3.9932,-3.9201,-3.9128,-3.9679,-4.0227,-4.0366,-4.1474,-4.2954,-4.3825,-4.4489,-4.4908,-4.495,-4.4581,-4.4125,-4.4744,-4.5441,-4.6001,-4.6259,-4.5931,-4.588,-4.6127,-4.6131,-4.6108,-4.6206,-4.0558,-4.0512,-4.0711,-4.0934,-4.1322,-4.2767,-4.3403,-4.3555,-4.4231,-4.4598,-4.4598,-4.4581,-4.4445,-4.431,-4.4361,-4.4598,-4.4598,-4.4598,-4.4598,-4.4598,-4.4513,-4.4395,-4.4028,-4.3623,-4.3054,-4.2388,-4.1745,-4.1136,-4.0815,-4.04,-4.0146,-3.9977,-3.9757,-3.9402,-3.843,-3.6857,-3.4837,-3.3464,-3.2777,-3.2681,-3.3379,-3.3813,-3.4997,-3.6713,-3.7483,-3.8441,-3.9423,-4.0176,-4.0764,-4.1252,-4.1645,-4.1923,-4.2083,-4.2328,-4.2526,-4.28,-4.2837,-4.3002,-4.3294,-4.3424,-4.3479,-4.3479,-4.3479,-4.3479,-4.3479,-4.3479,-4.3479,-4.3369,-4.3111,-4.2378,-4.124,-3.968,-3.8083,-3.6578,-3.555,-3.489,-3.5055,-3.5987,-3.7393,-3.8787,-4.0483,-4.2268,-4.329,-4.4188,-4.4001,-4.3832,-4.3728,-4.3468,-4.2571,-4.1768,-4.1249,-4.0798,-4.006,-3.9736,-4.0224,-4.0244,-4.0177,-4.1583,-4.3092,-4.3512,-4.398,-4.4284,-4.4256,-4.3923,-4.4036,-4.4765,-4.5611,-4.6658,-4.6974,-4.6769,-4.6604,-4.6586,-4.6501,-4.6281,-4.6465,-4.1094,-4.0907,-4.07,-4.0734,-4.1095,-4.2219,-4.276,-4.2902,-4.3792,-4.4429,-4.4581,-4.4598,-4.4598,-4.4598,-4.4598,-4.4598,-4.4598,-4.4598,-4.4598,-4.4598,-4.4598,-4.4598,-4.4384,-4.4079,-4.3656,-4.3234,-4.254,-4.183,-4.1102,-4.0629,-4.0367,-4.0197,-4.0104,-3.9765,-3.9029,-3.7144,-3.5215,-3.3836,-3.3166,-3.322,-3.3943,-3.4532,-3.5794,-3.7794,-3.8803,-3.9743,-4.0693,-4.1463,-4.2004,-4.2454,-4.2849,-4.3141,-4.3247,-4.3279,-4.3167,-4.3075,-4.2928,-4.2837,-4.2855,-4.3277,-4.3424,-4.3479,-4.3479,-4.3479,-4.3479,-4.3479,-4.3479,-4.3478,-4.2965,-4.2341,-4.1534,-4.0341,-3.9001,-3.7679,-3.6633,-3.5991,-3.6005,-3.6681,-3.836,-3.9973,-4.1537,-4.2836,-4.3627,-4.4406,-4.4423,-4.4209,-4.4147,-4.3797,-4.3026,-4.2285,-4.1688,-4.1239,-4.0759,-4.0579,-4.0529,-4.0457,-4.0492,-4.1283,-4.2474,-4.26,-4.2975,-4.334,-4.3415,-4.3028,-4.3466,-4.4636,-4.6047,-4.7495,-4.7759,-4.7675,-4.7427,-4.71,-4.6649,-4.6502,-4.6851,-4.1639,-4.1437,-4.1036,-4.0683,-4.0492,-4.1018,-4.1356,-4.1694,-4.2946,-4.3927,-4.4564,-4.4598,-4.4598,-4.4598,-4.4598,-4.4598,-4.4598,-4.4598,-4.4598,-4.4598,-4.4598,-4.4598,-4.4564,-4.4367,-4.4079,-4.3544,-4.3037,-4.2371,-4.1424,-4.1255,-4.0849,-4.0544,-4.0535,-4.0262,-3.985,-3.7895,-3.5807,-3.3994,-3.3455,-3.3843,-3.4419,-3.5183,-3.6741,-3.8419,-3.9708,-4.0592,-4.153,-4.2219,-4.2674,-4.2976,-4.325,-4.341,-4.3443,-4.293,-4.2653,-4.2451,-4.1792,-4.1425,-4.1315,-4.2653,-4.3149,-4.3277,-4.3222,-4.3332,-4.3442,-4.3479,-4.3479,-4.3478,-4.3442,-4.3112,-4.2359,-4.1607,-4.0396,-3.9203,-3.8212,-3.7235,-3.7232,-3.7617,-3.9301,-4.0747,-4.1915,-4.3049,-4.3789,-4.4418,-4.4637,-4.4607,-4.4557,-4.4115,-4.3419,-4.2955,-4.2413,-4.1953,-4.1604,-4.1522,-4.1349,-4.0827,-4.0854,-4.1519,-4.1868,-4.2063,-4.2206,-4.2514,-4.2417,-4.215,-4.3621,-4.5427,-4.701,-4.8525,-4.8667,-4.8743,-4.7947,-4.7486,-4.699,-4.6882,-4.7401,-4.192,-4.1529,-4.1128,-4.0772,-4.0539,-4.0959,-4.1204,-4.1474,-4.2726,-4.3842,-4.4479,-4.4598,-4.4598,-4.4598,-4.4598,-4.4598,-4.4598,-4.4598,-4.4598,-4.4598,-4.4598,-4.4598,-4.4598,-4.4564,-4.4429,-4.4113,-4.3741,-4.3291,-4.2699,-4.2202,-4.1863,-4.1586,-4.1319,-4.0817,-3.9973,-3.8739,-3.7747,-3.6044,-3.5308,-3.5024,-3.5031,-3.5508,-3.6541,-3.8418,-3.9705,-4.0858,-4.1913,-4.2519,-4.2995,-4.3233,-4.3445,-4.3479,-4.3479,-4.302,-4.2745,-4.2433,-4.1864,-4.1644,-4.135,-4.1772,-4.2158,-4.247,-4.2782,-4.2983,-4.3368,-4.3461,-4.3479,-4.3662,-4.3992,-4.39,-4.3828,-4.3718,-4.2782,-4.146,-4.0267,-3.8762,-3.8422,-3.9076,-4.0178,-4.1423,-4.26,-4.4332,-4.5447,-4.5619,-4.5729,-4.5425,-4.5345,-4.4608,-4.3871,-4.3745,-4.3407,-4.2899,-4.2546,-4.2483,-4.2258,-4.1739,-4.1277,-4.1615,-4.1681,-4.1604,-4.1743,-4.184,-4.2212,-4.2338,-4.4331,-4.6343,-4.7899,-4.9244,-4.9808,-4.978,-4.9039,-4.8339,-4.7888,-4.7927,-4.8349,-4.2169,-4.1701,-4.1157,-4.0795,-4.0585,-4.0739,-4.0933,-4.1339,-4.2269,-4.3217,-4.4012,-4.4181,-4.4378,-4.4513,-4.4598,-4.4598,-4.4598,-4.4598,-4.4598,-4.4598,-4.4598,-4.4598,-4.4598,-4.4598,-4.4564,-4.4445,-4.413,-4.3707,-4.3284,-4.2966,-4.2754,-4.2611,-4.2507,-4.1952,-4.1068,-4.0372,-3.8947,-3.7283,-3.6307,-3.5811,-3.5566,-3.5674,-3.6256,-3.7976,-3.9441,-4.0672,-4.1777,-4.2613,-4.3232,-4.3375,-4.3463,-4.3479,-4.3478,-4.3184,-4.2727,-4.2139,-4.1222,-4.0836,-4.0341,-4.0212,-4.0653,-4.1295,-4.1864,-4.2525,-4.3092,-4.3294,-4.3442,-4.3735,-4.4358,-4.4686,-4.4851,-4.4925,-4.4718,-4.3371,-4.2369,-4.0889,-4.0307,-4.0978,-4.1297,-4.2473,-4.3592,-4.5356,-4.6752,-4.7029,-4.7086,-4.6606,-4.6134,-4.5245,-4.447,-4.448,-4.4403,-4.3967,-4.3742,-4.3797,-4.3401,-4.2681,-4.2258,-4.1873,-4.142,-4.0954,-4.1164,-4.1272,-4.1899,-4.2886,-4.5062,-4.7073,-4.8743,-4.9903,-5.0445,-5.0566,-5.0164,-4.9493,-4.8872,-4.8931,-4.9202,-4.24,-4.1892,-4.1178,-4.0767,-4.0573,-4.0289,-4.057,-4.1187,-4.1255,-4.2108,-4.3409,-4.3494,-4.391,-4.4513,-4.4598,-4.4598,-4.4598,-4.4598,-4.4598,-4.4598,-4.4598,-4.4598,-4.4598,-4.4598,-4.4598,-4.4598,-4.4445,-4.4062,-4.3582,-4.3768,-4.3743,-4.3604,-4.3529,-4.328,-4.2814,-4.205,-4.0339,-3.8793,-3.7524,-3.6884,-3.6266,-3.5425,-3.616,-3.7582,-3.9024,-4.0248,-4.1414,-4.2512,-4.3096,-4.3351,-4.346,-4.3479,-4.3259,-4.2763,-4.1992,-4.1022,-3.9811,-3.9533,-3.9258,-3.935,-3.973,-4.0754,-4.1673,-4.2136,-4.2525,-4.3002,-4.3314,-4.3916,-4.4613,-4.4973,-4.5261,-4.5805,-4.6273,-4.5374,-4.4603,-4.361,-4.282,-4.2838,-4.2956,-4.3705,-4.4624,-4.5936,-4.6945,-4.7448,-4.8132,-4.7385,-4.6762,-4.5965,-4.5378,-4.5482,-4.5374,-4.5086,-4.4985,-4.518,-4.466,-4.3814,-4.2909,-4.2428,-4.0642,-4.001,-4.0319,-4.1047,-4.198,-4.3432,-4.5788,-4.7847,-4.9684,-5.0624,-5.1061,-5.1015,-5.0703,-5.0322,-4.9596,-4.9629,-4.9806,-4.2192,-4.1657,-4.099,-4.058,-4.037,-4.0171,-4.0493,-4.1153,-4.1221,-4.2033,-4.3403,-4.3403,-4.3724,-4.4564,-4.4598,-4.4581,-4.4598,-4.4598,-4.4598,-4.4598,-4.4598,-4.4598,-4.4598,-4.4598,-4.4598,-4.4598,-4.4564,-4.449,-4.4432,-4.4656,-4.4834,-4.4718,-4.4889,-4.4977,-4.4775,-4.4502,-4.2574,-4.0709,-3.9242,-3.7925,-3.6705,-3.5644,-3.6017,-3.6509,-3.8138,-3.9276,-4.0139,-4.1735,-4.2378,-4.2653,-4.3221,-4.3442,-4.3424,-4.3204,-4.269,-4.126,-4.0616,-4.0286,-3.9787,-4.0129,-4.0651,-4.1043,-4.2031,-4.2267,-4.2461,-4.2812,-4.3382,-4.4188,-4.5137,-4.5731,-4.6559,-4.7191,-4.7554,-4.7188,-4.635,-4.5388,-4.4584,-4.4075,-4.4165,-4.4292,-4.5241,-4.639,-4.7337,-4.8615,-4.9106,-4.8231,-4.7403,-4.6639,-4.6249,-4.637,-4.6455,-4.6185,-4.6466,-4.6736,-4.583,-4.4947,-4.3858,-4.276,-4.0788,-3.9644,-4.0453,-4.13,-4.2256,-4.4033,-4.6435,-4.8691,-5.079,-5.1293,-5.1255,-5.1222,-5.0943,-5.067,-5.0449,-5.0332,-5.0259,-4.1881,-4.1368,-4.0676,-4.0345,-4.0213,-4.0138,-4.0383,-4.0713,-4.0747,-4.1474,-4.2455,-4.2506,-4.3115,-4.3995,-4.4096,-4.4248,-4.4598,-4.4598,-4.4598,-4.4598,-4.4598,-4.4598,-4.4598,-4.4598,-4.4598,-4.4615,-4.4671,-4.4703,-4.4951,-4.5485,-4.5765,-4.6072,-4.6395,-4.6237,-4.6074,-4.5899,-4.4967,-4.294,-4.1026,-3.9213,-3.7519,-3.5929,-3.5247,-3.5353,-3.7055,-3.7808,-3.8762,-4.0616,-4.135,-4.1864,-4.2598,-4.3002,-4.3002,-4.2928,-4.2543,-4.1297,-4.1022,-4.0747,-4.0559,-4.1256,-4.1844,-4.2443,-4.3025,-4.3476,-4.3519,-4.3717,-4.4126,-4.4707,-4.5778,-4.6794,-4.7804,-4.8679,-4.8867,-4.8991,-4.7912,-4.6846,-4.6057,-4.5302,-4.5082,-4.4966,-4.5774,-4.6935,-4.8172,-4.9479,-4.9719,-4.8281,-4.7621,-4.743,-4.7133,-4.7194,-4.7395,-4.7395,-4.7882,-4.8319,-4.7182,-4.5767,-4.4333,-4.2649,-4.0287,-3.9636,-4.0567,-4.1384,-4.2151,-4.4409,-4.7121,-4.9146,-5.0946,-5.1133,-5.1147,-5.1095,-5.1017,-5.078,-5.0581,-5.0565,-5.0528,-4.1609,-4.1209,-4.0451,-4.0221,-4.0188,-4.0188,-4.018,-4.0121,-4.0206,-4.057,-4.1204,-4.1271,-4.2185,-4.3386,-4.3606,-4.4012,-4.4384,-4.4598,-4.4598,-4.4581,-4.4598,-4.4598,-4.4598,-4.4598,-4.4598,-4.4654,-4.4776,-4.4978,-4.5372,-4.5975,-4.6723,-4.7291,-4.7034,-4.6915,-4.707,-4.7129,-4.6195,-4.4509,-4.2531,-4.0604,-3.8053,-3.6285,-3.5023,-3.5133,-3.594,-3.6835,-3.8212,-3.9331,-4.0212,-4.1056,-4.1811,-4.2359,-4.2598,-4.2615,-4.2101,-4.1803,-4.1654,-4.1721,-4.1912,-4.2556,-4.3478,-4.4069,-4.4543,-4.5086,-4.5209,-4.4668,-4.4897,-4.5814,-4.6937,-4.7751,-4.8692,-4.9313,-4.9632,-4.9358,-4.8529,-4.772,-4.7075,-4.6175,-4.533,-4.54,-4.6052,-4.7114,-4.7589,-4.8752,-4.9528,-4.8095,-4.791,-4.8107,-4.7985,-4.8005,-4.8257,-4.8528,-4.9127,-4.9241,-4.7847,-4.6352,-4.4589,-4.2584,-4.0236,-3.9694,-4.068,-4.1374,-4.201,-4.4773,-4.7649,-4.9118,-5.05,-5.0809,-5.1017,-5.0958,-5.0875,-5.0771,-5.0682,-5.0606,-5.0507,-4.1906,-4.1534,-4.0954,-4.0704,-4.0704,-4.06,-4.051,-4.0395,-4.0288,-4.0595,-4.1102,-4.1288,-4.1948,-4.3054,-4.3189,-4.3639,-4.4293,-4.4276,-4.4547,-4.4513,-4.4513,-4.4513,-4.4598,-4.4598,-4.4598,-4.4682,-4.4869,-4.5381,-4.5992,-4.6694,-4.7295,-4.765,-4.7609,-4.7787,-4.7826,-4.7883,-4.7058,-4.5461,-4.414,-4.1992,-3.946,-3.6743,-3.5023,-3.5096,-3.5573,-3.6046,-3.7239,-3.8322,-3.9643,-4.0912,-4.1846,-4.2561,-4.3167,-4.3218,-4.2879,-4.2447,-4.2675,-4.2976,-4.3454,-4.4143,-4.5188,-4.6031,-4.6569,-4.6834,-4.6695,-4.5921,-4.6035,-4.7123,-4.7966,-4.8678,-4.9347,-4.987,-5.0191,-4.965,-4.9083,-4.8527,-4.797,-4.6839,-4.5686,-4.6001,-4.6509,-4.6975,-4.7389,-4.794,-4.8563,-4.8942,-4.9202,-4.9264,-4.8904,-4.8831,-4.9196,-4.9553,-5.0209,-5.0022,-4.8521,-4.6822,-4.4963,-4.3045,-4.0835,-4.0626,-4.0844,-4.1871,-4.3007,-4.5585,-4.8033,-4.9301,-5.0261,-5.0764,-5.0917,-5.0847,-5.0735,-5.0635,-5.0485,-5.0377,-5.026,-4.2277,-4.1966,-4.1494,-4.1311,-4.1265,-4.1123,-4.0913,-4.0683,-4.05,-4.0517,-4.0688,-4.0781,-4.1373,-4.2371,-4.2439,-4.2929,-4.3565,-4.3538,-4.3707,-4.391,-4.4164,-4.4316,-4.4429,-4.4637,-4.4748,-4.4858,-4.5407,-4.5992,-4.6712,-4.723,-4.7692,-4.7953,-4.8209,-4.8324,-4.8324,-4.8196,-4.7517,-4.592,-4.5149,-4.3332,-4.0818,-3.8288,-3.6178,-3.5958,-3.5716,-3.6064,-3.6725,-3.7845,-3.8909,-4.0469,-4.1625,-4.2635,-4.3238,-4.3543,-4.3266,-4.311,-4.3419,-4.4285,-4.4893,-4.5754,-4.6876,-4.7787,-4.8523,-4.8788,-4.9023,-4.8354,-4.7857,-4.8719,-4.8485,-4.9046,-4.9739,-5.0313,-5.0451,-5.017,-4.9394,-4.8693,-4.7895,-4.6901,-4.6386,-4.6555,-4.7116,-4.7708,-4.8169,-4.8723,-4.9159,-4.8929,-4.9363,-4.9909,-4.9656,-4.9547,-4.9964,-5.0272,-5.0747,-5.0248,-4.871,-4.6996,-4.5248,-4.3291,-4.1377,-4.0931,-4.0954,-4.25,-4.4192,-4.6207,-4.7893,-4.9114,-4.9962,-5.061,-5.0827,-5.0766,-5.0635,-5.0495,-5.0321,-5.0088,-4.9884,-4.2488,-4.2378,-4.2056,-4.1895,-4.1871,-4.1678,-4.1353,-4.1013,-4.0784,-4.0524,-4.0339,-4.0331,-4.062,-4.1001,-4.1238,-4.1745,-4.2219,-4.2658,-4.2929,-4.3352,-4.3504,-4.3995,-4.4467,-4.4748,-4.4978,-4.5468,-4.6049,-4.6665,-4.7288,-4.771,-4.7994,-4.8189,-4.8247,-4.8324,-4.8324,-4.8141,-4.7517,-4.6195,-4.5112,-4.3956,-4.2029,-4.0029,-3.8135,-3.6997,-3.6497,-3.6787,-3.7279,-3.779,-3.8489,-3.9939,-4.1572,-4.2658,-4.3404,-4.3795,-4.3652,-4.3554,-4.3929,-4.4922,-4.587,-4.6746,-4.82,-4.9463,-5.0149,-5.0442,-5.0537,-5.0315,-4.9795,-4.9578,-4.9327,-4.9464,-5.0172,-5.0513,-5.0614,-5.0529,-4.9673,-4.8854,-4.7955,-4.7204,-4.7222,-4.7286,-4.7764,-4.838,-4.8804,-4.9381,-4.9482,-4.9211,-4.9393,-4.985,-5.0204,-5.0267,-5.0501,-5.0544,-5.0685,-4.9889,-4.8738,-4.7146,-4.5418,-4.3806,-4.2076,-4.1288,-4.1088,-4.25,-4.4122,-4.6061,-4.7627,-4.8924,-4.9898,-5.0615,-5.0702,-5.0673,-5.0492,-5.0298,-5.0038,-4.979,-4.9427,-4.221,-4.2552,-4.2474,-4.2436,-4.2396,-4.2177,-4.1867,-4.1561,-4.1333,-4.1047,-4.0806,-4.0755,-4.0962,-4.1187,-4.1204,-4.1534,-4.1978,-4.2172,-4.2719,-4.3335,-4.3359,-4.3881,-4.4527,-4.5052,-4.5459,-4.6067,-4.674,-4.7317,-4.7669,-4.7994,-4.8209,-4.8286,-4.8286,-4.8324,-4.8324,-4.8067,-4.7553,-4.6287,-4.5498,-4.458,-4.2321,-4.0448,-3.901,-3.7916,-3.7118,-3.7267,-3.7507,-3.778,-3.8795,-4.0185,-4.1686,-4.2851,-4.354,-4.3957,-4.3961,-4.4156,-4.4536,-4.5508,-4.654,-4.7304,-4.8632,-4.9862,-5.0317,-5.0563,-5.0625,-5.0644,-5.0334,-5.0334,-5.017,-5.0191,-5.0634,-5.0644,-5.0693,-5.0462,-4.9864,-4.9148,-4.8359,-4.8145,-4.8134,-4.8224,-4.8474,-4.8798,-4.897,-4.9542,-5.0071,-5.0024,-5.0414,-5.0826,-5.0853,-5.0957,-5.0996,-5.0759,-5.062,-4.9867,-4.8841,-4.7248,-4.5582,-4.4048,-4.2669,-4.1687,-4.1499,-4.2401,-4.4065,-4.6085,-4.7532,-4.8792,-4.9682,-5.0653,-5.0573,-5.0521,-5.0302,-5.007,-4.9776,-4.9468,-4.9132]},{"header":{"parameterUnit":"m.s-1","parameterCategory":1,"la1":31.0,"la2":29.5877,"lo1":-88.7671,"lo2":-86.6584,"dy":0.0162,"dx":0.0185,"nx":115,"ny":88,"refTime":"2026-03-21T00:00:00:Z","depth":0,"parameterNumber":3,"parameterNumberName":"V-component_of_WINDS"},"data":[0.0,0.0,0.0,0.0,0.0,0.0,0.0,0.0,0.0,0.0,0.0,0.0,0.0,0.0,0.0,0.0,0.0,0.0,0.0,0.0,0.0,0.0,0.0,0.0,0.0,0.0,0.0,0.0,0.0,0.0,0.0,0.0,0.0,0.0,0.0,0.0,0.0,0.0,0.0,0.0,0.0,0.0,0.0,0.0,0.0,0.0,0.0,0.0,0.0,0.0,0.0,0.0,0.0,0.0,0.0,0.0,0.0,0.0,0.0,0.0,0.0,0.0,0.0,0.0,0.0,0.0,0.0,0.0,0.0,0.0,0.0,0.0,0.0,0.0,0.0,0.0,0.0,0.0,0.0,0.0,0.0,0.0,0.0,0.0,0.0,0.0,0.0,0.0,0.0,0.0,0.0,0.0,0.0,0.0,0.0,0.0,0.0,0.0,0.0,0.0,0.0,0.0,0.0,0.0,0.0,0.0,0.0,0.0,0.0,0.0,0.0,0.0,0.0,0.0,0.0,0.0,0.0,0.0,0.0,0.0,0.0,0.0,0.0,0.0,0.0,0.0,0.0,0.0,0.0,0.0,0.0,0.0,0.0,0.0,0.0,0.0,0.0,0.0,0.0,0.0,0.0,0.0,0.0,0.0,0.0,0.0,0.0,0.0,0.0,0.0,0.0,0.0,0.0,0.0,0.0,0.0,0.0,0.0,0.0,0.0,0.0,0.0,0.0,0.0,0.0,0.0,0.0,0.0,0.0,0.0,0.0,0.0,0.0,0.0,0.0,0.0,0.0,0.0,0.0,0.0,0.0,0.0,0.0,0.0,0.0,0.0,0.0,0.0,0.0,0.0,0.0,0.0,0.0,0.0,0.0,0.0,0.0,0.0,0.0,0.0,0.0,0.0,0.0,0.0,0.0,0.0,0.0,0.0,0.0,0.0,0.0,0.0,0.0,0.0,0.0,0.0,0.0,0.0,0.0,0.0,0.0,0.0,0.0,0.0,0.0,0.0,0.0,0.0,0.0,0.0,0.0,0.0,0.0,0.0,0.0,0.0,0.0,0.0,0.0,0.0,0.0,0.0,0.0,0.0,0.0,0.0,0.0,0.0,0.0,0.0,0.0,0.0,0.0,0.0,0.0,0.0,0.0,0.0,0.0,0.0,0.0,0.0,0.0,0.0,0.0,0.0,0.0,0.0,0.0,0.0,0.0,0.0,0.0,0.0,0.0,0.0,0.0,0.0,0.0,0.0,0.0,0.0,0.0,0.0,0.0,0.0,0.0,0.0,0.0,0.0,0.0,0.0,0.0,0.0,0.0,0.0,0.0,0.0,0.0,0.0,0.0,0.0,0.0,0.0,0.0,0.0,0.0,0.0,0.0,0.0,0.0,0.0,0.0,0.0,0.0,0.0,0.0,0.0,0.0,0.0,0.0,0.0,0.0,0.0,0.0,0.0,0.0,0.0,0.0,0.0,0.0,0.0,0.0,0.0,0.0,0.0,0.0,0.0,0.0,0.0,0.0,0.0,0.0,0.0,0.0,0.0,0.0,0.0,0.0,0.0,0.0,0.0,0.0,0.0,0.0,0.0,0.0,0.0,0.0,0.0,0.0,0.0,0.0,0.0,0.0,0.0,0.0,0.0,0.0,0.0,0.0,0.0,0.0,0.0,0.0,0.0,0.0,0.0,0.0,0.0,0.0,0.0,0.0,0.0,0.0,0.0,0.0,0.0,0.0,0.0,0.0,0.0,0.0,0.0,0.0,0.0,0.0,0.0,0.0,0.0,0.0,0.0,0.0,0.0,0.0,0.0,0.0,0.0,0.0,0.0,0.0,0.0,0.0,0.0,0.0,0.0,0.0,0.0,0.0,0.0,0.0,0.0,0.0,0.0,0.0,0.0,0.0,0.0,0.0,0.0,0.0,0.0,0.0,0.0,0.0,0.0,0.0,0.0,0.0,0.0,0.0,0.0,0.0,0.0,0.0,0.0,0.0,0.0,0.0,0.0,0.0,0.0,0.0,0.0,0.0,0.0,0.0,0.0,0.0,0.0,0.0,0.0,0.0,0.0,0.0,0.0,0.0,0.0,0.0,0.0,0.0,0.0,0.0,0.0,0.0,0.0,0.0,0.0,0.0,0.0,0.0,0.0,0.0,0.0,0.0,0.0,0.0,0.0,0.0,0.0,0.0,0.0,0.0,0.0,0.0,0.0,0.0,0.0,0.0,0.0,0.0,0.0,0.0,0.0,0.0,0.0,0.0,0.0,0.0,0.0,0.0,0.0,0.0,0.0,0.0,0.0,0.0,0.0,0.0,0.0,0.0,0.0,0.0,0.0,0.0,0.0,0.0,0.0,0.0,0.0,0.0,0.0,0.0,0.0,0.0,0.0,0.0,0.0,0.0,0.0,0.0,0.0,0.0,0.0,0.0,0.0,0.0,0.0,0.0,0.0,0.0,0.0,0.0,0.0,0.0,0.0,0.0,0.0,0.0,0.0,0.0,0.0,0.0,0.0,0.0,0.0,0.0,0.0,0.0,0.0,0.0,0.0,0.0,0.0,0.0,0.0,0.0,0.0,0.0,0.0,0.0,0.0,0.0,0.0,0.0,0.0,0.0,0.0,0.0,0.0,0.0,0.0,0.0,0.0,0.0,0.0,0.0,0.0,0.0,0.0,0.0,0.0,0.0,0.0,0.0,0.0,0.0,0.0,0.0,0.0,0.0,0.0,0.0,0.0,0.0,0.0,0.0,0.0,0.0,0.0,0.0,0.0,0.0,0.0,0.0,0.0,0.0,0.0,0.0,0.0,0.0,0.0,0.0,0.0,0.0,0.0,0.0,0.0,0.0,0.0,0.0,0.0,0.0,0.0,0.0,0.0,0.0,0.0,0.0,0.0,0.0,0.0,0.0,0.0,0.0,0.0,0.0,0.0,0.0,0.0,0.0,0.0,0.0,0.0,0.0,0.0,0.0,0.0,0.0,0.0,0.0,0.0,0.0,0.0,0.0,0.0,0.0,0.0,0.0,0.0,0.0,0.0,0.0,0.0,0.0,0.0,0.0,0.0,0.0,0.0,0.0,0.0,0.0,0.0,0.0,0.0,0.0,0.0,0.0,0.0,0.0,0.0,0.0,0.0,0.0,0.0,0.0,0.0,0.0,0.0,0.0,0.0,0.0,0.0,0.0,0.0,0.0,0.0,0.0,0.0,0.0,0.0,0.0,0.0,0.0,0.0,0.0,0.0,0.0,0.0,0.0,0.0,0.0,0.0,0.0,0.0,0.0,0.0,0.0,0.0,0.0,0.0,0.0,0.0,0.0,0.0,0.0,0.0,0.0,0.0,0.0,0.0,0.0,0.0,0.0,0.0,0.0,0.0,0.0,0.0,0.0,0.0,0.0,0.0,0.0,0.0,0.0,0.0,0.0,0.0,0.0,0.0,0.0,0.0,0.0,0.0,0.0,0.0,0.0,0.0,0.0,0.0,0.0,0.0,0.0,0.0,0.0,0.0,0.0,0.0,0.0,0.0,0.0,0.0,0.0,0.0,0.0,0.0,0.0,0.0,0.0,0.0,0.0,0.0,0.0,0.0,0.0,0.0,0.0,0.0,0.0,0.0,0.0,0.0,0.0,0.0,0.0,0.0,0.0,0.0,0.0,0.0,0.0,0.0,0.0,0.0,0.0,0.0,0.0,0.0,0.0,0.0,0.0,0.0,0.0,0.0,0.0,0.0,0.0,0.0,0.0,0.0,0.0,0.0,0.0,0.0,0.0,0.0,0.0,0.0,0.0,0.0,0.0,0.0,0.0,0.0,0.0,0.0,0.0,0.0,0.0,0.0,0.0,0.0,0.0,0.0,0.0,0.0,0.0,0.0,0.0,0.0,0.0,0.0,0.0,0.0,0.0,0.0,0.0,0.0,0.0,0.0,0.0,0.0,0.0,0.0,0.0,0.0,0.0,0.0,0.0,0.0,0.0,0.0,0.0,0.0,0.0,0.0,0.0,0.0,0.0,0.0,0.0,0.0,0.0,0.0,0.0,0.0,0.0,0.0,0.0,0.0,0.0,0.0,0.0,0.0,0.0,0.0,0.0,0.0,0.0,0.0,0.0,0.0,0.0,0.0,0.0,0.0,0.0,0.0,0.0,0.0,0.0,0.0,0.0,0.0,0.0,0.0,0.0,0.0,0.0,0.0,0.0,0.0,0.0,0.0,0.0,0.0,0.0,0.0,0.0,0.0,0.0,0.0,0.0,0.0,0.0,0.0,0.0,0.0,0.0,0.0,0.0,0.0,0.0,0.0,-0.3506,0.0,0.0,0.0,0.0,0.0,0.0,0.0,0.0,0.0,0.0,0.0,0.0,0.0,0.0,0.0,0.0,0.0,0.0,0.0,0.0,0.0,0.0,0.0,0.0,0.0,0.0,0.0,0.0,0.0,0.0,0.0,0.0,0.0,0.0,0.0,0.0,0.0,0.0,0.0,0.0,0.0,0.0,0.0,0.0,0.0,0.0,0.0,0.0,0.0,0.0,0.0,0.0,0.0,0.0,0.0,0.0,0.0,0.0,0.0,0.0,0.0,0.0,0.0,0.0,0.0,0.0,0.0,0.0,0.0,0.0,0.0,0.0,0.0,0.0,0.0,0.0,0.0,0.0,0.0,0.0,0.0,0.0,0.0,0.0,0.0,0.0,0.0,0.0,0.0,0.0,0.0,0.0,0.0,0.0,0.0,0.0,0.0,0.0,0.0,0.0,0.0,0.0,0.0,0.0,0.0,0.0,0.0,0.0,0.0,0.0,-0.4209,-0.3911,-0.3814,-0.3668,-0.3506,0.0,0.0,0.0,0.0,0.0,0.0,0.0,0.0,0.0,0.0,0.0,0.0,0.0,0.0,0.0,0.0,0.0,0.0,0.0,0.0,0.0,0.0,0.0,0.0,0.0,0.0,0.0,0.0,0.0,0.0,0.0,0.0,0.0,0.0,0.0,0.0,0.0,0.0,0.0,0.0,0.0,0.0,0.0,0.0,0.0,0.0,0.0,0.0,0.0,0.0,0.0,0.0,0.0,0.0,0.0,0.0,0.0,0.0,0.0,0.0,0.0,0.0,0.0,0.0,0.0,0.0,0.0,0.0,0.0,0.0,0.0,0.0,0.0,0.0,0.0,0.0,0.0,0.0,0.0,0.0,0.0,0.0,0.0,0.0,0.0,0.0,0.0,0.0,0.0,0.0,0.0,0.0,0.0,0.0,0.0,0.0,0.0,0.0,0.0,0.0,0.0,0.0,0.0,0.0,0.0,0.0,0.0,0.0,0.0,0.0,0.0,0.0,-0.3809,-0.3727,-0.3517,0.0,0.0,0.0,0.0,0.0,0.0,0.0,0.0,0.0,0.0,0.0,0.0,0.0,0.0,0.0,0.0,0.0,0.0,0.0,0.0,0.0,0.0,0.0,0.0,0.0,0.0,0.0,0.0,0.0,0.0,0.0,0.0,0.0,0.0,0.0,0.0,0.0,0.0,0.0,0.0,0.0,0.0,0.0,0.0,0.0,0.0,0.0,0.0,0.0,0.0,0.0,0.0,0.0,0.0,0.0,0.0,0.0,0.0,0.0,0.0,0.0,0.0,0.0,0.0,0.0,0.0,0.0,0.0,0.0,0.0,0.0,0.0,0.0,0.0,0.0,0.0,0.0,0.0,0.0,0.0,0.0,0.0,0.0,0.0,0.0,0.0,0.0,0.0,0.0,0.0,0.0,0.0,0.0,0.0,0.0,0.0,0.0,0.0,0.0,0.0,0.0,0.0,0.0,0.0,0.0,0.0,0.0,0.0,0.0,0.0,-0.3846,-0.3465,-0.3727,0.0,-0.3527,0.0,0.0,0.0,0.0,0.0,0.0,0.0,0.0,0.0,0.0,0.0,0.0,0.0,0.0,0.0,0.0,0.0,0.0,0.0,0.0,0.0,0.0,0.0,0.0,0.0,0.0,0.0,0.0,0.0,0.0,0.0,0.0,0.0,0.0,0.0,0.0,0.0,0.0,0.0,0.0,0.0,0.0,0.0,0.0,0.0,0.0,0.0,0.0,0.0,0.0,0.0,0.0,0.0,0.0,0.0,0.0,0.0,0.0,0.0,0.0,0.0,0.0,0.0,0.0,0.0,0.0,0.0,0.0,0.0,0.0,0.0,0.0,0.0,0.0,0.0,0.0,0.0,0.0,0.0,0.0,0.0,0.0,0.0,0.0,0.0,0.0,0.0,0.0,0.0,0.0,0.0,0.0,0.0,0.0,0.0,0.0,0.0,0.0,0.0,0.0,0.0,0.0,0.0,0.0,0.0,0.0,0.0,0.0,0.0,0.0,0.0,-0.3591,-0.3638,-0.3615,0.0,0.0,0.0,0.0,0.0,0.0,0.0,0.0,0.0,0.0,0.0,0.0,0.0,0.0,0.0,0.0,0.0,0.0,0.0,0.0,0.0,0.0,0.0,0.0,0.0,0.0,0.0,0.0,0.0,0.0,0.0,0.0,0.0,0.0,0.0,0.0,0.0,0.0,0.0,0.0,0.0,0.0,0.0,0.0,0.0,0.0,0.0,0.0,0.0,0.0,0.0,0.0,0.0,0.0,0.0,0.0,0.0,0.0,0.0,0.0,0.0,0.0,0.0,0.0,0.0,0.0,0.0,0.0,0.0,0.0,0.0,0.0,0.0,0.0,0.0,0.0,0.0,0.0,0.0,0.0,0.0,0.0,0.0,0.0,0.0,0.0,0.0,0.0,0.0,0.0,0.0,0.0,0.0,0.0,0.0,0.0,0.0,0.0,0.0,0.0,0.0,0.0,0.0,0.0,0.0,0.0,0.0,0.0,0.0,0.0,-0.4357,0.0,-0.3825,-0.3651,-0.3541,-0.3541,0.0,0.0,0.0,0.0,0.0,0.0,0.0,0.0,0.0,0.0,0.0,0.0,0.0,0.0,0.0,0.0,0.0,0.0,0.0,0.0,0.0,0.0,0.0,0.0,0.0,0.0,0.0,0.0,0.0,0.0,0.0,0.0,0.0,0.0,0.0,0.0,0.0,0.0,0.0,0.0,0.0,0.0,0.0,0.0,0.0,0.0,0.0,0.0,0.0,0.0,0.0,0.0,0.0,0.0,0.0,0.0,0.0,0.0,0.0,0.0,0.0,0.0,0.0,0.0,0.0,0.0,0.0,0.0,0.0,0.0,0.0,0.0,0.0,0.0,0.0,0.0,0.0,0.0,0.0,0.0,0.0,0.0,0.0,0.0,0.0,0.0,0.0,0.0,0.0,0.0,0.0,0.0,0.0,0.0,0.0,0.0,0.0,0.0,0.0,0.0,0.0,0.0,0.0,0.0,0.0,0.0,0.0,0.0,0.0,-0.398,-0.3842,-0.4065,-0.382,-0.3657,0.0,0.0,0.0,0.0,0.0,0.0,0.0,0.0,0.0,0.0,0.0,0.0,0.0,0.0,0.0,0.0,0.0,0.0,0.0,0.0,0.0,0.0,0.0,0.0,0.0,0.0,0.0,0.0,0.0,0.0,0.0,0.0,0.0,0.0,0.0,0.0,0.0,0.0,0.0,0.0,0.0,0.0,0.0,0.0,0.0,0.0,0.0,0.0,0.0,0.0,0.0,0.0,0.0,0.0,0.0,0.0,0.0,0.0,0.0,0.0,0.0,0.0,0.0,0.0,0.0,0.0,0.0,0.0,0.0,0.0,0.0,0.0,0.0,0.0,0.0,0.0,0.0,0.0,0.0,0.0,0.0,0.0,0.0,0.0,0.0,0.0,0.0,0.0,0.0,0.0,0.0,0.0,0.0,0.0,0.0,0.0,0.0,0.0,0.0,0.0,0.0,0.0,0.0,0.0,0.0,0.0,0.0,0.0,0.0,-0.4915,-0.4298,-0.4061,-0.4277,-0.3994,-0.3796,0.0,0.0,0.0,0.0,0.0,0.0,0.0,0.0,0.0,0.0,0.0,0.0,0.0,0.0,0.0,0.0,0.0,0.0,0.0,0.0,0.0,0.0,0.0,0.0,0.0,0.0,0.0,0.0,0.0,0.0,0.0,0.0,0.0,0.0,0.0,0.0,0.0,0.0,0.0,0.0,0.0,0.0,0.0,0.0,0.0,0.0,0.0,0.0,0.0,0.0,0.0,0.0,0.0,0.0,0.0,0.0,0.0,0.0,0.0,0.0,0.0,0.0,0.0,0.0,0.0,0.0,0.0,0.0,0.0,0.0,0.0,0.0,0.0,0.0,0.0,0.0,0.0,0.0,0.0,0.0,0.0,0.0,0.0,0.0,0.0,0.0,0.0,0.0,0.0,0.0,0.0,0.0,0.0,0.0,0.0,0.0,0.0,0.0,0.0,0.0,0.0,0.0,0.0,0.0,0.0,0.0,0.0,0.0,0.0,-0.4948,0.0,-0.4136,0.0,-0.4045,-0.3877,0.0,0.0,0.0,0.0,0.0,0.0,0.0,0.0,0.0,0.0,0.0,0.0,0.0,0.0,0.0,0.0,0.0,0.0,0.0,0.0,0.0,0.0,0.0,0.0,0.0,0.0,0.0,0.0,0.0,0.0,0.0,0.0,0.0,0.0,0.0,0.0,0.0,0.0,0.0,0.0,0.0,0.0,0.0,0.0,0.0,0.0,0.0,0.0,0.0,0.0,0.0,0.0,0.0,0.0,0.0,0.0,0.0,0.0,0.0,0.0,0.0,0.0,0.0,0.0,0.0,0.0,0.0,0.0,0.0,0.0,0.0,0.0,0.0,0.0,0.0,0.0,0.0,0.0,0.0,0.0,0.0,0.0,0.0,0.0,0.0,0.0,0.0,0.0,0.0,0.0,0.0,0.0,0.0,0.0,0.0,0.0,0.0,0.0,0.0,0.0,0.0,0.0,0.0,0.0,0.0,0.0,0.0,0.0,0.0,-0.4441,-0.4105,-0.4023,-0.4181,-0.4014,-0.3838,0.0,0.0,0.0,0.0,0.0,0.0,0.0,0.0,0.0,0.0,0.0,0.0,0.0,0.0,0.0,0.0,0.0,0.0,0.0,0.0,0.0,0.0,0.0,0.0,0.0,0.0,0.0,0.0,0.0,0.0,0.0,0.0,0.0,0.0,0.0,0.0,0.0,0.0,0.0,0.0,0.0,0.0,0.0,0.0,0.0,0.0,0.0,0.0,0.0,0.0,0.0,0.0,0.0,0.0,0.0,0.0,0.0,0.0,0.0,0.0,0.0,0.0,0.0,0.0,0.0,0.0,0.0,0.0,0.0,0.0,0.0,0.0,0.0,0.0,0.0,0.0,0.0,0.0,0.0,0.0,0.0,0.0,0.0,0.0,0.0,0.0,0.0,0.0,0.0,0.0,0.0,0.0,0.0,0.0,0.0,0.0,0.0,0.0,0.0,0.0,0.0,0.0,0.0,0.0,0.0,0.0,0.0,0.0,0.0,-0.482,-0.4383,-0.4187,-0.4189,-0.3994,-0.3848,0.0,0.0,0.0,0.0,0.0,0.0,0.0,0.0,0.0,0.0,0.0,0.0,0.0,0.0,0.0,0.0,0.0,0.0,0.0,0.0,0.0,0.0,0.0,0.0,0.0,0.0,0.0,0.0,0.0,0.0,0.0,0.0,0.0,0.0,0.0,0.0,0.0,0.0,0.0,0.0,0.0,0.0,0.0,0.0,0.0,0.0,0.0,0.0,0.0,0.0,0.0,0.0,0.0,0.0,0.0,0.0,0.0,0.0,0.0,0.0,0.0,0.0,0.0,0.0,0.0,0.0,0.0,0.0,0.0,0.0,0.0,0.0,0.0,0.0,0.0,0.0,0.0,0.0,0.0,0.0,0.0,0.0,0.0,0.0,0.0,0.0,0.0,0.0,0.0,0.0,0.0,0.0,0.0,0.0,0.0,0.0,0.0,0.0,0.0,0.0,0.0,0.0,0.0,0.0,0.0,0.0,0.0,0.0,0.0,-0.5207,-0.4741,-0.4411,-0.4215,-0.4055,-0.3931,-0.3835,0.0,0.0,0.0,0.0,0.0,0.0,0.0,0.0,0.0,0.0,0.0,0.0,0.0,0.0,0.0,0.0,0.0,0.0,0.0,0.0,0.0,0.0,0.0,0.0,0.0,0.0,0.0,0.0,0.0,0.0,0.0,0.0,0.0,0.0,0.0,0.0,0.0,0.0,0.0,0.0,0.0,0.0,0.0,0.0,0.0,0.0,0.0,0.0,0.0,0.0,0.0,0.0,0.0,0.0,0.0,0.0,0.0,0.0,0.0,0.0,0.0,0.0,0.0,0.0,0.0,0.0,0.0,0.0,0.0,0.0,0.0,0.0,0.0,0.0,0.0,0.0,0.0,0.0,0.0,0.0,0.0,0.0,0.0,0.0,0.0,0.0,0.0,0.0,0.0,0.0,0.0,0.0,0.0,0.0,0.0,0.0,0.0,0.0,0.0,0.0,0.0,0.0,0.0,0.0,0.0,0.0,0.0,0.0,-0.556,-0.518,-0.4749,-0.4276,-0.419,-0.4081,0.0,0.0,0.0,0.0,0.0,0.0,0.0,0.0,0.0,0.0,0.0,0.0,0.0,0.0,0.0,0.0,0.0,0.0,0.0,0.0,0.0,0.0,0.0,0.0,0.0,0.0,0.0,0.0,0.0,0.0,0.0,0.0,0.0,0.0,0.0,0.0,0.0,0.0,0.0,0.0,0.0,0.0,0.0,0.0,0.0,0.0,0.0,0.0,0.0,0.0,0.0,0.0,0.0,0.0,0.0,0.0,0.0,0.0,0.0,0.0,0.0,0.0,0.0,0.0,0.0,0.0,0.0,0.0,0.0,0.0,0.0,0.0,0.0,0.0,0.0,0.0,0.0,0.0,0.0,0.0,0.0,0.0,0.0,0.0,0.0,0.0,0.0,0.0,0.0,0.0,0.0,0.0,0.0,0.0,0.0,0.0,0.0,0.0,0.0,0.0,0.0,0.0,0.0,0.0,0.0,0.0,0.0,0.0,0.0,-0.6321,-0.6171,-0.5662,-0.4838,-0.4771,-0.4593,0.0,0.0,0.0,0.0,0.0,0.0,0.0,0.0,0.0,0.0,0.0,0.0,0.0,0.0,0.0,0.0,0.0,0.0,0.0,0.0,0.0,0.0,0.0,0.0,0.0,0.0,0.0,0.0,0.0,0.0,0.0,0.0,0.0,0.0,0.0,0.0,0.0,0.0,0.0,0.0,0.0,0.0,0.0,0.0,0.0,0.0,0.0,0.0,0.0,0.0,0.0,0.0,0.0,0.0,0.0,0.0,0.0,0.0,0.0,0.0,0.0,0.0,0.0,0.0,0.0,0.0,0.0,0.0,0.0,0.0,0.0,0.0,0.0,0.0,0.0,0.0,0.0,0.0,0.0,0.0,0.0,0.0,0.0,0.0,0.0,0.0,0.0,0.0,0.0,0.0,0.0,0.0,0.0,0.0,0.0,0.0,0.0,0.0,0.0,0.0,0.0,0.0,0.0,0.0,0.0,0.0,0.0,0.0,-0.6992,-0.7028,-0.7011,-0.6643,-0.5902,-0.5395,-0.4911,0.0,0.0,0.0,0.0,0.0,0.0,0.0,0.0,0.0,0.0,0.0,0.0,0.0,0.0,0.0,0.0,0.0,0.0,0.0,0.0,0.0,0.0,0.0,0.0,0.0,0.0,0.0,0.0,0.0,0.0,0.0,0.0,0.0,0.0,0.0,0.0,0.0,0.0,0.0,0.0,0.0,0.0,0.0,0.0,0.0,0.0,0.0,0.0,0.0,0.0,0.0,0.0,0.0,0.0,0.0,0.0,0.0,0.0,0.0,0.0,0.0,0.0,0.0,0.0,0.0,0.0,0.0,0.0,0.0,0.0,0.0,0.0,0.0,0.0,0.0,0.0,0.0,0.0,0.0,0.0,0.0,0.0,0.0,0.0,0.0,0.0,0.0,0.0,0.0,0.0,0.0,0.0,0.0,0.0,0.0,0.0,0.0,0.0,0.0,0.0,0.0,0.0,0.0,0.0,0.0,0.0,0.0,0.0,-0.7377,-0.7689,-0.7708,-0.752,-0.7113,-0.6039,-0.5278,0.0,0.0,0.0,0.0,0.0,0.0,0.0,0.0,0.0,0.0,0.0,0.0,0.0,0.0,0.0,0.0,0.0,0.0,0.0,0.0,0.0,0.0,0.0,0.0,0.0,0.0,0.0,0.0,0.0,0.0,0.0,0.0,0.0,0.0,0.0,0.0,0.0,0.0,0.0,0.0,0.0,0.0,0.0,0.0,0.0,0.0,0.0,0.0,0.0,0.0,0.0,0.0,0.0,0.0,0.0,0.0,0.0,0.0,0.0,0.0,0.0,0.0,0.0,0.0,0.0,0.0,0.0,0.0,0.0,0.0,0.0,0.0,0.0,0.0,0.0,0.0,0.0,0.0,0.0,0.0,0.0,0.0,0.0,0.0,0.0,0.0,0.0,0.0,0.0,0.0,0.0,0.0,0.0,0.0,0.0,0.0,0.0,0.0,0.0,0.0,0.0,0.0,0.0,0.0,0.0,0.0,0.0,0.0,-0.7625,-0.8275,-0.8001,-0.7641,-0.7183,-0.6875,-0.6357,0.0,0.0,0.0,0.0,0.0,0.0,0.0,0.0,0.0,0.0,0.0,0.0,0.0,0.0,0.0,0.0,0.0,0.0,0.0,0.0,0.0,0.0,0.0,0.0,0.0,0.0,0.0,0.0,0.0,0.0,0.0,0.0,0.0,0.0,0.0,0.0,0.0,0.0,0.0,0.0,0.0,0.0,0.0,0.0,0.0,0.0,0.0,0.0,-0.2826,0.0,0.0,0.0,0.0,0.0,0.0,0.0,0.0,0.0,0.0,0.0,0.0,0.0,0.0,0.0,0.0,0.0,0.0,0.0,0.0,0.0,0.0,0.0,0.0,0.0,0.0,0.0,0.0,0.0,0.0,0.0,0.0,0.0,0.0,0.0,0.0,0.0,0.0,0.0,0.0,0.0,0.0,0.0,0.0,0.0,0.0,0.0,0.0,0.0,0.0,0.0,0.0,0.0,0.0,0.0,0.0,0.0,0.0,0.0,-0.7718,-0.8512,-0.8251,-0.7929,-0.7632,-0.7466,-0.6898,0.0,0.0,0.0,0.0,0.0,0.0,0.0,0.0,0.0,0.0,0.0,0.0,0.0,0.0,0.0,0.0,0.0,0.0,0.0,0.0,0.0,0.0,0.0,0.0,0.0,0.0,0.0,0.0,0.0,0.0,0.0,0.0,0.0,0.0,0.0,0.0,0.0,0.0,0.0,0.0,0.0,0.0,0.0,0.0,0.0,0.0,0.0,0.0,0.0,0.0,0.0,0.0,0.0,0.0,0.0,0.0,0.0,0.0,0.0,0.0,0.0,0.0,0.0,0.0,0.0,0.0,0.0,0.0,0.0,0.0,0.0,0.0,0.0,0.0,0.0,0.0,0.0,0.0,0.0,0.0,0.0,0.0,0.0,0.0,0.0,0.0,0.0,0.0,0.0,0.0,0.0,0.0,0.0,0.0,0.0,0.0,0.0,0.0,0.0,0.0,0.0,0.0,0.0,0.0,0.0,0.0,0.0,-0.7497,-0.7782,-0.8629,-0.8474,-0.8294,-0.8138,-0.7865,-0.7202,-0.6092,0.0,0.0,0.0,0.0,0.0,0.0,0.0,0.0,0.0,0.0,0.0,0.0,0.0,0.0,0.0,0.0,0.0,0.0,0.0,0.0,0.0,0.0,0.0,0.0,0.0,0.0,0.0,0.0,0.0,0.0,0.0,0.0,0.0,0.0,0.0,0.0,0.0,0.0,-0.417,-0.39,0.0,0.0,0.0,0.0,0.0,0.0,0.0,0.0,-0.251,0.0,0.0,0.0,0.0,0.0,0.0,0.0,0.0,0.0,0.0,0.0,0.0,0.0,0.0,0.0,0.0,0.0,0.0,0.0,0.0,0.0,0.0,0.0,0.0,0.0,0.0,0.0,0.0,0.0,0.0,0.0,0.0,0.0,0.0,0.0,0.0,0.0,0.0,0.0,0.0,0.0,0.0,0.0,0.0,0.0,0.0,0.0,0.0,0.0,0.0,0.0,0.0,0.0,0.0,0.0,0.0,-0.8021,-0.7768,-0.8084,-0.899,-0.8756,-0.8537,-0.8354,-0.8027,-0.7484,-0.671,0.0,0.0,0.0,0.0,0.0,0.0,0.0,0.0,0.0,0.0,0.0,0.0,0.0,0.0,0.0,0.0,0.0,0.0,0.0,0.0,0.0,0.0,0.0,0.0,0.0,0.0,0.0,0.0,0.0,0.0,0.0,0.0,0.0,0.0,0.0,0.0,0.0,0.0,0.0,-0.3817,-0.3656,0.0,0.0,0.0,0.0,0.0,0.0,0.0,0.0,-0.3268,0.0,0.0,0.0,0.0,0.0,0.0,0.0,0.0,0.0,0.0,0.0,0.0,0.0,0.0,0.0,0.0,0.0,0.0,0.0,0.0,0.0,0.0,0.0,0.0,0.0,0.0,0.0,0.0,0.0,0.0,0.0,0.0,0.0,0.0,0.0,0.0,0.0,0.0,0.0,0.0,0.0,0.0,0.0,0.0,0.0,0.0,0.0,0.0,0.0,0.0,0.0,0.0,0.0,0.0,0.0,-0.8059,-0.8177,-0.869,-0.9636,-0.9817,-0.9657,-0.9137,-0.8535,-0.7823,0.0,0.0,0.0,0.0,0.0,0.0,0.0,0.0,0.0,0.0,0.0,0.0,0.0,0.0,0.0,0.0,0.0,0.0,0.0,0.0,0.0,0.0,0.0,0.0,0.0,0.0,0.0,0.0,0.0,0.0,0.0,0.0,0.0,0.0,0.0,0.0,0.0,0.0,0.0,0.0,-0.3714,-0.3471,-0.4111,0.0,0.0,0.0,0.0,0.0,0.0,-0.3605,-0.349,0.0,0.0,0.0,0.0,0.0,0.0,0.0,0.0,0.0,0.0,0.0,0.0,0.0,0.0,0.0,0.0,0.0,0.0,0.0,0.0,0.0,0.0,0.0,0.0,0.0,0.0,0.0,0.0,0.0,0.0,0.0,0.0,0.0,0.0,0.0,0.0,0.0,0.0,0.0,0.0,0.0,0.0,0.0,0.0,0.0,0.0,0.0,0.0,0.0,0.0,0.0,0.0,0.0,0.0,0.0,-0.8155,-0.8569,-0.9189,-1.0046,-1.0463,-1.0338,-0.9611,-0.8769,-0.7938,0.0,0.0,0.0,0.0,0.0,0.0,0.0,0.0,0.0,0.0,0.0,0.0,0.0,0.0,0.0,0.0,0.0,0.0,0.0,0.0,0.0,0.0,0.0,0.0,0.0,0.0,0.0,0.0,0.0,0.0,0.0,0.0,0.0,0.0,0.0,0.0,0.0,0.0,0.0,0.0,0.0,-0.3516,-0.429,-0.4057,0.0,0.0,0.0,0.0,-0.3805,-0.3689,0.0,0.0,0.0,0.0,0.0,0.0,0.0,0.0,0.0,0.0,0.0,0.0,0.0,0.0,0.0,0.0,0.0,0.0,0.0,0.0,0.0,0.0,0.0,0.0,0.0,0.0,0.0,0.0,0.0,0.0,0.0,0.0,0.0,0.0,0.0,0.0,0.0,0.0,0.0,0.0,0.0,0.0,0.0,0.0,0.0,0.0,0.0,0.0,0.0,0.0,0.0,0.0,0.0,0.0,0.0,0.0,-0.8435,-0.8801,-0.9182,-0.9652,-0.9617,-0.9374,-0.8923,-0.8131,-0.7481,0.0,0.0,0.0,0.0,0.0,0.0,0.0,0.0,0.0,0.0,0.0,0.0,0.0,0.0,0.0,0.0,0.0,0.0,0.0,0.0,0.0,0.0,0.0,0.0,0.0,0.0,0.0,0.0,0.0,0.0,0.0,0.0,0.0,0.0,0.0,0.0,0.0,0.0,0.0,0.0,0.0,-0.4076,-0.4362,-0.4273,-0.4185,0.0,0.0,0.0,-0.4101,-0.3988,0.0,0.0,0.0,0.0,0.0,0.0,0.0,0.0,0.0,0.0,0.0,0.0,0.0,0.0,0.0,0.0,0.0,0.0,0.0,0.0,0.0,0.0,0.0,0.0,0.0,0.0,0.0,0.0,0.0,0.0,0.0,0.0,0.0,0.0,0.0,0.0,0.0,0.0,0.0,0.0,0.0,0.0,0.0,0.0,0.0,0.0,0.0,0.0,0.0,0.0,0.0,0.0,0.0,0.0,0.0,-0.8209,-0.8633,-0.9209,-0.9715,-1.0098,-1.0233,-0.989,-0.899,-0.8152,-0.7378,0.0,0.0,0.0,0.0,0.0,0.0,0.0,0.0,0.0,0.0,0.0,0.0,0.0,0.0,0.0,0.0,0.0,0.0,0.0,0.0,0.0,0.0,0.0,0.0,0.0,0.0,0.0,0.0,0.0,0.0,0.0,0.0,0.0,0.0,0.0,0.0,0.0,0.0,0.0,0.0,0.0,0.0,-0.485,-0.442,0.0,0.0,0.0,-0.4491,-0.4432,0.0,0.0,0.0,0.0,0.0,0.0,0.0,0.0,0.0,0.0,0.0,0.0,0.0,0.0,0.0,0.0,0.0,0.0,0.0,0.0,0.0,0.0,0.0,0.0,0.0,0.0,0.0,0.0,0.0,0.0,0.0,0.0,0.0,0.0,0.0,0.0,0.0,0.0,0.0,0.0,0.0,0.0,0.0,0.0,0.0,0.0,0.0,0.0,0.0,0.0,0.0,0.0,0.0,0.0,0.0,0.0,0.0,-0.8712,-0.9486,-1.004,-1.0286,-1.0491,-1.0061,-0.8912,-0.8041,0.0,0.0,0.0,0.0,0.0,0.0,0.0,0.0,0.0,0.0,0.0,0.0,0.0,0.0,0.0,0.0,0.0,0.0,0.0,0.0,0.0,0.0,0.0,0.0,0.0,0.0,0.0,-0.3109,0.0,0.0,0.0,0.0,0.0,0.0,0.0,0.0,0.0,0.0,0.0,0.0,0.0,0.0,-0.4786,-0.532,-0.4738,-0.448,0.0,0.0,-0.4774,-0.4819,-0.4173,-0.3751,0.0,0.0,0.0,0.0,0.0,0.0,0.0,0.0,0.0,0.0,0.0,0.0,0.0,0.0,0.0,0.0,0.0,0.0,0.0,0.0,0.0,0.0,0.0,0.0,0.0,0.0,0.0,0.0,0.0,0.0,0.0,0.0,0.0,0.0,0.0,0.0,0.0,0.0,0.0,0.0,0.0,0.0,0.0,0.0,0.0,0.0,0.0,0.0,0.0,0.0,0.0,0.0,0.0,0.0,0.0,-0.8735,-0.9498,-0.9866,-0.9758,-0.9585,-0.9109,-0.8269,-0.7468,-0.6841,0.0,0.0,0.0,0.0,0.0,0.0,0.0,0.0,0.0,0.0,0.0,0.0,0.0,0.0,0.0,0.0,0.0,0.0,0.0,0.0,0.0,0.0,0.0,0.0,0.0,0.0,0.0,0.0,0.0,0.0,0.0,0.0,0.0,0.0,0.0,0.0,0.0,0.0,0.0,0.0,0.0,-0.5482,-0.5648,-0.5448,-0.537,0.0,0.0,-0.5588,-0.5208,-0.4905,-0.4724,-0.4816,0.0,0.0,0.0,0.0,0.0,0.0,0.0,0.0,0.0,0.0,0.0,0.0,0.0,0.0,0.0,0.0,0.0,0.0,0.0,0.0,0.0,0.0,0.0,0.0,0.0,0.0,0.0,0.0,0.0,0.0,0.0,0.0,0.0,0.0,0.0,0.0,0.0,0.0,0.0,0.0,0.0,0.0,0.0,0.0,0.0,0.0,0.0,0.0,0.0,0.0,0.0,0.0,0.0,-0.8843,-0.8709,-0.9498,-0.9841,-0.9685,-0.9514,-0.904,-0.8287,-0.7684,-0.705,0.0,0.0,0.0,0.0,0.0,0.0,0.0,0.0,0.0,0.0,0.0,0.0,0.0,0.0,0.0,0.0,0.0,0.0,0.0,0.0,0.0,0.0,0.0,0.0,0.0,0.0,0.0,0.0,-0.3423,-0.3761,-0.5012,0.0,0.0,0.0,0.0,0.0,0.0,0.0,0.0,0.0,0.0,-0.5827,-0.6198,-0.6122,0.0,0.0,-0.6397,-0.6339,-0.6109,-0.5729,-0.5436,-0.5352,-0.5049,0.0,0.0,0.0,0.0,0.0,0.0,0.0,0.0,0.0,0.0,0.0,0.0,0.0,0.0,0.0,0.0,0.0,0.0,0.0,0.0,0.0,0.0,0.0,0.0,0.0,0.0,0.0,0.0,0.0,0.0,0.0,0.0,0.0,0.0,0.0,0.0,0.0,0.0,0.0,0.0,0.0,0.0,0.0,0.0,0.0,0.0,0.0,0.0,0.0,0.0,0.0,0.0,-0.8846,-0.8709,-0.9486,-0.9866,-0.9736,-0.9554,-0.9118,-0.8385,-0.7935,-0.7281,0.0,0.0,0.0,0.0,0.0,0.0,0.0,0.0,0.0,0.0,0.0,0.0,0.0,0.0,0.0,0.0,0.0,0.0,0.0,0.0,0.0,0.0,0.0,0.0,0.0,0.0,0.0,0.0,-0.4137,-0.4403,-0.528,0.0,0.0,0.0,0.0,0.0,0.0,0.0,0.0,0.0,0.0,-0.6243,-0.6546,-0.6602,-0.6659,-0.676,-0.687,-0.6895,-0.6726,-0.6321,-0.6019,-0.6053,0.0,0.0,0.0,0.0,0.0,0.0,0.0,0.0,0.0,0.0,0.0,0.0,0.0,0.0,0.0,0.0,0.0,0.0,0.0,0.0,0.0,0.0,0.0,0.0,0.0,0.0,0.0,0.0,0.0,0.0,-0.6607,0.0,0.0,0.0,0.0,0.0,0.0,0.0,0.0,0.0,0.0,0.0,0.0,0.0,0.0,0.0,0.0,0.0,0.0,0.0,0.0,0.0,0.0,0.0,-0.8712,-0.9498,-0.9867,-0.9789,-0.967,-0.9234,-0.8545,-0.8112,-0.7424,-0.6435,0.0,0.0,0.0,0.0,0.0,0.0,0.0,0.0,0.0,0.0,0.0,0.0,0.0,0.0,0.0,0.0,0.0,0.0,0.0,0.0,0.0,0.0,0.0,0.0,0.0,0.0,-0.494,-0.5418,-0.572,0.0,0.0,0.0,0.0,0.0,0.0,0.0,0.0,0.0,0.0,-0.6674,-0.6816,-0.6639,-0.6888,-0.7023,-0.6763,-0.7044,-0.7194,-0.694,-0.6562,-0.6468,0.0,0.0,0.0,0.0,0.0,0.0,0.0,0.0,0.0,0.0,0.0,0.0,0.0,0.0,0.0,0.0,0.0,0.0,0.0,0.0,0.0,0.0,0.0,0.0,0.0,0.0,0.0,-0.7269,-0.7384,0.0,0.0,0.0,0.0,0.0,0.0,0.0,0.0,0.0,0.0,0.0,-0.9176,-0.9245,0.0,0.0,0.0,0.0,0.0,0.0,0.0,0.0,0.0,0.0,0.0,0.0,-0.9042,-0.9287,-0.9702,-0.9893,-0.9854,-0.9828,-0.9598,-0.9181,-0.8728,-0.792,-0.6718,0.0,0.0,0.0,0.0,0.0,0.0,0.0,0.0,0.0,0.0,0.0,0.0,0.0,0.0,0.0,0.0,0.0,0.0,0.0,0.0,0.0,0.0,0.0,0.0,0.0,-0.4743,0.0,0.0,0.0,0.0,0.0,0.0,0.0,0.0,0.0,0.0,0.0,-0.6234,-0.6207,-0.664,-0.703,-0.719,-0.7649,-0.785,0.0,0.0,0.0,0.0,0.0,0.0,0.0,0.0,0.0,0.0,0.0,0.0,0.0,0.0,-0.1969,-0.1226,-0.1133,-0.1155,-0.1273,0.0,0.0,0.0,0.0,0.0,0.0,0.0,0.0,0.0,0.0,0.0,0.0,0.0,0.0,-0.8156,0.0,-0.8063,0.0,0.0,0.0,0.0,0.0,0.0,0.0,0.0,-1.005,-1.0293,-1.0193,-1.0226,-1.0591,0.0,-1.1519,-1.1268,0.0,0.0,0.0,0.0,0.0,0.0,0.0,0.0,-0.9309,-0.9521,-0.9779,-0.9893,-0.9905,-1.0094,-0.9974,-0.9537,-0.874,-0.7834,-0.6868,-0.6085,-0.5717,0.0,0.0,0.0,0.0,0.0,0.0,0.0,0.0,0.0,0.0,0.0,0.0,0.0,0.0,0.0,0.0,0.0,0.0,0.0,0.0,0.0,0.0,0.0,-0.4975,0.0,0.0,0.0,0.0,0.0,0.0,0.0,0.0,0.0,-0.59,-0.6133,-0.634,-0.6524,-0.7004,-0.7442,-0.7765,0.0,0.0,0.0,0.0,0.0,0.0,0.0,-0.7831,-0.8268,-0.861,-0.8715,-0.8393,-0.7019,-0.5481,-0.408,0.0,0.0,-0.1364,-0.1081,-0.101,-0.099,-0.0723,-0.0366,0.0052,0.0618,0.1283,0.0,0.0,0.0,0.0,0.0,0.0,0.0,0.0,-0.8807,-0.8827,0.0,-0.8687,0.0,0.0,0.0,0.0,0.0,0.0,0.0,0.0,-1.1406,-1.1381,-1.0957,-1.0937,-1.1339,-1.2057,-1.2552,-1.3048,-1.3435,-1.1741,0.0,0.0,0.0,0.0,0.0,0.0,-0.9635,-0.9485,-0.9818,-0.9955,-0.9993,-1.0469,-1.036,-0.9591,-0.8214,-0.7278,-0.6876,-0.6117,-0.5666,-0.5731,-0.591,0.0,0.0,0.0,0.0,0.0,0.0,0.0,0.0,0.0,0.0,0.0,0.0,0.0,0.0,0.0,0.0,0.0,0.0,0.0,0.0,-0.5094,0.0,0.0,0.0,0.0,0.0,0.0,0.0,0.0,0.0,0.0,-0.6707,-0.6666,-0.6812,-0.7335,0.0,0.0,0.0,0.0,-0.8744,-0.8476,-0.8651,-0.8663,-0.8232,-0.7983,-0.8135,-0.8912,0.0,0.0,-0.9263,-0.7784,-0.6369,-0.5423,-0.4352,-0.3068,-0.1572,-0.1076,-0.0777,-0.0519,-0.0422,-0.0167,0.0293,0.0798,0.1549,-1.2676,0.0,0.0,0.0,0.0,-1.0834,-1.1018,-1.0944,-1.0623,-1.0673,-1.0944,-1.0506,0.0,0.0,0.0,0.0,0.0,0.0,-1.1023,-1.1396,-1.1532,-1.1682,-1.1833,-1.1823,-1.2444,-1.357,-1.4095,-1.4659,-1.5244,-1.445,-1.3116,-1.1305,0.0,0.0,0.0,0.0,-1.0221,-1.0534,-1.0921,-1.1098,-1.1098,-1.1261,-1.073,-0.9498,-0.8552,-0.767,-0.6856,-0.6632,-0.6518,-0.6485,-0.6318,0.0,0.0,0.0,0.0,0.0,0.0,0.0,0.0,0.0,0.0,0.0,0.0,0.0,0.0,0.0,0.0,0.0,0.0,0.0,-0.527,-0.5419,-0.5633,0.0,0.0,0.0,0.0,0.0,0.0,0.0,0.0,0.0,-0.7616,-0.7255,-0.7099,0.0,0.0,-0.8638,-0.8931,-0.9426,-0.9537,-0.9038,0.0,0.0,0.0,-0.8817,-0.9012,-0.9683,-1.0057,-1.0105,-0.9519,-0.8801,-0.7917,-0.6758,-0.5761,-0.4788,-0.3653,-0.2286,-0.1323,-0.0952,-0.0748,-0.0472,-0.0086,0.0496,0.1234,-1.4506,-1.284,-1.2508,-1.2143,-1.178,-1.235,-1.2579,-1.2513,-1.223,-1.2348,-1.2742,-1.2313,-1.2142,-1.2168,-1.2287,0.0,0.0,0.0,-1.2421,-1.2501,-1.2546,-1.2822,-1.3232,-1.3217,-1.3975,-1.5343,-1.6061,-1.6601,-1.694,-1.6657,-1.5565,-1.3718,0.0,0.0,-1.1071,-1.0951,-1.1012,-1.1276,-1.1488,-1.1701,-1.1914,-1.1899,-1.1436,-1.0481,-0.9353,-0.8192,-0.7091,-0.7012,-0.6846,-0.6574,-0.6527,-0.6456,0.0,0.0,0.0,0.0,0.0,0.0,0.0,0.0,0.0,0.0,0.0,-0.3304,0.0,0.0,0.0,0.0,-0.4282,-0.4704,-0.5334,-0.5413,0.0,0.0,0.0,0.0,0.0,0.0,0.0,-0.7119,-0.7093,-0.7508,-0.8709,-0.8713,-0.8633,-0.8777,-0.9359,-0.9925,-1.0316,0.0,-1.0562,-1.0187,-1.0224,-1.0174,-0.9907,-0.9918,-1.0184,-1.0848,-1.0934,-1.074,-1.0239,-0.9661,-0.8888,-0.7803,-0.6839,-0.5936,-0.4901,-0.3537,-0.2357,-0.1682,-0.1326,-0.1032,-0.0629,-0.0048,0.0679,-1.575,-1.4723,-1.4128,-1.3501,-1.3011,-1.379,-1.3955,-1.3711,-1.3672,-1.386,-1.4238,-1.4046,-1.4053,-1.4251,-1.4265,0.0,-1.4089,-1.4223,-1.4175,-1.4084,-1.4136,-1.4397,-1.4824,-1.4824,-1.5637,-1.7094,-1.8031,-1.8419,-1.8355,-1.8252,-1.7643,-1.6513,-1.4254,-1.2774,-1.2117,-1.1995,-1.1878,-1.1771,-1.1797,-1.208,-1.2576,-1.2448,-1.2275,-1.2107,-1.0411,-0.8864,-0.7565,-0.7344,-0.6951,-0.6337,-0.6656,-0.6665,-0.6306,0.0,0.0,0.0,0.0,0.0,0.0,0.0,0.0,0.0,0.0,0.0,0.0,0.0,0.0,0.0,-0.4515,0.0,-0.5166,-0.5303,0.0,0.0,0.0,-0.6586,-0.6816,-0.7224,-0.744,-0.7305,0.0,0.0,-0.9902,0.0,-1.0998,-1.0544,-1.1039,-1.1652,-1.2275,-1.2032,-1.1783,-1.1716,-1.1433,-1.1203,-1.1193,-1.1264,-1.1521,-1.217,-1.1985,-1.1559,-1.1152,-1.0417,-0.9498,-0.8604,-0.7633,-0.6661,-0.554,-0.4741,-0.3845,-0.266,-0.2112,-0.1714,-0.126,-0.0675,-0.0027,-1.6794,-1.6195,-1.6009,-1.5263,-1.4251,-1.4929,-1.5328,-1.5449,-1.5098,-1.5205,-1.5606,-1.5289,-1.5383,-1.5718,-1.6206,-1.6161,-1.5667,-1.5566,-1.5268,-1.4775,-1.4672,-1.4853,-1.5254,-1.5264,-1.5801,-1.6876,-1.7642,-1.8069,-1.819,-1.8402,-1.8004,-1.7005,-1.5696,-1.4322,-1.2952,-1.2509,-1.2279,-1.2231,-1.3078,-1.377,-1.4255,-1.3466,-1.2781,-1.2323,-1.0952,-0.9622,-0.8297,-0.8384,-0.8053,-0.7181,-0.7194,-0.7149,-0.688,-0.6317,0.0,0.0,0.0,0.0,0.0,0.0,0.0,0.0,0.0,-0.4263,-0.4254,0.0,-0.4383,0.0,-0.5643,-0.5973,-0.5999,-0.5999,0.0,0.0,-0.6425,-0.6666,-0.7267,-0.7334,-0.7788,-0.8949,-0.9412,-1.0017,-1.1002,-1.1937,-1.2631,-1.2907,-1.3304,-1.3575,-1.3647,-1.3468,-1.3251,-1.2981,-1.2623,-1.2499,-1.2792,-1.2967,-1.2956,-1.2983,-1.2732,-1.2354,-1.1801,-1.1159,-1.0411,-0.9491,-0.8559,-0.7611,-0.667,-0.5906,-0.5131,-0.4236,-0.3211,-0.2282,-0.1886,-0.1322,-0.0651,-1.7578,-1.7061,-1.7389,-1.701,-1.6128,-1.6324,-1.6519,-1.6672,-1.6592,-1.6807,-1.7207,-1.7265,-1.7365,-1.76,-1.796,-1.7807,-1.7278,-1.7015,-1.6604,-1.6048,-1.5596,-1.5713,-1.6269,-1.6094,-1.6435,-1.7307,-1.7742,-1.789,-1.782,-1.8201,-1.791,-1.7034,-1.6367,-1.548,-1.4331,-1.3546,-1.3257,-1.3509,-1.4588,-1.5449,-1.5952,-1.5141,-1.4293,-1.3509,-1.2079,-1.0483,-0.873,-0.8928,-0.8544,-0.7402,-0.7661,-0.7636,-0.72,-0.6603,-0.6234,0.0,0.0,0.0,0.0,0.0,0.0,0.0,0.0,0.0,0.0,0.0,-0.5216,0.0,-0.6555,-0.6926,-0.6793,-0.6781,-0.6839,-0.6997,-0.6729,-0.6804,-0.7526,-0.8003,-0.8738,-0.9912,-1.0804,-1.1691,-1.2587,-1.33,-1.3931,-1.4429,-1.4639,-1.4671,-1.4578,-1.4262,-1.3925,-1.3729,-1.3401,-1.3397,-1.3962,-1.4162,-1.4166,-1.3975,-1.3696,-1.3244,-1.2506,-1.195,-1.1267,-1.0285,-0.9405,-0.8568,-0.7618,-0.6802,-0.6079,-0.5307,-0.4375,-0.3502,-0.2841,-0.2281,-0.1617,-1.8213,-1.7617,-1.8295,-1.8422,-1.8144,-1.7842,-1.7676,-1.7656,-1.8018,-1.8383,-1.8792,-1.9316,-1.9509,-1.9438,-1.9448,-1.9174,-1.8693,-1.8247,-1.7868,-1.7497,-1.6679,-1.6738,-1.7452,-1.7115,-1.7276,-1.7932,-1.803,-1.7875,-1.7506,-1.7917,-1.7687,-1.6866,-1.6599,-1.6239,-1.5719,-1.4757,-1.4538,-1.5097,-1.6095,-1.6889,-1.7463,-1.6839,-1.6032,-1.4984,-1.3268,-1.1278,-0.9157,-0.9234,-0.8738,-0.7492,-0.8062,-0.816,-0.749,-0.7039,-0.6648,0.0,-0.6565,0.0,0.0,0.0,0.0,0.0,0.0,0.0,0.0,-0.621,-0.6339,-0.6631,-0.7398,-0.7791,-0.7587,-0.7591,-0.7685,-0.7826,-0.7203,-0.7018,-0.769,-0.8781,-0.9758,-1.051,-1.2014,-1.3276,-1.396,-1.4496,-1.4927,-1.5052,-1.5053,-1.4994,-1.498,-1.4458,-1.404,-1.409,-1.3868,-1.3973,-1.4596,-1.494,-1.5033,-1.5006,-1.4682,-1.417,-1.3353,-1.2755,-1.2054,-1.0993,-1.0269,-0.9525,-0.8535,-0.7721,-0.6917,-0.6189,-0.5588,-0.4836,-0.3876,-0.3218,-0.2584,-1.851,-1.8383,-1.8539,-1.8754,-1.9062,-1.9316,-1.9238,-1.8936,-1.9014,-1.9277,-1.9689,-2.0479,-2.0546,-2.0039,-2.0215,-1.9942,-1.9312,-1.8655,-1.8259,-1.82,-1.7667,-1.7645,-1.8035,-1.8144,-1.8114,-1.807,-1.8278,-1.8203,-1.7824,-1.8109,-1.7826,-1.6977,-1.6703,-1.639,-1.5951,0.0,0.0,0.0,-1.6873,-1.7488,-1.7978,-1.7049,-1.6187,-1.5537,-1.3491,0.0,-0.9829,-0.9674,-0.9212,-0.8332,-0.8599,0.0,0.0,0.0,0.0,0.0,0.0,0.0,0.0,0.0,0.0,0.0,-1.047,-0.9498,-0.7736,-0.7777,-0.795,-0.8023,-0.8483,-0.8677,-0.8465,-0.828,-0.8078,-0.7825,-0.7403,-0.7348,-0.7969,-0.8772,-0.9733,-1.1022,-1.2497,-1.3561,-1.3903,-1.4629,-1.4922,-1.4439,-1.4453,-1.4529,-1.432,-1.4087,-1.3958,-1.3941,-1.4088,-1.4439,-1.4895,-1.5243,-1.5493,-1.5647,-1.5271,-1.4737,-1.4242,-1.3484,-1.2675,-1.1741,-1.1141,-1.0539,-0.9827,-0.8975,-0.8117,-0.7337,-0.6757,-0.5916,-0.4489,-0.3732,-0.3125,-1.9773,0.0,-1.9361,-1.9632,0.0,-2.0381,-2.0566,-2.0566,-2.0342,-2.0498,-2.0918,-2.1357,-2.1223,-2.0623,-2.0417,-2.0027,-1.9456,-1.8575,-1.8476,-1.8955,-1.8566,-1.8783,-1.9474,-1.9349,-1.9238,-1.9144,-1.9035,-1.8743,-1.8248,-1.8363,-1.7817,-1.66,-1.647,-1.6103,-1.5582,-1.6189,-1.6771,-1.735,-1.8154,-1.8857,-1.9359,-1.8306,-1.7363,-1.6531,0.0,0.0,0.0,0.0,0.0,0.0,0.0,0.0,0.0,0.0,0.0,-0.7378,-0.7869,-0.8738,-0.9944,-1.0976,-1.185,-1.2584,-1.2295,-1.1252,-0.9241,-0.9028,-0.9092,-0.9334,-0.9697,-0.9847,-0.9677,-0.9567,-0.937,-0.8921,-0.8382,-0.8214,-0.8675,-0.934,-1.0257,-1.1471,-1.2887,-1.39,-1.4221,-1.4492,-1.4548,-1.411,-1.3791,-1.3696,-1.3669,-1.3678,-1.3687,-1.3687,-1.3958,-1.4353,-1.4977,-1.5336,-1.5589,-1.5749,-1.5544,-1.5155,-1.4673,-1.3984,-1.3281,-1.2615,-1.199,-1.1458,-1.1031,-1.0288,-0.9437,-0.8643,-0.793,-0.7102,-0.5752,-0.4818,-0.4056,-2.1381,-2.0459,-2.0507,-2.066,-2.0869,-2.1201,-2.1592,-2.1973,0.0,0.0,0.0,-2.207,-2.1825,-2.1298,-2.0767,-2.0257,-1.9754,-1.8729,-1.8805,-1.9796,-1.959,-2.0013,-2.0907,-2.0663,-2.0535,-2.0529,-2.012,-1.9566,-1.8947,-1.8845,-1.7965,-1.65,-1.6258,-1.5839,-1.528,-1.6657,-1.7628,-1.8159,-1.9334,-2.0251,-2.0792,-1.9736,-1.8643,-1.7586,-1.5387,-1.3229,-1.1096,-1.0763,-1.0284,-0.9493,-0.9157,-0.8998,-0.899,-0.8135,-0.7727,-0.7994,-0.8739,-0.9787,-1.1243,-1.2424,-1.3439,-1.4314,-1.3674,-1.2504,-1.0782,-1.0225,-1.0127,-1.0488,-1.083,-1.0961,-1.0889,-1.0922,-1.0795,-1.0346,-0.9666,-0.9337,-0.9659,-1.0244,-1.1072,-1.2043,-1.3245,-1.4188,-1.4522,-1.4383,-1.4178,-1.3988,-1.3617,-1.3169,-1.3365,-1.3479,-1.3445,-1.3452,-1.3624,-1.4022,-1.4775,-1.5128,-1.5365,-1.556,-1.5495,-1.5317,-1.4835,-1.4351,-1.3843,-1.3396,-1.2885,-1.2509,-1.2209,-1.1572,-1.0818,-1.01,-0.9262,-0.832,-0.7175,-0.6135,-0.5177,-2.3139,-2.2419,-2.2076,-2.183,-2.1709,-2.1768,-2.2041,-2.2412,-2.2353,-2.2363,-2.2451,-2.276,-2.2702,-2.2291,-2.185,-2.1387,-2.0895,-2.0037,-2.0017,0.0,-2.09,-2.1209,-2.1597,-2.1972,-2.2079,-2.191,-2.1638,-2.1197,-2.0633,-1.9975,-1.8764,-1.7198,-1.6485,-1.5875,-1.5394,-1.6196,-1.7038,-1.7883,-1.9645,-2.0842,-2.133,-2.0275,-1.9183,-1.8066,-1.5952,-1.3979,-1.2237,-1.1545,-1.086,-1.0111,-0.9744,-0.9426,-0.91,-0.873,-0.846,-0.8413,-0.9762,-1.1207,-1.2549,-1.3814,-1.4879,-1.5645,-1.5027,-1.3799,-1.2106,-1.1553,-1.1361,-1.1408,-1.1496,-1.1599,-1.1827,-1.1723,-1.1615,-1.1536,-1.0947,-1.0656,-1.0997,-1.143,-1.2027,-1.2761,-1.3622,-1.418,-1.4345,-1.4337,-1.4193,-1.4007,-1.4144,-1.4243,-1.4265,-1.3687,-1.3299,-1.3251,-1.3321,-1.3661,-1.4201,-1.4417,-1.47,-1.5218,-1.4942,-1.483,-1.4901,-1.4569,-1.4212,-1.3955,-1.3739,-1.3627,-1.3346,-1.2795,-1.2178,-1.1642,-1.0781,-0.9642,-0.8286,-0.7318,-0.6411,-2.4036,-2.319,-2.2592,-2.2309,-2.2246,-2.2471,-2.2633,-2.2799,-2.2808,-2.2818,-2.2828,-2.3013,-2.288,-2.2412,-2.1919,-2.1282,-2.0575,-1.9846,-1.9974,-2.088,-2.1603,-2.2344,-2.3071,-2.363,-2.3814,-2.37,-2.3595,-2.3132,-2.2323,-2.1761,-2.0417,-1.8371,-1.6709,-1.5569,-1.5063,-1.5765,-1.6622,-1.7533,-1.9267,-2.0475,-2.1043,-2.0225,-1.9284,-1.8216,-1.6597,-1.499,-1.3375,-1.2538,-1.1841,-1.1312,-1.0362,-0.9798,-0.9657,-0.9426,-0.9442,-0.9764,-1.0907,-1.2295,-1.3844,-1.5332,-1.6367,-1.6728,-1.6201,-1.5362,-1.4231,-1.3212,-1.2641,-1.2641,-1.2617,-1.2686,-1.2852,-1.2941,-1.2976,-1.2882,-1.2609,-1.2404,-1.2352,-1.2458,-1.2779,-1.3319,-1.3812,-1.4162,-1.4449,-1.4356,-1.447,-1.4637,-1.5187,-1.5678,-1.5779,-1.5382,-1.4631,-1.3599,-1.3338,-1.3398,-1.3622,-1.3807,-1.4057,-1.4545,-1.4577,-1.456,-1.4712,-1.4505,-1.438,-1.4289,-1.4144,-1.3986,-1.3862,-1.3491,-1.3093,-1.2577,-1.1811,-1.058,-0.921,-0.7792,-0.6444,-2.4884,-2.3728,-2.3125,-2.2806,-2.2676,-2.2955,-2.3101,-2.3101,-2.3091,-2.3101,-2.3101,-2.3101,-2.2886,-2.2531,-2.2124,-2.151,-2.0751,-2.0265,-2.049,-2.1363,-2.2451,-2.3416,-2.4224,-2.4886,-2.5171,-2.5147,-2.5123,-2.468,-2.3829,-2.3232,-2.1685,-1.9171,-1.6821,-1.5423,-1.4911,-1.538,-1.6066,-1.6954,-1.8238,-1.9516,-2.0641,-2.01,-1.9397,-1.8568,-1.7476,-1.622,-1.4916,-1.3852,-1.3057,-1.245,-1.1171,-1.0337,-1.0169,-1.0196,-1.0508,-1.1191,-1.2194,-1.3564,-1.5244,-1.6709,-1.7529,-1.7519,-1.7129,-1.6602,-1.5999,-1.4745,-1.3806,-1.3638,-1.3474,-1.3429,-1.3626,-1.4009,-1.4242,-1.4097,-1.4128,-1.3975,-1.3682,-1.3543,-1.3616,-1.3935,-1.4101,-1.431,-1.4542,-1.4512,-1.4709,-1.5596,-1.6375,-1.6946,-1.7204,-1.7097,-1.6078,-1.4525,-1.3727,-1.3395,-1.3145,-1.3127,-1.3339,-1.3659,-1.3911,-1.4066,-1.4174,-1.4251,-1.4305,-1.4286,-1.4179,-1.4028,-1.407,-1.3935,-1.3662,-1.3275,-1.2517,-1.1347,-0.9536,-0.772,-0.6315,-2.5876,-2.4714,-2.4163,-2.3634,-2.3076,-2.3071,-2.3101,-2.3101,-2.3101,-2.3101,-2.3101,-2.3101,-2.3106,-2.3138,-2.3114,-2.2953,-2.2688,-2.2547,-2.2567,-2.2901,-2.3891,-2.4283,-2.436,-2.5274,-2.5648,-2.5561,-2.5535,-2.5336,-2.4826,-2.377,-2.1741,-1.8848,-1.6822,-1.576,-1.5491,-1.5036,-1.5139,-1.5817,-1.6338,-1.7933,-2.0501,-2.0126,-1.9761,-1.966,-1.8606,-1.7752,-1.6974,-1.5687,-1.4381,-1.3322,-1.2318,-1.1287,-1.0518,-1.1019,-1.1623,-1.2116,-1.3643,-1.5303,-1.6966,-1.7646,-1.7949,-1.792,-1.7598,-1.718,-1.6732,-1.5753,-1.4808,-1.4123,-1.3534,-1.3479,-1.3998,-1.4534,-1.4809,-1.4819,-1.5061,-1.5151,-1.4827,-1.4662,-1.4622,-1.4875,-1.4708,-1.4724,-1.4847,-1.4755,-1.5132,-1.6412,-1.7144,-1.7802,-1.8377,-1.8017,-1.7119,-1.563,-1.4672,-1.3634,-1.2773,-1.2409,-1.2556,-1.2583,-1.2784,-1.3235,-1.3618,-1.3777,-1.3776,-1.4172,-1.4134,-1.4077,-1.4097,-1.4088,-1.4039,-1.3737,-1.2942,-1.1807,-0.9602,-0.7716,-0.6523,-2.5841,-2.484,-2.4209,-2.3604,-2.3144,-2.3101,-2.3101,-2.3101,-2.3101,-2.3101,-2.3101,-2.3101,-2.3254,-2.3559,-2.4012,-2.4,-2.3712,-2.365,-2.3534,-2.3388,-2.3655,-2.4012,-2.4547,-2.5273,-2.5768,-2.5996,-2.6103,-2.589,-2.5228,-2.3896,-2.2182,-2.0339,-1.8326,-1.6618,-1.5255,-1.4461,-1.4148,-1.4187,-1.4643,-1.5963,-1.7946,-1.8846,-1.9246,-1.9284,-1.8895,-1.843,-1.7818,-1.6683,-1.5604,-1.4665,-1.3673,-1.2609,-1.1486,-1.2246,-1.291,-1.3393,-1.5225,-1.6662,-1.7334,-1.7998,-1.8344,-1.8354,-1.8467,-1.8296,-1.7739,-1.6684,-1.5695,-1.4957,-1.3888,-1.3412,-1.3891,-1.4484,-1.4888,-1.5107,-1.5512,-1.5657,-1.5273,-1.5147,-1.5157,-1.5225,-1.5186,-1.5041,-1.4991,-1.5234,-1.5905,-1.7035,-1.7889,-1.8798,-1.9567,-1.9134,-1.8013,-1.6604,-1.5444,-1.4032,-1.2551,-1.2211,-1.2285,-1.2378,-1.2705,-1.3193,-1.3487,-1.378,-1.3955,-1.4117,-1.4082,-1.4088,-1.4082,-1.4088,-1.4088,-1.3779,-1.2479,-1.093,-0.9388,-0.7858,-0.6805,-2.5642,-2.4797,-2.396,-2.3406,-2.3101,-2.3101,-2.3101,-2.3101,-2.3101,-2.3101,-2.3101,-2.3101,-2.344,-2.4036,-2.4691,-2.483,-2.4586,-2.4564,-2.4312,-2.3904,-2.3648,-2.39,-2.4563,-2.5348,-2.5816,-2.6094,-2.6362,-2.6199,-2.5477,-2.4117,-2.2782,-2.1562,-1.9629,-1.7515,-1.5543,-1.4573,-1.3856,-1.342,-1.3868,-1.4902,-1.6432,-1.775,-1.8622,-1.8971,-1.9146,-1.902,-1.8632,-1.7787,-1.6953,-1.6106,-1.5238,-1.4135,-1.2871,-1.3672,-1.4453,-1.505,-1.6592,-1.7617,-1.7715,-1.8266,-1.8656,-1.8783,-1.9131,-1.9031,-1.8267,-1.7165,-1.6169,-1.5425,-1.4007,-1.3269,-1.3786,-1.4399,-1.4776,-1.4974,-1.556,-1.5752,-1.5214,-1.5147,-1.5147,-1.5206,-1.5177,-1.5226,-1.5166,-1.5703,-1.6546,-1.7482,-1.8479,-1.9488,-2.0053,-1.9511,-1.8391,-1.684,-1.5685,-1.4244,-1.2469,-1.2164,-1.2305,-1.2518,-1.2879,-1.3307,-1.3613,-1.3961,-1.4082,-1.4082,-1.4088,-1.4088,-1.4088,-1.4088,-1.3913,-1.3392,-1.2132,-1.0443,-0.9383,-0.7959,-0.6975,-2.5495,-2.467,-2.3594,-2.3135,-2.3101,-2.3101,-2.3101,-2.3101,-2.3101,-2.3101,-2.3101,-2.3101,-2.3604,-2.4466,-2.5158,-2.5442,-2.5442,-2.5441,-2.5188,-2.4756,-2.4289,-2.424,-2.4477,-2.5458,-2.578,-2.5585,-2.6191,-2.621,-2.5578,-2.4506,-2.3389,-2.223,-2.0249,-1.8384,-1.6705,-1.5646,-1.4742,-1.3947,-1.4435,-1.5334,-1.6418,-1.7159,-1.8015,-1.8846,-1.9484,-1.9647,-1.9596,-1.9155,-1.8422,-1.751,-1.6861,-1.5801,-1.4319,-1.5234,-1.6242,-1.707,-1.7666,-1.8154,-1.8432,-1.8607,-1.8822,-1.918,-1.9346,-1.8987,-1.8276,-1.7107,-1.6057,-1.5204,-1.3834,-1.3175,-1.377,-1.4323,-1.4588,-1.4351,-1.5106,-1.519,-1.46,-1.4488,-1.4597,-1.4678,-1.4808,-1.4984,-1.5274,-1.6122,-1.6943,-1.7769,-1.8553,-1.9247,-1.9606,-1.9051,-1.7754,-1.6304,-1.5118,-1.4017,-1.2655,-1.2345,-1.2465,-1.2665,-1.2979,-1.3427,-1.3788,-1.4088,-1.4088,-1.4095,-1.4095,-1.4095,-1.4088,-1.3955,-1.3652,-1.3003,-1.1875,-1.0491,-0.954,-0.8013,-0.7052,-2.4935,-2.4112,-2.3387,-2.3101,-2.3101,-2.3101,-2.3101,-2.3101,-2.3101,-2.3101,-2.3101,-2.3101,-2.3527,-2.4358,-2.5295,-2.5883,-2.6166,-2.6163,-2.5746,-2.5031,-2.3993,-2.3697,-2.4048,-2.4501,-2.4978,-2.5391,-2.5763,-2.603,-2.6079,-2.5059,-2.4142,-2.3145,-2.1064,-1.9188,-1.7716,-1.6306,-1.518,-1.4432,-1.4591,-1.5128,-1.5976,-1.6468,-1.7168,-1.8031,-1.8867,-1.9291,-1.9291,-1.8724,-1.8215,-1.7781,-1.7243,-1.6335,-1.5183,-1.5674,-1.6486,-1.7324,-1.8027,-1.8442,-1.8637,-1.9114,-1.9475,-1.9678,-1.9961,-1.9726,-1.8852,-1.7656,-1.6588,-1.5662,-1.4245,-1.3519,-1.3539,-1.3735,-1.3791,-1.3911,-1.4063,-1.4179,-1.3856,-1.3648,-1.3566,-1.3646,-1.3863,-1.4269,-1.5051,-1.5771,-1.6738,-1.7798,-1.8466,-1.8986,-1.924,-1.8614,-1.7371,-1.6029,-1.4922,-1.3974,-1.3083,-1.2737,-1.271,-1.2878,-1.3179,-1.3694,-1.4128,-1.4142,-1.4142,-1.4275,-1.4242,-1.4115,-1.4122,-1.4046,-1.3695,-1.3052,-1.1875,-1.088,-0.985,-0.8498,-0.7588,-2.5041,-2.4307,-2.3732,-2.35,-2.3545,-2.351,-2.351,-2.35,-2.351,-2.35,-2.351,-2.351,-2.391,-2.4571,-2.5453,-2.6097,-2.6405,-2.634,-2.5788,-2.4893,-2.3701,-2.3353,-2.378,-2.4146,-2.4698,-2.5425,-2.6001,-2.6517,-2.6834,-2.5875,-2.4983,-2.4167,-2.1952,-2.0042,-1.8506,-1.6975,-1.575,-1.4992,-1.4986,-1.534,-1.5873,-1.642,-1.6959,-1.7498,-1.8283,-1.8592,-1.8375,-1.8162,-1.7924,-1.769,-1.7476,-1.7032,-1.6381,-1.6427,-1.6907,-1.7725,-1.8276,-1.8744,-1.9026,-1.959,-1.9971,-2.0117,-2.0371,-2.0245,-1.9332,-1.8069,-1.7017,-1.598,-1.4625,-1.3581,-1.3484,-1.3215,-1.3157,-1.3399,-1.3353,-1.3228,-1.3108,-1.2851,-1.2904,-1.3282,-1.371,-1.4195,-1.4896,-1.5751,-1.6689,-1.7705,-1.8218,-1.8684,-1.8687,-1.7917,-1.675,-1.5448,-1.441,-1.3684,-1.3128,-1.2898,-1.3006,-1.3193,-1.332,-1.384,-1.4252,-1.4262,-1.4302,-1.4422,-1.4389,-1.4229,-1.4135,-1.4108,-1.3792,-1.3283,-1.2437,-1.1434,-1.0323,-0.9157,-0.8247,-2.5834,-2.528,-2.469,-2.4336,-2.4307,-2.4297,-2.4375,-2.4316,-2.4336,-2.4277,-2.4248,-2.4346,-2.4506,-2.5123,-2.5699,-2.6051,-2.6041,-2.5905,-2.5413,-2.4528,-2.363,-2.3392,-2.382,-2.4467,-2.5162,-2.5858,-2.6924,-2.7644,-2.786,-2.6864,-2.5799,-2.463,-2.2829,-2.088,-1.8928,-1.7709,-1.6427,-1.5622,-1.5777,-1.6063,-1.6226,-1.6949,-1.7398,-1.7459,-1.7885,-1.7798,-1.7136,-1.7666,-1.7755,-1.742,-1.7812,-1.8099,-1.7752,-1.748,-1.7695,-1.8334,-1.8598,-1.9036,-1.9699,-1.9912,-2.0166,-2.042,-2.0557,-2.0128,-1.9173,-1.7989,-1.6895,-1.5962,-1.4667,-1.3606,-1.354,-1.3178,-1.2907,-1.2891,-1.2937,-1.2795,-1.2517,-1.2217,-1.242,-1.3356,-1.3953,-1.468,-1.535,-1.6045,-1.6787,-1.7372,-1.783,-1.8007,-1.77,-1.6917,-1.5756,-1.4533,-1.3719,-1.3187,-1.3074,-1.3045,-1.3307,-1.3533,-1.364,-1.3946,-1.4416,-1.4543,-1.4603,-1.4703,-1.4656,-1.4502,-1.4376,-1.4329,-1.4038,-1.35,-1.2704,-1.1966,-1.0928,-0.9822,-0.8721,-2.5432,-2.4975,-2.4608,-2.4424,-2.4424,-2.4424,-2.4424,-2.4424,-2.4424,-2.4424,-2.4424,-2.4424,-2.4598,-2.494,-2.5432,-2.5624,-2.5437,-2.5499,-2.5285,-2.4632,-2.393,-2.3629,-2.3924,-2.4531,-2.5505,-2.6716,-2.7512,-2.794,-2.7875,-2.703,-2.6097,-2.5106,-2.3418,-2.1616,-1.9912,-1.8688,-1.744,-1.63,-1.6411,-1.6567,-1.6535,-1.6832,-1.7135,-1.7388,-1.756,-1.7375,-1.6869,-1.7407,-1.7718,-1.7728,-1.7779,-1.7856,-1.7875,-1.7607,-1.7783,-1.851,-1.8926,-1.9307,-1.9834,-2.0185,-2.0362,-2.0352,-2.0216,-1.9618,-1.8687,-1.7553,-1.6535,-1.5684,-1.4608,-1.3888,-1.362,-1.3453,-1.3211,-1.2869,-1.2498,-1.2151,-1.1833,-1.1548,-1.182,-1.2654,-1.3389,-1.4225,-1.5186,-1.5996,-1.6572,-1.7181,-1.7373,-1.7144,-1.6594,-1.6018,-1.4886,-1.3537,-1.3092,-1.2919,-1.2983,-1.3146,-1.3507,-1.3806,-1.4006,-1.4133,-1.4556,-1.4836,-1.4903,-1.491,-1.4863,-1.477,-1.4643,-1.4459,-1.4196,-1.3883,-1.3261,-1.2471,-1.1602,-1.0507,-0.9354,-2.5428,-2.51,-2.4959,-2.4912,-2.4865,-2.4865,-2.4855,-2.4855,-2.4912,-2.4855,-2.4912,-2.4912,-2.4959,-2.5194,-2.5428,-2.5475,-2.5325,-2.5531,-2.5247,-2.4641,-2.4098,-2.3865,-2.4097,-2.5084,-2.6255,-2.7455,-2.8008,-2.8224,-2.8199,-2.7348,-2.6533,-2.5588,-2.3761,-2.1935,-2.0334,-1.8923,-1.7604,-1.6771,-1.6778,-1.6986,-1.7174,-1.7321,-1.7535,-1.7832,-1.8008,-1.7871,-1.749,-1.7965,-1.8167,-1.8098,-1.8131,-1.8237,-1.8223,-1.8027,-1.8164,-1.875,-1.9141,-1.9531,-2.0078,-2.04,-2.045,-2.0177,-1.9775,-1.9134,-1.8135,-1.7025,-1.6031,-1.5471,-1.4703,-1.4175,-1.3966,-1.3813,-1.3587,-1.3133,-1.2482,-1.1844,-1.1411,-1.1377,-1.1801,-1.2642,-1.3318,-1.4204,-1.5169,-1.5739,-1.6286,-1.6902,-1.6923,-1.6528,-1.5931,-1.5345,-1.4198,-1.3227,-1.277,-1.2782,-1.2965,-1.3273,-1.3653,-1.4026,-1.4409,-1.4556,-1.4803,-1.5037,-1.5164,-1.5124,-1.5084,-1.4968,-1.4834,-1.4603,-1.4362,-1.4024,-1.3775,-1.3083,-1.2235,-1.0966,-0.9771,-2.5723,-2.5684,-2.5674,-2.5615,-2.5615,-2.5606,-2.5586,-2.5635,-2.5625,-2.5586,-2.5606,-2.5557,-2.5606,-2.5684,-2.5682,-2.5634,-2.5703,-2.5673,-2.5338,-2.466,-2.4199,-2.4167,-2.4699,-2.603,-2.7151,-2.8016,-2.8267,-2.8307,-2.8072,-2.7511,-2.7074,-2.5766,-2.3781,-2.1937,-2.0121,-1.8368,-1.7294,-1.6768,-1.6858,-1.7231,-1.7881,-1.8305,-1.8549,-1.8607,-1.8994,-1.9033,-1.875,-1.9066,-1.8958,-1.833,-1.8815,-1.8981,-1.8705,-1.8617,-1.876,-1.9238,-1.9307,-1.9736,-2.0332,-2.0459,-2.0255,-1.9775,-1.9213,-1.8545,-1.7588,-1.6521,-1.5725,-1.5447,-1.4891,-1.4522,-1.4436,-1.4255,-1.3955,-1.3547,-1.2772,-1.1971,-1.1263,-1.172,-1.2274,-1.2954,-1.362,-1.4353,-1.5269,-1.5605,-1.6023,-1.6481,-1.6623,-1.6209,-1.5532,-1.4749,-1.3992,-1.3205,-1.2412,-1.2712,-1.2959,-1.348,-1.3928,-1.4536,-1.481,-1.4903,-1.5044,-1.5244,-1.5424,-1.5378,-1.5304,-1.5176,-1.5048,-1.4883,-1.4719,-1.4502,-1.4106,-1.3673,-1.2611,-1.1249,-1.0041,-2.5684,-2.5684,-2.5684,-2.5684,-2.5684,-2.5684,-2.5684,-2.5684,-2.5684,-2.5684,-2.5684,-2.5684,-2.5684,-2.5684,-2.5684,-2.5684,-2.5684,-2.5684,-2.5565,-2.5194,-2.4924,-2.5223,-2.5857,-2.6682,-2.7458,-2.8039,-2.7851,-2.7516,-2.7023,-2.6508,-2.5875,-2.5115,-2.338,-2.1455,-1.9608,-1.8228,-1.7114,-1.6436,-1.6638,-1.7191,-1.7949,-1.8403,-1.8773,-1.9141,-1.9531,-1.9678,-1.9619,-2.0,-1.9871,-1.9053,-1.9131,-1.9248,-1.9111,-1.8822,-1.8968,-1.9541,-1.9492,-1.9594,-2.0169,-2.0177,-1.9775,-1.9054,-1.8367,-1.7678,-1.6896,-1.6042,-1.5533,-1.5344,-1.5021,-1.475,-1.4576,-1.4436,-1.4162,-1.36,-1.2854,-1.2191,-1.1827,-1.1847,-1.2242,-1.3006,-1.3518,-1.4227,-1.4928,-1.5339,-1.564,-1.6088,-1.6066,-1.5666,-1.4962,-1.4265,-1.3586,-1.259,-1.2031,-1.2579,-1.3086,-1.3627,-1.4235,-1.4963,-1.5224,-1.5231,-1.5357,-1.5498,-1.5638,-1.5698,-1.5611,-1.5458,-1.5444,-1.5398,-1.5179,-1.4811,-1.4257,-1.3623,-1.2523,-1.1272,-1.0154,-2.5684,-2.5684,-2.5684,-2.5684,-2.5684,-2.5684,-2.5684,-2.5684,-2.5684,-2.5684,-2.5684,-2.5684,-2.5684,-2.5684,-2.5684,-2.5684,-2.5684,-2.5684,-2.5681,-2.5678,-2.5774,-2.6195,-2.6723,-2.7174,-2.7528,-2.7735,-2.7302,-2.6659,-2.6047,-2.5576,-2.5142,-2.4501,-2.3106,-2.1432,-1.9802,-1.8461,-1.7328,-1.6637,-1.6787,-1.7422,-1.8232,-1.8682,-1.9248,-1.9707,-2.0078,-2.0185,-2.0225,-2.0468,-2.0341,-1.9959,-1.9824,-1.9746,-1.9561,-1.9326,-1.9414,-1.9893,-1.9678,-1.9751,-1.9927,-1.9775,-1.9134,-1.8287,-1.744,-1.6674,-1.608,-1.5469,-1.5051,-1.5303,-1.5228,-1.4997,-1.473,-1.4496,-1.4135,-1.3646,-1.3134,-1.2685,-1.2328,-1.2322,-1.2578,-1.304,-1.3496,-1.4005,-1.4837,-1.5101,-1.5534,-1.5883,-1.5804,-1.5226,-1.4557,-1.3875,-1.3226,-1.2379,-1.2138,-1.2739,-1.334,-1.3895,-1.4469,-1.519,-1.5498,-1.5524,-1.5565,-1.5665,-1.5698,-1.5765,-1.5798,-1.5758,-1.5684,-1.5531,-1.518,-1.4741,-1.4209,-1.331,-1.2156,-1.1013,-0.9928,-2.5684,-2.5684,-2.5684,-2.5684,-2.5684,-2.5684,-2.5684,-2.5684,-2.5684,-2.5684,-2.5684,-2.5684,-2.5684,-2.5684,-2.5684,-2.5684,-2.5684,-2.5684,-2.5763,-2.5992,-2.6468,-2.6995,-2.7097,-2.7348,-2.7418,-2.7273,-2.6712,-2.581,-2.5084,-2.4893,-2.4693,-2.3939,-2.2884,-2.1603,-2.0047,-1.8828,-1.7767,-1.6936,-1.709,-1.7725,-1.8442,-1.8994,-1.959,-2.0331,-2.0478,-2.0537,-2.0546,-2.0605,-2.0556,-2.0595,-2.0615,-2.0351,-2.0,-1.9961,-1.9913,-1.9885,-1.9848,-1.9745,-1.9678,-1.9212,-1.8539,-1.7663,-1.6469,-1.5648,-1.5518,-1.5108,-1.4932,-1.5444,-1.5438,-1.5297,-1.4997,-1.4509,-1.4095,-1.3746,-1.36,-1.3347,-1.2998,-1.2946,-1.3072,-1.3218,-1.3509,-1.4019,-1.4589,-1.5112,-1.5553,-1.6062,-1.5777,-1.5128,-1.4497,-1.389,-1.32,-1.2387,-1.2538,-1.3006,-1.3601,-1.4139,-1.4763,-1.5364,-1.5618,-1.5718,-1.5685,-1.5725,-1.5651,-1.5671,-1.5792,-1.5778,-1.5663,-1.547,-1.5079,-1.4403,-1.3631,-1.2661,-1.1641,-1.0434,-0.9326,-2.5684,-2.5684,-2.5684,-2.5684,-2.5684,-2.5684,-2.5684,-2.5684,-2.5684,-2.5684,-2.5684,-2.5684,-2.5684,-2.5684,-2.5684,-2.5684,-2.5674,-2.5722,-2.5799,-2.6166,-2.7039,-2.7408,-2.741,-2.7412,-2.7174,-2.6648,-2.5883,-2.485,-2.3917,-2.3724,-2.3521,-2.3272,-2.2309,-2.0977,-1.9989,-1.8838,-1.7621,-1.6931,-1.7178,-1.7812,-1.8516,-1.9062,-1.9697,-2.0517,-2.0615,-2.0615,-2.0615,-2.0615,-2.0615,-2.0615,-2.0605,-2.0537,-2.039,-2.0098,-2.0031,-1.9985,-1.9659,-1.9377,-1.9174,-1.8631,-1.7937,-1.7149,-1.6214,-1.5553,-1.5635,-1.5201,-1.5164,-1.5591,-1.5684,-1.5578,-1.5271,-1.4763,-1.4295,-1.3975,-1.3686,-1.3433,-1.318,-1.3119,-1.3123,-1.326,-1.3542,-1.4122,-1.4773,-1.501,-1.5496,-1.6064,-1.573,-1.5059,-1.4467,-1.3858,-1.3198,-1.2449,-1.2759,-1.3193,-1.3653,-1.4203,-1.4718,-1.5153,-1.5451,-1.5717,-1.569,-1.5785,-1.5711,-1.5724,-1.5812,-1.573,-1.5588,-1.5194,-1.4829,-1.3945,-1.2969,-1.1881,-1.0833,-0.9768,-0.9038,-2.5684,-2.5684,-2.5684,-2.5684,-2.5684,-2.5684,-2.5684,-2.5684,-2.5684,-2.5684,-2.5684,-2.5684,-2.5684,-2.5684,-2.5684,-2.5684,-2.5722,-2.5738,-2.6027,-2.6407,-2.6897,-2.7078,-2.7235,-2.6918,-2.6464,-2.6038,-2.5295,-2.4209,-2.3396,-2.3101,-2.3178,-2.3023,-2.2051,-2.1173,-2.0215,-1.9121,-1.8105,-1.7334,-1.7451,-1.792,-1.835,-1.8984,-1.9697,-2.0429,-2.0615,-2.0615,-2.0615,-2.0615,-2.0615,-2.0615,-2.0615,-2.0605,-2.0595,-2.0361,-2.0217,-1.9993,-1.9537,-1.897,-1.8573,-1.7736,-1.6931,-1.6566,-1.5724,-1.5542,-1.5486,-1.5283,-1.543,-1.5698,-1.5798,-1.5705,-1.5404,-1.4863,-1.4396,-1.3928,-1.3621,-1.3273,-1.2926,-1.2899,-1.2993,-1.3088,-1.3316,-1.391,-1.4442,-1.4857,-1.5352,-1.5903,-1.5573,-1.4878,-1.4253,-1.372,-1.3216,-1.2786,-1.3005,-1.3347,-1.3725,-1.4196,-1.4579,-1.489,-1.5059,-1.5349,-1.5542,-1.5656,-1.5818,-1.5778,-1.573,-1.5547,-1.5356,-1.4927,-1.4148,-1.308,-1.2045,-1.1014,-1.0083,-0.9147,-0.8603,-2.5586,-2.5596,-2.5654,-2.5684,-2.5684,-2.5684,-2.5684,-2.5684,-2.5684,-2.5684,-2.5654,-2.5635,-2.5615,-2.5654,-2.5577,-2.5654,-2.5732,-2.5841,-2.6137,-2.6364,-2.6269,-2.6455,-2.6554,-2.6036,-2.5579,-2.5484,-2.4829,-2.395,-2.3353,-2.3101,-2.3101,-2.2945,-2.2295,-2.1377,-2.0537,-1.9725,-1.8574,-1.7572,-1.7725,-1.7969,-1.8193,-1.8867,-1.9734,-2.0439,-2.0615,-2.0615,-2.0615,-2.0615,-2.0615,-2.0615,-2.0615,-2.0566,-2.0489,-2.0489,-2.0245,-1.9736,-1.9049,-1.8504,-1.7836,-1.6889,-1.6118,-1.5876,-1.5442,-1.5261,-1.5391,-1.5431,-1.5524,-1.5691,-1.5805,-1.5738,-1.5458,-1.4977,-1.4389,-1.3813,-1.3447,-1.2926,-1.2465,-1.2529,-1.269,-1.2779,-1.3116,-1.3718,-1.4311,-1.4809,-1.5242,-1.5554,-1.5204,-1.4771,-1.4188,-1.362,-1.3217,-1.2914,-1.3058,-1.314,-1.3494,-1.3525,-1.4001,-1.4221,-1.4398,-1.4793,-1.5207,-1.5596,-1.571,-1.5683,-1.5642,-1.5356,-1.4771,-1.404,-1.3167,-1.2145,-1.1121,-1.0096,-0.9266,-0.8531,-0.8187,-2.5176,-2.5253,-2.5576,-2.5684,-2.5684,-2.5684,-2.5684,-2.5684,-2.5684,-2.5684,-2.5625,-2.5361,-2.542,-2.5499,-2.5312,-2.5391,-2.5673,-2.5844,-2.5886,-2.5854,-2.5709,-2.5799,-2.5477,-2.5009,-2.4627,-2.4498,-2.4209,-2.3777,-2.3266,-2.3101,-2.3101,-2.2925,-2.2305,-2.1445,-2.0654,-1.9734,-1.8746,-1.7764,-1.7842,-1.7998,-1.8193,-1.8848,-1.9686,-2.0458,-2.0576,-2.0615,-2.0615,-2.0615,-2.0615,-2.0615,-2.0615,-2.0372,-2.0059,-1.9971,-1.9578,-1.8975,-1.8207,-1.7598,-1.7079,-1.6403,-1.6041,-1.5987,-1.5616,-1.5497,-1.5598,-1.5565,-1.5598,-1.5725,-1.5825,-1.5792,-1.5704,-1.519,-1.4629,-1.4082,-1.346,-1.2846,-1.2238,-1.2151,-1.2371,-1.2462,-1.2923,-1.3554,-1.419,-1.4772,-1.5213,-1.5433,-1.526,-1.4905,-1.4414,-1.3879,-1.3366,-1.3172,-1.3013,-1.3061,-1.3136,-1.3021,-1.3113,-1.3219,-1.3495,-1.4044,-1.4562,-1.5368,-1.5596,-1.5289,-1.501,-1.4723,-1.404,-1.3162,-1.2096,-1.1028,-1.0096,-0.9164,-0.8726,-0.8233,-0.7988,-2.5059,-2.5155,-2.5557,-2.5684,-2.5684,-2.5684,-2.5684,-2.5684,-2.5684,-2.5605,-2.5381,-2.5176,-2.5223,-2.5293,-2.5195,-2.5322,-2.5644,-2.5535,-2.5468,-2.5295,-2.4982,-2.468,-2.4472,-2.4038,-2.3797,-2.3657,-2.3614,-2.3474,-2.3135,-2.3091,-2.3101,-2.2906,-2.2305,-2.1553,-2.0801,-1.9824,-1.8906,-1.8174,-1.8018,-1.8018,-1.8086,-1.8848,-1.9609,-2.0078,-2.0449,-2.0605,-2.0615,-2.0615,-2.0537,-2.045,-2.0294,-1.9893,-1.942,-1.8935,-1.8616,-1.8103,-1.7253,-1.6596,-1.6189,-1.5616,-1.5335,-1.5709,-1.5517,-1.5551,-1.5712,-1.5718,-1.5638,-1.5772,-1.5825,-1.5825,-1.5798,-1.5284,-1.4656,-1.3948,-1.3333,-1.2605,-1.1971,-1.185,-1.2024,-1.2298,-1.2849,-1.3516,-1.4302,-1.4809,-1.515,-1.5269,-1.529,-1.4957,-1.4563,-1.4108,-1.3601,-1.3074,-1.2811,-1.2426,-1.226,-1.1901,-1.2018,-1.2181,-1.2693,-1.322,-1.3952,-1.482,-1.4758,-1.4382,-1.4148,-1.3792,-1.3022,-1.2047,-1.0984,-0.9957,-0.9167,-0.8528,-0.8333,-0.8038,-0.769,-2.4851,-2.49,-2.5391,-2.5557,-2.5567,-2.5654,-2.5684,-2.5684,-2.5684,-2.5557,-2.5215,-2.5029,-2.5029,-2.5176,-2.5264,-2.542,-2.5645,-2.5361,-2.5243,-2.5026,-2.4555,-2.4079,-2.3746,-2.3486,-2.3296,-2.3266,-2.3178,-2.3101,-2.3091,-2.3101,-2.3101,-2.2867,-2.2305,-2.167,-2.1045,-1.9912,-1.9199,-1.8643,-1.8232,-1.8003,-1.8301,-1.8867,-1.9482,-1.9863,-2.0254,-2.0488,-2.0595,-2.0615,-2.045,-2.0177,-1.9863,-1.9341,-1.8536,-1.7764,-1.7318,-1.7089,-1.6182,-1.5736,-1.5489,-1.5147,-1.5147,-1.5578,-1.5504,-1.5625,-1.5732,-1.5805,-1.5812,-1.5825,-1.5825,-1.5772,-1.5645,-1.5204,-1.4522,-1.376,-1.312,-1.2529,-1.1957,-1.1797,-1.2064,-1.2395,-1.2851,-1.3514,-1.4319,-1.479,-1.5116,-1.536,-1.537,-1.5123,-1.4736,-1.4302,-1.3718,-1.2987,-1.2444,-1.1796,-1.1283,-1.0465,-1.067,-1.0978,-1.1777,-1.2601,-1.3444,-1.4268,-1.3966,-1.3636,-1.2737,-1.2268,-1.1575,-1.0979,-1.0002,-0.9122,-0.8382,-0.7889,-0.764,-0.7388,-0.7089,-2.3935,-2.4023,-2.4861,-2.5194,-2.5225,-2.5518,-2.5684,-2.5684,-2.5684,-2.5674,-2.5488,-2.4875,-2.4971,-2.5439,-2.5567,-2.5625,-2.5645,-2.5596,-2.542,-2.5137,-2.493,-2.4443,-2.3916,-2.3769,-2.3467,-2.3208,-2.312,-2.3101,-2.3101,-2.3101,-2.3101,-2.2925,-2.2363,-2.1689,-2.124,-2.0107,-1.9102,-1.8662,-1.8232,-1.8174,-1.851,-1.9023,-1.9482,-1.9777,-2.0078,-2.0303,-2.0625,-2.0654,-2.0468,-1.9957,-1.9427,-1.8714,-1.7804,-1.6617,-1.6023,-1.5773,-1.5598,-1.5566,-1.5549,-1.5325,-1.5264,-1.5571,-1.5691,-1.5778,-1.5812,-1.5825,-1.5825,-1.5825,-1.5812,-1.5671,-1.5404,-1.491,-1.4302,-1.3707,-1.308,-1.2569,-1.206,-1.2141,-1.2375,-1.2779,-1.3306,-1.3743,-1.432,-1.473,-1.506,-1.5275,-1.5396,-1.5196,-1.4863,-1.4329,-1.3536,-1.2678,-1.1808,-1.1135,-1.0366,-0.9598,-0.9582,-0.9886,-1.1005,-1.1997,-1.2641,-1.3286,-1.3396,-1.2934,-1.1885,-1.1001,-1.0488,-0.9809,-0.9023,-0.8329,-0.7637,-0.7241,-0.6945,-0.6692,-0.6234,-2.3564,-2.3857,-2.4754,-2.5059,-2.5117,-2.5547,-2.5684,-2.5684,-2.5684,-2.5547,-2.5342,-2.5,-2.5019,-2.5371,-2.5596,-2.5684,-2.5684,-2.5684,-2.5596,-2.5391,-2.5185,-2.491,-2.4482,-2.4043,-2.3643,-2.3496,-2.3218,-2.3101,-2.3101,-2.3101,-2.3101,-2.3003,-2.2506,-2.2041,-2.1543,-2.0537,-1.9717,-1.9033,-1.8403,-1.8217,-1.8598,-1.9062,-1.9492,-1.9884,-2.0371,-2.0635,-2.073,-2.088,-2.0533,-1.9889,-1.9171,-1.8339,-1.7379,-1.6438,-1.5792,-1.5648,-1.5511,-1.5424,-1.5312,-1.5261,-1.5357,-1.5511,-1.5611,-1.5638,-1.5765,-1.5825,-1.5825,-1.5825,-1.5624,-1.5464,-1.5144,-1.4616,-1.4041,-1.3487,-1.3038,-1.2764,-1.2455,-1.263,-1.2844,-1.332,-1.3748,-1.4168,-1.4563,-1.4937,-1.5277,-1.5511,-1.5591,-1.5438,-1.4902,-1.4204,-1.3233,-1.2123,-1.1207,-1.0353,-0.9564,-0.8775,-0.8858,-0.9273,-1.0564,-1.1405,-1.1745,-1.2124,-1.2301,-1.1786,-1.0578,-0.9853,-0.9395,-0.8928,-0.8382,-0.7683,-0.6986,-0.6537,-0.6037,-0.5227,-0.4622,-2.333,-2.3701,-2.448,-2.4793,-2.4861,-2.5332,-2.5557,-2.5566,-2.5645,-2.5557,-2.5312,-2.5225,-2.5233,-2.5185,-2.5518,-2.5684,-2.5684,-2.5684,-2.5684,-2.5596,-2.542,-2.5176,-2.491,-2.4431,-2.4033,-2.3799,-2.3506,-2.3237,-2.312,-2.3101,-2.3101,-2.3071,-2.2676,-2.2344,-2.1865,-2.0977,-2.0057,-1.9023,-1.8451,-1.8354,-1.8637,-1.9189,-1.9648,-2.0185,-2.0722,-2.1118,-2.102,-2.0821,-2.0345,-1.9493,-1.8478,-1.7585,-1.6703,-1.6008,-1.5631,-1.5504,-1.5487,-1.5409,-1.535,-1.5311,-1.5311,-1.5424,-1.5511,-1.5665,-1.5778,-1.5825,-1.5825,-1.5825,-1.5691,-1.5384,-1.5001,-1.4449,-1.3888,-1.3367,-1.2859,-1.2777,-1.2723,-1.2857,-1.3112,-1.3514,-1.4015,-1.4636,-1.501,-1.5278,-1.5531,-1.5752,-1.5718,-1.5591,-1.4852,-1.397,-1.288,-1.1652,-1.044,-0.9593,-0.8919,-0.8295,-0.8348,-0.873,-0.9999,-1.0677,-1.0947,-1.1109,-1.1274,-1.0431,-0.9336,-0.8961,-0.8643,-0.8219,-0.7789,-0.7188,-0.6537,-0.5682,-0.4979,-0.4069,-0.3067,-2.311,-2.3188,-2.3647,-2.3906,-2.3994,-2.4766,-2.5174,-2.5215,-2.5528,-2.5654,-2.5586,-2.5606,-2.542,-2.5293,-2.5518,-2.5684,-2.5684,-2.5684,-2.5684,-2.5674,-2.5674,-2.543,-2.5156,-2.4883,-2.4531,-2.3975,-2.3701,-2.3457,-2.3188,-2.312,-2.311,-2.3042,-2.275,-2.2578,-2.2051,-2.1162,-2.0,-1.9065,-1.8523,-1.8434,-1.8724,-1.9246,-1.9877,-2.042,-2.0897,-2.1153,-2.1157,-2.0558,-1.9771,-1.8876,-1.7751,-1.6876,-1.6267,-1.5639,-1.544,-1.5497,-1.5517,-1.5518,-1.5585,-1.5631,-1.5732,-1.5778,-1.5778,-1.5758,-1.5818,-1.5825,-1.5825,-1.5812,-1.5644,-1.5444,-1.4983,-1.4436,-1.3848,-1.3313,-1.2866,-1.2683,-1.2737,-1.2986,-1.3273,-1.368,-1.4302,-1.497,-1.5259,-1.5503,-1.5409,-1.5594,-1.5317,-1.5139,-1.4291,-1.3363,-1.2337,-1.1168,-0.9729,-0.8854,-0.8344,-0.8002,-0.7801,-0.8344,-0.9375,-0.9866,-1.0118,-1.0213,-1.0378,-0.9425,-0.8527,-0.8192,-0.7961,-0.7698,-0.7327,-0.6762,-0.5989,-0.4899,-0.358,-0.2416,-0.1513,-2.2309,-2.2514,-2.2799,-2.3277,-2.3857,-2.4754,-2.5059,-2.5146,-2.5537,-2.5684,-2.5684,-2.5674,-2.5596,-2.5518,-2.5547,-2.5684,-2.5684,-2.5684,-2.5684,-2.5684,-2.5635,-2.5567,-2.542,-2.5185,-2.492,-2.4473,-2.4102,-2.375,-2.3564,-2.3266,-2.312,-2.3023,-2.2896,-2.2691,-2.2187,-2.1279,-2.0012,-1.9029,-1.8497,-1.8349,-1.8502,-1.8646,-1.925,-2.0141,-2.0564,-2.0601,-2.0413,-2.014,-1.9335,-1.8367,-1.7356,-1.662,-1.6102,-1.5616,-1.5531,-1.5578,-1.5591,-1.5651,-1.5704,-1.5805,-1.5825,-1.5825,-1.5825,-1.5825,-1.5825,-1.5825,-1.5825,-1.5785,-1.5638,-1.5424,-1.501,-1.4442,-1.3861,-1.3313,-1.2939,-1.2699,-1.2759,-1.3054,-1.3472,-1.3926,-1.4635,-1.5384,-1.5543,-1.5702,-1.5527,-1.536,-1.5003,-1.4492,-1.3525,-1.262,-1.1536,-1.0504,-0.9157,-0.8356,-0.7819,-0.7504,-0.722,-0.7989,-0.8816,-0.9001,-0.9248,-0.9413,-0.9356,-0.8438,-0.7715,-0.7391,-0.7173,-0.7181,-0.6916,-0.6417,-0.5207,-0.3769,-0.2386,-0.0858,0.0051,-2.1221,-2.1579,-2.1926,-2.2637,-2.3547,-2.4375,-2.4687,-2.4832,-2.5283,-2.5586,-2.5674,-2.5684,-2.5684,-2.5684,-2.5684,-2.5684,-2.5684,-2.5684,-2.5684,-2.5684,-2.5684,-2.5684,-2.5625,-2.5449,-2.5205,-2.4961,-2.456,-2.415,-2.373,-2.3457,-2.3247,-2.3149,-2.3038,-2.2843,-2.2477,-2.1445,-2.0178,-1.9046,-1.8242,-1.7897,-1.7953,-1.7881,-1.8287,-1.9309,-1.9825,-1.9869,-1.9573,-1.9225,-1.8647,-1.7802,-1.7041,-1.6452,-1.6116,-1.5859,-1.5712,-1.5678,-1.5625,-1.5591,-1.5598,-1.5752,-1.5805,-1.5825,-1.5825,-1.5825,-1.5825,-1.5825,-1.5825,-1.5771,-1.5638,-1.5411,-1.5117,-1.4683,-1.4195,-1.3714,-1.3333,-1.31,-1.306,-1.326,-1.3726,-1.4204,-1.476,-1.5012,-1.4756,-1.4643,-1.4273,-1.4045,-1.3655,-1.3129,-1.2287,-1.138,-1.0491,-0.9521,-0.8524,-0.7934,-0.7466,-0.7316,-0.7231,-0.7465,-0.8112,-0.8184,-0.8402,-0.8572,-0.839,-0.7587,-0.6982,-0.6571,-0.6216,-0.5989,-0.6076,-0.6118,-0.4462,-0.252,-0.1018,0.0457,0.1483,-1.9861,-2.0322,-2.1078,-2.1917,-2.2909,-2.3563,-2.3877,-2.4072,-2.4795,-2.5361,-2.5664,-2.5684,-2.5684,-2.5684,-2.5684,-2.5684,-2.5684,-2.5684,-2.5684,-2.5684,-2.5684,-2.5684,-2.5664,-2.5615,-2.5449,-2.5204,-2.491,-2.4463,-2.3916,-2.3818,-2.3584,-2.3173,-2.2992,-2.2721,-2.2892,-2.1824,-2.0362,-1.8843,-1.7789,-1.7384,-1.7067,-1.697,-1.7426,-1.8171,-1.8781,-1.8874,-1.8654,-1.8303,-1.7731,-1.7091,-1.644,-1.6015,-1.5866,-1.5678,-1.5524,-1.5451,-1.5263,-1.5129,-1.5089,-1.5524,-1.5705,-1.5752,-1.5732,-1.5772,-1.5812,-1.5825,-1.5825,-1.5771,-1.5812,-1.5691,-1.5418,-1.5144,-1.4703,-1.4269,-1.3908,-1.3507,-1.3459,-1.3367,-1.3821,-1.3881,-1.4025,-1.4143,-1.3754,-1.3368,-1.2905,-1.2581,-1.2252,-1.1717,-1.0977,-1.0412,-0.9646,-0.8917,-0.8087,-0.7789,-0.7431,-0.7245,-0.7204,-0.7368,-0.7524,-0.7654,-0.7632,-0.7688,-0.7336,-0.6676,-0.6082,-0.5527,-0.5096,-0.4672,-0.4418,-0.3997,-0.2775,-0.114,0.041,0.174,0.2744,-1.9492,-2.0311,-2.1069,-2.1793,-2.2587,-2.347,-2.3789,-2.3945,-2.4668,-2.5312,-2.5615,-2.5684,-2.5684,-2.5684,-2.5684,-2.5684,-2.5684,-2.5684,-2.5684,-2.5684,-2.5684,-2.5684,-2.5684,-2.5664,-2.5586,-2.5469,-2.5254,-2.5057,-2.4715,-2.4365,-2.417,-2.3829,-2.2668,-2.2162,-2.1873,-2.1198,-2.0282,-1.8614,-1.7604,-1.6941,-1.6242,-1.5902,-1.6078,-1.6904,-1.7471,-1.766,-1.7576,-1.7233,-1.699,-1.6541,-1.5974,-1.5825,-1.5825,-1.5658,-1.5558,-1.5444,-1.5237,-1.5157,-1.505,-1.5204,-1.5344,-1.5458,-1.5571,-1.5645,-1.5731,-1.5818,-1.5825,-1.5838,-1.5957,-1.5924,-1.5952,-1.5912,-1.5571,-1.509,-1.4656,-1.4108,-1.3842,-1.3694,-1.3736,-1.3459,-1.3432,-1.2974,-1.255,-1.2064,-1.1561,-1.1168,-1.0834,-1.0555,-0.9927,-0.9598,-0.9029,-0.8485,-0.7837,-0.7634,-0.7451,-0.736,-0.7278,-0.7385,-0.735,-0.7336,-0.722,-0.7002,-0.6403,-0.5809,-0.5149,-0.4513,-0.377,-0.3012,-0.2338,-0.1575,-0.0642,0.0211,0.1463,0.2774,0.4017,-1.8996,-2.0002,-2.097,-2.1748,-2.2381,-2.3225,-2.3633,-2.3867,-2.4404,-2.4951,-2.541,-2.5508,-2.5557,-2.5635,-2.5684,-2.5684,-2.5684,-2.5684,-2.5684,-2.5684,-2.5684,-2.5684,-2.5684,-2.5684,-2.5664,-2.5596,-2.5478,-2.5234,-2.499,-2.4682,-2.4066,-2.3196,-2.2187,-2.126,-2.0756,-2.0184,-1.9365,-1.7833,-1.6786,-1.5991,-1.5234,-1.4777,-1.4695,-1.5391,-1.5885,-1.6226,-1.6351,-1.6411,-1.6433,-1.6109,-1.5927,-1.5825,-1.5771,-1.5664,-1.5551,-1.5337,-1.5003,-1.4863,-1.4683,-1.4636,-1.4796,-1.503,-1.5237,-1.5478,-1.5631,-1.5704,-1.5812,-1.5864,-1.6036,-1.5989,-1.5993,-1.6019,-1.5726,-1.5199,-1.4692,-1.4129,-1.3781,-1.3562,-1.3021,-1.2783,-1.2294,-1.1836,-1.1332,-1.075,-1.0223,-0.9853,-0.9439,-0.9205,-0.8997,-0.8747,-0.8531,-0.8099,-0.7811,-0.7723,-0.7604,-0.7526,-0.7451,-0.7383,-0.7257,-0.7083,-0.6658,-0.6352,-0.5702,-0.4886,-0.3942,-0.2982,-0.2128,-0.1361,-0.0605,0.0221,0.1095,0.1945,0.2668,0.3851,0.5171,-1.8326,-1.9368,-2.0755,-2.1676,-2.2201,-2.2911,-2.3364,-2.3779,-2.3818,-2.4372,-2.5125,-2.5174,-2.5352,-2.5635,-2.5684,-2.5684,-2.5684,-2.5684,-2.5684,-2.5684,-2.5684,-2.5684,-2.5684,-2.5684,-2.5684,-2.5684,-2.5596,-2.5439,-2.5099,-2.4574,-2.3689,-2.2277,-2.1113,-2.0182,-1.9512,-1.8832,-1.8065,-1.7069,-1.617,-1.5325,-1.4514,-1.3554,-1.3655,-1.4145,-1.4639,-1.5048,-1.533,-1.5683,-1.5792,-1.5778,-1.5764,-1.5825,-1.5745,-1.5565,-1.5284,-1.4981,-1.4539,-1.4389,-1.4289,-1.4322,-1.4362,-1.4632,-1.4962,-1.5232,-1.5478,-1.5651,-1.5765,-1.5822,-1.5963,-1.5705,-1.553,-1.5326,-1.5091,-1.4634,-1.4224,-1.3802,-1.345,-1.2995,-1.2318,-1.1813,-1.123,-1.0711,-1.0139,-0.9546,-0.941,-0.9157,-0.8878,-0.8467,-0.8308,-0.8173,-0.8001,-0.795,-0.773,-0.7865,-0.7774,-0.7627,-0.747,-0.7386,-0.6938,-0.6695,-0.6251,-0.5586,-0.4737,-0.3752,-0.255,-0.1514,-0.0542,0.0331,0.117,0.2004,0.2824,0.3574,0.4339,0.5216,0.6391,-1.8896,-2.0093,-2.1338,-2.2148,-2.2608,-2.296,-2.3379,-2.376,-2.3799,-2.4268,-2.5059,-2.5059,-2.5244,-2.5664,-2.5684,-2.5674,-2.5684,-2.5684,-2.5684,-2.5684,-2.5684,-2.5684,-2.5684,-2.5684,-2.5684,-2.5684,-2.5664,-2.5557,-2.5266,-2.4626,-2.3215,-2.175,-2.028,-1.9207,-1.8375,-1.7642,-1.7201,-1.6655,-1.5855,-1.4939,-1.409,-1.3194,-1.3198,-1.3333,-1.3881,-1.4295,-1.4609,-1.519,-1.5424,-1.5524,-1.5678,-1.5812,-1.5805,-1.5725,-1.5538,-1.5068,-1.4783,-1.4663,-1.4432,-1.4408,-1.4395,-1.4283,-1.4472,-1.4864,-1.5193,-1.5371,-1.5576,-1.5702,-1.5652,-1.5301,-1.4904,-1.4653,-1.4199,-1.3643,-1.3236,-1.2908,-1.2521,-1.2016,-1.1371,-1.0532,-0.9978,-0.9649,-0.9094,-0.9065,-0.888,-0.8667,-0.8305,-0.7909,-0.7636,-0.75,-0.7462,-0.7418,-0.7516,-0.7559,-0.7772,-0.7723,-0.7487,-0.73,-0.678,-0.6146,-0.5461,-0.466,-0.3743,-0.2452,-0.0963,0.0159,0.1053,0.1903,0.2742,0.3582,0.4401,0.5214,0.5971,0.6738,0.7399,-1.953,-2.0682,-2.1971,-2.2652,-2.2925,-2.3057,-2.3257,-2.3506,-2.3525,-2.3945,-2.4512,-2.4541,-2.4893,-2.54,-2.5459,-2.5547,-2.5684,-2.5684,-2.5684,-2.5684,-2.5684,-2.5684,-2.5684,-2.5684,-2.5684,-2.5693,-2.5596,-2.5421,-2.4981,-2.3741,-2.2321,-2.0935,-1.9515,-1.8564,-1.7859,-1.7332,-1.6924,-1.6376,-1.5749,-1.4857,-1.3981,-1.3211,-1.2916,-1.2911,-1.3487,-1.3761,-1.4108,-1.4783,-1.505,-1.5237,-1.5504,-1.5651,-1.5651,-1.5625,-1.5484,-1.5082,-1.4981,-1.4881,-1.4712,-1.4559,-1.4357,-1.4047,-1.3772,-1.3708,-1.4088,-1.4363,-1.4925,-1.5339,-1.5095,-1.481,-1.4387,-1.3901,-1.3151,-1.2442,-1.2168,-1.1843,-1.1377,-1.0928,-1.0149,-0.9302,-0.8846,-0.8593,-0.844,-0.8447,-0.832,-0.7917,-0.7596,-0.73,-0.7044,-0.6895,-0.6872,-0.6872,-0.7049,-0.7167,-0.7367,-0.7556,-0.7369,-0.6898,-0.6201,-0.5526,-0.4712,-0.3393,-0.2163,-0.0678,0.0874,0.1824,0.267,0.3463,0.4306,0.5089,0.5813,0.6629,0.7221,0.7726,0.8455,-2.0014,-2.0997,-2.2422,-2.2872,-2.2969,-2.2969,-2.3023,-2.3047,-2.3096,-2.3364,-2.3789,-2.3828,-2.4355,-2.5049,-2.5176,-2.541,-2.5625,-2.5684,-2.5684,-2.5674,-2.5684,-2.5684,-2.5684,-2.5684,-2.5684,-2.5586,-2.5333,-2.4932,-2.4125,-2.2735,-2.1108,-1.9952,-1.8884,-1.8068,-1.7657,-1.7387,-1.6985,-1.642,-1.5743,-1.4929,-1.3944,-1.3206,-1.279,-1.2831,-1.3125,-1.3407,-1.3908,-1.4315,-1.4636,-1.4943,-1.5269,-1.5418,-1.5504,-1.5458,-1.5271,-1.506,-1.4955,-1.4826,-1.4636,-1.4446,-1.4022,-1.3578,-1.3088,-1.261,-1.275,-1.3284,-1.3941,-1.428,-1.4015,-1.3523,-1.3047,-1.2524,-1.1801,-1.1168,-1.0759,-1.0525,-1.0275,-0.9815,-0.9274,-0.8619,-0.8535,-0.8255,-0.791,-0.794,-0.7402,-0.7081,-0.6574,-0.628,-0.6158,-0.6001,-0.6193,-0.6227,-0.6468,-0.6647,-0.6884,-0.6979,-0.7012,-0.6554,-0.561,-0.461,-0.3604,-0.2078,-0.0412,0.1026,0.2497,0.3435,0.4307,0.5004,0.5644,0.6313,0.7093,0.7928,0.8481,0.8923,0.9361,-1.943,-2.0257,-2.149,-2.2043,-2.2043,-2.2274,-2.2397,-2.2564,-2.2794,-2.3202,-2.373,-2.3838,-2.4219,-2.492,-2.4998,-2.5195,-2.5508,-2.5499,-2.5654,-2.5635,-2.5635,-2.5635,-2.5684,-2.5684,-2.5684,-2.5538,-2.5128,-2.4066,-2.2743,-2.1218,-1.9893,-1.9131,-1.8275,-1.7748,-1.7644,-1.7487,-1.7186,-1.6547,-1.6066,-1.5284,-1.4362,-1.3373,-1.279,-1.2817,-1.2991,-1.312,-1.3554,-1.3948,-1.4429,-1.4941,-1.5231,-1.5491,-1.5712,-1.557,-1.5184,-1.4823,-1.4642,-1.4484,-1.4224,-1.3865,-1.3385,-1.2928,-1.2369,-1.1731,-1.1642,-1.2144,-1.255,-1.2792,-1.274,-1.225,-1.1733,-1.1113,-1.0554,-0.9989,-0.943,-0.9323,-0.9216,-0.8787,-0.8364,-0.8267,-0.8201,-0.7914,-0.7559,-0.7058,-0.6555,-0.5901,-0.5171,-0.4744,-0.4817,-0.4756,-0.5225,-0.5372,-0.5832,-0.6086,-0.628,-0.6164,-0.6069,-0.5524,-0.4607,-0.3554,-0.2453,-0.0594,0.1314,0.2688,0.4044,0.4964,0.5726,0.6289,0.693,0.7429,0.8036,0.8758,0.9585,1.0135,1.0511,-1.8657,-1.9347,-2.0294,-2.0709,-2.0799,-2.1123,-2.1526,-2.1917,-2.2334,-2.2865,-2.3432,-2.3545,-2.3887,-2.4463,-2.4502,-2.4785,-2.5089,-2.5137,-2.5234,-2.5352,-2.5498,-2.5586,-2.5586,-2.5577,-2.5382,-2.5186,-2.4016,-2.2743,-2.1226,-2.0048,-1.9027,-1.8468,-1.7845,-1.7589,-1.7589,-1.7542,-1.7295,-1.6714,-1.6433,-1.5772,-1.4856,-1.3983,-1.3213,-1.3132,-1.2999,-1.3126,-1.3367,-1.3774,-1.4162,-1.473,-1.515,-1.5518,-1.5631,-1.5473,-1.4845,-1.4268,-1.3951,-1.3804,-1.3351,-1.2904,-1.2506,-1.2026,-1.1482,-1.076,-1.003,-1.0554,-1.1159,-1.1416,-1.1473,-1.1042,-1.0799,-1.0351,-0.9864,-0.9355,-0.9043,-0.886,-0.8553,-0.8112,-0.7762,-0.7582,-0.741,-0.7024,-0.6556,-0.5928,-0.5384,-0.455,-0.3831,-0.3599,-0.3581,-0.3736,-0.4152,-0.4453,-0.4831,-0.5115,-0.5173,-0.5043,-0.4856,-0.4216,-0.3484,-0.1921,-0.0491,0.1298,0.3042,0.4297,0.5457,0.6412,0.7133,0.7564,0.7823,0.8211,0.8871,0.953,1.041,1.1391,1.2091,-1.7871,-1.8427,-1.9055,-1.9314,-1.9413,-1.9824,-2.0449,-2.1123,-2.1686,-2.229,-2.2823,-2.2876,-2.3275,-2.3672,-2.3809,-2.4102,-2.4375,-2.4629,-2.4785,-2.5029,-2.5117,-2.54,-2.548,-2.5382,-2.4932,-2.3859,-2.2584,-2.1328,-2.0012,-1.9034,-1.8363,-1.7957,-1.7799,-1.7589,-1.7589,-1.7522,-1.7295,-1.6814,-1.642,-1.5999,-1.5297,-1.4569,-1.3833,-1.342,-1.3194,-1.3253,-1.3385,-1.3522,-1.3772,-1.4241,-1.4721,-1.5106,-1.5104,-1.4867,-1.4183,-1.3524,-1.296,-1.2616,-1.2184,-1.1763,-1.1405,-1.0966,-1.0374,-0.9805,-0.9196,-0.9325,-0.9961,-1.0143,-1.0204,-1.012,-0.9866,-0.9647,-0.921,-0.891,-0.8703,-0.8395,-0.7971,-0.7476,-0.711,-0.6804,-0.6341,-0.5994,-0.5399,-0.4755,-0.4057,-0.3225,-0.2805,-0.2667,-0.2631,-0.2909,-0.3255,-0.3479,-0.3711,-0.3872,-0.405,-0.3866,-0.3674,-0.2967,-0.2113,-0.027,0.1435,0.2879,0.4346,0.5809,0.6906,0.7476,0.8071,0.8527,0.8826,0.8992,0.9757,1.0519,1.1437,1.2472,1.3766,-1.7268,-1.8172,-1.8303,-1.8342,-1.8434,-1.8834,-1.9467,-2.0158,-2.0664,-2.1311,-2.1811,-2.2071,-2.2589,-2.3779,-2.3789,-2.3919,-2.3932,-2.4103,-2.4602,-2.5019,-2.4782,-2.5207,-2.5256,-2.4716,-2.3917,-2.2593,-2.1116,-1.9842,-1.9138,-1.8363,-1.7845,-1.7694,-1.7694,-1.7589,-1.7589,-1.7495,-1.7308,-1.6847,-1.656,-1.6226,-1.5351,-1.4672,-1.4054,-1.352,-1.2962,-1.2832,-1.2732,-1.2595,-1.2886,-1.3348,-1.3847,-1.4182,-1.4147,-1.3807,-1.3126,-1.2453,-1.1881,-1.1399,-1.0959,-1.0595,-1.0282,-1.0315,-0.9838,-0.9485,-0.904,-0.893,-0.9329,-0.9329,-0.9355,-0.9246,-0.9099,-0.9044,-0.8768,-0.8728,-0.8512,-0.8059,-0.7551,-0.6873,-0.623,-0.5654,-0.4988,-0.4484,-0.3854,-0.3247,-0.2569,-0.1856,-0.1265,-0.1165,-0.1609,-0.2002,-0.245,-0.2494,-0.2542,-0.2723,-0.288,-0.2683,-0.2389,-0.1731,-0.0745,0.1001,0.2629,0.4083,0.5557,0.6785,0.7528,0.8056,0.8649,0.9103,0.943,0.9706,1.0692,1.1559,1.2526,1.3545,1.4787]}]]